<?xml version="1.0" encoding="UTF-8" standalone="no" ?>
<gpx xmlns="http://www.topografix.com/GPX/1/1" xmlns:xsi="http://www.w3.org/2001/XMLSchema-instance" xsi:schemaLocation="http://www.topografix.com/GPX/1/1 http://www.topografix.com/GPX/1/1/gpx.xsd" version="1.1" creator="VisuGPX - https://www.visugpx.com">
  <metadata>
    <name>Tournefeuille Gravel bike</name>
  </metadata>
  <trk>
    <name><![CDATA[Tournefeuille Gravel bike_1]]></name>
    <trkseg>
      <trkpt lat="43.58703" lon="1.32226">
        <ele>185.8</ele>
        <time>2022-07-13T04:48:20Z</time>
      </trkpt>
      <trkpt lat="43.58662" lon="1.32227">
        <ele>186.2</ele>
        <time>2022-07-13T04:48:23Z</time>
      </trkpt>
      <trkpt lat="43.58663" lon="1.32228">
        <ele>186.2</ele>
        <time>2022-07-13T04:48:24Z</time>
      </trkpt>
      <trkpt lat="43.58667" lon="1.3224">
        <ele>190.4</ele>
        <time>2022-07-13T04:49:19Z</time>
      </trkpt>
      <trkpt lat="43.58668" lon="1.32245">
        <ele>190.6</ele>
        <time>2022-07-13T04:49:21Z</time>
      </trkpt>
      <trkpt lat="43.58669" lon="1.32261">
        <ele>190.8</ele>
        <time>2022-07-13T04:49:25Z</time>
      </trkpt>
      <trkpt lat="43.58669" lon="1.3228">
        <ele>191</ele>
        <time>2022-07-13T04:49:29Z</time>
      </trkpt>
      <trkpt lat="43.58671" lon="1.32284">
        <ele>191</ele>
        <time>2022-07-13T04:49:30Z</time>
      </trkpt>
      <trkpt lat="43.58673" lon="1.32285">
        <ele>191</ele>
        <time>2022-07-13T04:49:31Z</time>
      </trkpt>
      <trkpt lat="43.58679" lon="1.32282">
        <ele>191.2</ele>
        <time>2022-07-13T04:49:33Z</time>
      </trkpt>
      <trkpt lat="43.58685" lon="1.32278">
        <ele>191.6</ele>
        <time>2022-07-13T04:49:35Z</time>
      </trkpt>
      <trkpt lat="43.58708" lon="1.32256">
        <ele>192.4</ele>
        <time>2022-07-13T04:49:42Z</time>
      </trkpt>
      <trkpt lat="43.58715" lon="1.32249">
        <ele>192.8</ele>
        <time>2022-07-13T04:49:44Z</time>
      </trkpt>
      <trkpt lat="43.58732" lon="1.32232">
        <ele>193.6</ele>
        <time>2022-07-13T04:49:49Z</time>
      </trkpt>
      <trkpt lat="43.58739" lon="1.32225">
        <ele>193.8</ele>
        <time>2022-07-13T04:49:51Z</time>
      </trkpt>
      <trkpt lat="43.5875" lon="1.32214">
        <ele>194.6</ele>
        <time>2022-07-13T04:49:54Z</time>
      </trkpt>
      <trkpt lat="43.5876" lon="1.32202">
        <ele>194.8</ele>
        <time>2022-07-13T04:49:57Z</time>
      </trkpt>
      <trkpt lat="43.58764" lon="1.32198">
        <ele>195</ele>
        <time>2022-07-13T04:49:58Z</time>
      </trkpt>
      <trkpt lat="43.58776" lon="1.32187">
        <ele>195.6</ele>
        <time>2022-07-13T04:50:01Z</time>
      </trkpt>
      <trkpt lat="43.58792" lon="1.32172">
        <ele>196</ele>
        <time>2022-07-13T04:50:05Z</time>
      </trkpt>
      <trkpt lat="43.58802" lon="1.32161">
        <ele>196.2</ele>
        <time>2022-07-13T04:50:08Z</time>
      </trkpt>
      <trkpt lat="43.58805" lon="1.32152">
        <ele>196.4</ele>
        <time>2022-07-13T04:50:10Z</time>
      </trkpt>
      <trkpt lat="43.58811" lon="1.32137">
        <ele>196.6</ele>
        <time>2022-07-13T04:50:14Z</time>
      </trkpt>
      <trkpt lat="43.58819" lon="1.32116">
        <ele>197</ele>
        <time>2022-07-13T04:50:18Z</time>
      </trkpt>
      <trkpt lat="43.58843" lon="1.32095">
        <ele>197.2</ele>
        <time>2022-07-13T04:50:24Z</time>
      </trkpt>
      <trkpt lat="43.58856" lon="1.32081">
        <ele>197.2</ele>
        <time>2022-07-13T04:50:28Z</time>
      </trkpt>
      <trkpt lat="43.58876" lon="1.32062">
        <ele>197.6</ele>
        <time>2022-07-13T04:50:33Z</time>
      </trkpt>
      <trkpt lat="43.58901" lon="1.32038">
        <ele>198</ele>
        <time>2022-07-13T04:50:39Z</time>
      </trkpt>
      <trkpt lat="43.58913" lon="1.32026">
        <ele>198.2</ele>
        <time>2022-07-13T04:50:42Z</time>
      </trkpt>
      <trkpt lat="43.58924" lon="1.32015">
        <ele>198.2</ele>
        <time>2022-07-13T04:50:45Z</time>
      </trkpt>
      <trkpt lat="43.58932" lon="1.32009">
        <ele>198.4</ele>
        <time>2022-07-13T04:50:47Z</time>
      </trkpt>
      <trkpt lat="43.58937" lon="1.32009">
        <ele>198.4</ele>
        <time>2022-07-13T04:50:49Z</time>
      </trkpt>
      <trkpt lat="43.5894" lon="1.3201">
        <ele>198.4</ele>
        <time>2022-07-13T04:50:50Z</time>
      </trkpt>
      <trkpt lat="43.58943" lon="1.32009">
        <ele>198.6</ele>
        <time>2022-07-13T04:50:51Z</time>
      </trkpt>
      <trkpt lat="43.58955" lon="1.32003">
        <ele>198.6</ele>
        <time>2022-07-13T04:50:54Z</time>
      </trkpt>
      <trkpt lat="43.58977" lon="1.3199">
        <ele>198.4</ele>
        <time>2022-07-13T04:50:59Z</time>
      </trkpt>
      <trkpt lat="43.59004" lon="1.31963">
        <ele>198.6</ele>
        <time>2022-07-13T04:51:05Z</time>
      </trkpt>
      <trkpt lat="43.59034" lon="1.31929">
        <ele>198.4</ele>
        <time>2022-07-13T04:51:12Z</time>
      </trkpt>
      <trkpt lat="43.59038" lon="1.31923">
        <ele>198.4</ele>
        <time>2022-07-13T04:51:13Z</time>
      </trkpt>
      <trkpt lat="43.59051" lon="1.31901">
        <ele>198.4</ele>
        <time>2022-07-13T04:51:17Z</time>
      </trkpt>
      <trkpt lat="43.59059" lon="1.31894">
        <ele>198.4</ele>
        <time>2022-07-13T04:51:19Z</time>
      </trkpt>
      <trkpt lat="43.59067" lon="1.31887">
        <ele>198.4</ele>
        <time>2022-07-13T04:51:21Z</time>
      </trkpt>
      <trkpt lat="43.59075" lon="1.31877">
        <ele>198.2</ele>
        <time>2022-07-13T04:51:23Z</time>
      </trkpt>
      <trkpt lat="43.59082" lon="1.31866">
        <ele>198.2</ele>
        <time>2022-07-13T04:51:25Z</time>
      </trkpt>
      <trkpt lat="43.59091" lon="1.31857">
        <ele>198.2</ele>
        <time>2022-07-13T04:51:27Z</time>
      </trkpt>
      <trkpt lat="43.59095" lon="1.31852">
        <ele>198.2</ele>
        <time>2022-07-13T04:51:28Z</time>
      </trkpt>
      <trkpt lat="43.591" lon="1.31848">
        <ele>198.2</ele>
        <time>2022-07-13T04:51:29Z</time>
      </trkpt>
      <trkpt lat="43.59128" lon="1.31822">
        <ele>198.6</ele>
        <time>2022-07-13T04:51:35Z</time>
      </trkpt>
      <trkpt lat="43.59149" lon="1.31802">
        <ele>199</ele>
        <time>2022-07-13T04:51:41Z</time>
      </trkpt>
      <trkpt lat="43.59156" lon="1.31798">
        <ele>199</ele>
        <time>2022-07-13T04:51:45Z</time>
      </trkpt>
      <trkpt lat="43.59166" lon="1.31791">
        <ele>199</ele>
        <time>2022-07-13T04:51:48Z</time>
      </trkpt>
      <trkpt lat="43.5917" lon="1.31788">
        <ele>198.8</ele>
        <time>2022-07-13T04:51:49Z</time>
      </trkpt>
      <trkpt lat="43.59194" lon="1.31779">
        <ele>198.4</ele>
        <time>2022-07-13T04:51:54Z</time>
      </trkpt>
      <trkpt lat="43.59207" lon="1.31773">
        <ele>198.2</ele>
        <time>2022-07-13T04:51:57Z</time>
      </trkpt>
      <trkpt lat="43.59221" lon="1.31767">
        <ele>198</ele>
        <time>2022-07-13T04:52:01Z</time>
      </trkpt>
      <trkpt lat="43.59229" lon="1.31763">
        <ele>197.8</ele>
        <time>2022-07-13T04:52:03Z</time>
      </trkpt>
      <trkpt lat="43.59238" lon="1.3176">
        <ele>197.8</ele>
        <time>2022-07-13T04:52:05Z</time>
      </trkpt>
      <trkpt lat="43.59242" lon="1.31758">
        <ele>197.6</ele>
        <time>2022-07-13T04:52:06Z</time>
      </trkpt>
      <trkpt lat="43.59246" lon="1.31759">
        <ele>197.6</ele>
        <time>2022-07-13T04:52:07Z</time>
      </trkpt>
      <trkpt lat="43.5926" lon="1.31763">
        <ele>197.4</ele>
        <time>2022-07-13T04:52:10Z</time>
      </trkpt>
      <trkpt lat="43.59264" lon="1.31765">
        <ele>197.4</ele>
        <time>2022-07-13T04:52:11Z</time>
      </trkpt>
      <trkpt lat="43.59268" lon="1.31767">
        <ele>197.2</ele>
        <time>2022-07-13T04:52:12Z</time>
      </trkpt>
      <trkpt lat="43.59285" lon="1.31771">
        <ele>197</ele>
        <time>2022-07-13T04:52:16Z</time>
      </trkpt>
      <trkpt lat="43.59302" lon="1.31783">
        <ele>197.2</ele>
        <time>2022-07-13T04:52:20Z</time>
      </trkpt>
      <trkpt lat="43.59307" lon="1.31785">
        <ele>197.2</ele>
        <time>2022-07-13T04:52:21Z</time>
      </trkpt>
      <trkpt lat="43.59321" lon="1.31789">
        <ele>197.2</ele>
        <time>2022-07-13T04:52:24Z</time>
      </trkpt>
      <trkpt lat="43.59332" lon="1.31786">
        <ele>197.2</ele>
        <time>2022-07-13T04:52:27Z</time>
      </trkpt>
      <trkpt lat="43.59347" lon="1.31772">
        <ele>197.2</ele>
        <time>2022-07-13T04:52:32Z</time>
      </trkpt>
      <trkpt lat="43.59365" lon="1.31758">
        <ele>197.2</ele>
        <time>2022-07-13T04:52:36Z</time>
      </trkpt>
      <trkpt lat="43.59373" lon="1.31752">
        <ele>197.2</ele>
        <time>2022-07-13T04:52:38Z</time>
      </trkpt>
      <trkpt lat="43.59377" lon="1.31749">
        <ele>197.2</ele>
        <time>2022-07-13T04:52:39Z</time>
      </trkpt>
      <trkpt lat="43.59386" lon="1.31742">
        <ele>197.2</ele>
        <time>2022-07-13T04:52:41Z</time>
      </trkpt>
      <trkpt lat="43.59395" lon="1.31738">
        <ele>197.4</ele>
        <time>2022-07-13T04:52:43Z</time>
      </trkpt>
      <trkpt lat="43.59405" lon="1.31736">
        <ele>197.4</ele>
        <time>2022-07-13T04:52:45Z</time>
      </trkpt>
      <trkpt lat="43.59416" lon="1.31736">
        <ele>197.6</ele>
        <time>2022-07-13T04:52:47Z</time>
      </trkpt>
      <trkpt lat="43.59425" lon="1.31732">
        <ele>197.6</ele>
        <time>2022-07-13T04:52:49Z</time>
      </trkpt>
      <trkpt lat="43.59436" lon="1.31732">
        <ele>197.6</ele>
        <time>2022-07-13T04:52:51Z</time>
      </trkpt>
      <trkpt lat="43.59482" lon="1.31735">
        <ele>197.6</ele>
        <time>2022-07-13T04:53:00Z</time>
      </trkpt>
      <trkpt lat="43.59488" lon="1.31742">
        <ele>197.6</ele>
        <time>2022-07-13T04:53:02Z</time>
      </trkpt>
      <trkpt lat="43.59489" lon="1.31764">
        <ele>197.8</ele>
        <time>2022-07-13T04:53:06Z</time>
      </trkpt>
      <trkpt lat="43.59488" lon="1.31786">
        <ele>198</ele>
        <time>2022-07-13T04:53:10Z</time>
      </trkpt>
      <trkpt lat="43.59488" lon="1.31806">
        <ele>198</ele>
        <time>2022-07-13T04:53:13Z</time>
      </trkpt>
      <trkpt lat="43.59487" lon="1.31846">
        <ele>198.8</ele>
        <time>2022-07-13T04:53:19Z</time>
      </trkpt>
      <trkpt lat="43.59487" lon="1.31853">
        <ele>198.8</ele>
        <time>2022-07-13T04:53:20Z</time>
      </trkpt>
      <trkpt lat="43.59486" lon="1.3188">
        <ele>199</ele>
        <time>2022-07-13T04:53:24Z</time>
      </trkpt>
      <trkpt lat="43.59488" lon="1.31894">
        <ele>199</ele>
        <time>2022-07-13T04:53:26Z</time>
      </trkpt>
      <trkpt lat="43.59503" lon="1.31937">
        <ele>199</ele>
        <time>2022-07-13T04:53:33Z</time>
      </trkpt>
      <trkpt lat="43.59506" lon="1.31943">
        <ele>198.8</ele>
        <time>2022-07-13T04:53:34Z</time>
      </trkpt>
      <trkpt lat="43.59516" lon="1.3196">
        <ele>198.6</ele>
        <time>2022-07-13T04:53:37Z</time>
      </trkpt>
      <trkpt lat="43.59521" lon="1.3197">
        <ele>199</ele>
        <time>2022-07-13T04:53:39Z</time>
      </trkpt>
      <trkpt lat="43.59524" lon="1.31975">
        <ele>199</ele>
        <time>2022-07-13T04:53:40Z</time>
      </trkpt>
      <trkpt lat="43.59529" lon="1.31978">
        <ele>199</ele>
        <time>2022-07-13T04:53:41Z</time>
      </trkpt>
      <trkpt lat="43.59551" lon="1.31993">
        <ele>199</ele>
        <time>2022-07-13T04:53:46Z</time>
      </trkpt>
      <trkpt lat="43.59555" lon="1.31995">
        <ele>199</ele>
        <time>2022-07-13T04:53:47Z</time>
      </trkpt>
      <trkpt lat="43.59565" lon="1.31994">
        <ele>199</ele>
        <time>2022-07-13T04:53:49Z</time>
      </trkpt>
      <trkpt lat="43.5957" lon="1.31994">
        <ele>199</ele>
        <time>2022-07-13T04:53:50Z</time>
      </trkpt>
      <trkpt lat="43.59574" lon="1.31994">
        <ele>198.8</ele>
        <time>2022-07-13T04:53:51Z</time>
      </trkpt>
      <trkpt lat="43.59584" lon="1.32">
        <ele>198.8</ele>
        <time>2022-07-13T04:53:53Z</time>
      </trkpt>
      <trkpt lat="43.59588" lon="1.32011">
        <ele>198.6</ele>
        <time>2022-07-13T04:53:55Z</time>
      </trkpt>
      <trkpt lat="43.5959" lon="1.32018">
        <ele>198.4</ele>
        <time>2022-07-13T04:53:56Z</time>
      </trkpt>
      <trkpt lat="43.59593" lon="1.32023">
        <ele>198.4</ele>
        <time>2022-07-13T04:53:57Z</time>
      </trkpt>
      <trkpt lat="43.59602" lon="1.32032">
        <ele>198.4</ele>
        <time>2022-07-13T04:53:59Z</time>
      </trkpt>
      <trkpt lat="43.5964" lon="1.32059">
        <ele>197.8</ele>
        <time>2022-07-13T04:54:07Z</time>
      </trkpt>
      <trkpt lat="43.59679" lon="1.3209">
        <ele>197.6</ele>
        <time>2022-07-13T04:54:15Z</time>
      </trkpt>
      <trkpt lat="43.59705" lon="1.32108">
        <ele>197.4</ele>
        <time>2022-07-13T04:54:20Z</time>
      </trkpt>
      <trkpt lat="43.59725" lon="1.32123">
        <ele>197</ele>
        <time>2022-07-13T04:54:24Z</time>
      </trkpt>
      <trkpt lat="43.59761" lon="1.32148">
        <ele>196.8</ele>
        <time>2022-07-13T04:54:31Z</time>
      </trkpt>
      <trkpt lat="43.59766" lon="1.3215">
        <ele>196.8</ele>
        <time>2022-07-13T04:54:32Z</time>
      </trkpt>
      <trkpt lat="43.5977" lon="1.3215">
        <ele>196.8</ele>
        <time>2022-07-13T04:54:33Z</time>
      </trkpt>
      <trkpt lat="43.59778" lon="1.32148">
        <ele>196.6</ele>
        <time>2022-07-13T04:54:35Z</time>
      </trkpt>
      <trkpt lat="43.59782" lon="1.32149">
        <ele>196.6</ele>
        <time>2022-07-13T04:54:36Z</time>
      </trkpt>
      <trkpt lat="43.59786" lon="1.32156">
        <ele>196.6</ele>
        <time>2022-07-13T04:54:38Z</time>
      </trkpt>
      <trkpt lat="43.59789" lon="1.32167">
        <ele>196.6</ele>
        <time>2022-07-13T04:54:40Z</time>
      </trkpt>
      <trkpt lat="43.59796" lon="1.32176">
        <ele>196.6</ele>
        <time>2022-07-13T04:54:42Z</time>
      </trkpt>
      <trkpt lat="43.59809" lon="1.32188">
        <ele>196.4</ele>
        <time>2022-07-13T04:54:45Z</time>
      </trkpt>
      <trkpt lat="43.59817" lon="1.32198">
        <ele>196.6</ele>
        <time>2022-07-13T04:54:47Z</time>
      </trkpt>
      <trkpt lat="43.5982" lon="1.32202">
        <ele>196.4</ele>
        <time>2022-07-13T04:54:48Z</time>
      </trkpt>
      <trkpt lat="43.5983" lon="1.32211">
        <ele>196.2</ele>
        <time>2022-07-13T04:54:50Z</time>
      </trkpt>
      <trkpt lat="43.5984" lon="1.32216">
        <ele>196.2</ele>
        <time>2022-07-13T04:54:52Z</time>
      </trkpt>
      <trkpt lat="43.59857" lon="1.3222">
        <ele>196</ele>
        <time>2022-07-13T04:54:55Z</time>
      </trkpt>
      <trkpt lat="43.59886" lon="1.32223">
        <ele>196</ele>
        <time>2022-07-13T04:55:00Z</time>
      </trkpt>
      <trkpt lat="43.59926" lon="1.32228">
        <ele>195.6</ele>
        <time>2022-07-13T04:55:07Z</time>
      </trkpt>
      <trkpt lat="43.59954" lon="1.32233">
        <ele>195.4</ele>
        <time>2022-07-13T04:55:12Z</time>
      </trkpt>
      <trkpt lat="43.59959" lon="1.32236">
        <ele>195.4</ele>
        <time>2022-07-13T04:55:13Z</time>
      </trkpt>
      <trkpt lat="43.59964" lon="1.32239">
        <ele>195.4</ele>
        <time>2022-07-13T04:55:14Z</time>
      </trkpt>
      <trkpt lat="43.59969" lon="1.32243">
        <ele>195.4</ele>
        <time>2022-07-13T04:55:15Z</time>
      </trkpt>
      <trkpt lat="43.59981" lon="1.32256">
        <ele>195.4</ele>
        <time>2022-07-13T04:55:18Z</time>
      </trkpt>
      <trkpt lat="43.59988" lon="1.32265">
        <ele>195.4</ele>
        <time>2022-07-13T04:55:20Z</time>
      </trkpt>
      <trkpt lat="43.59995" lon="1.32271">
        <ele>195.4</ele>
        <time>2022-07-13T04:55:22Z</time>
      </trkpt>
      <trkpt lat="43.59999" lon="1.32273">
        <ele>195.4</ele>
        <time>2022-07-13T04:55:23Z</time>
      </trkpt>
      <trkpt lat="43.60009" lon="1.32273">
        <ele>195.4</ele>
        <time>2022-07-13T04:55:25Z</time>
      </trkpt>
      <trkpt lat="43.60019" lon="1.32271">
        <ele>195.2</ele>
        <time>2022-07-13T04:55:27Z</time>
      </trkpt>
      <trkpt lat="43.60028" lon="1.32269">
        <ele>195.2</ele>
        <time>2022-07-13T04:55:29Z</time>
      </trkpt>
      <trkpt lat="43.60036" lon="1.32263">
        <ele>195.2</ele>
        <time>2022-07-13T04:55:31Z</time>
      </trkpt>
      <trkpt lat="43.60043" lon="1.32263">
        <ele>195.2</ele>
        <time>2022-07-13T04:55:33Z</time>
      </trkpt>
      <trkpt lat="43.60045" lon="1.32266">
        <ele>195.2</ele>
        <time>2022-07-13T04:55:34Z</time>
      </trkpt>
      <trkpt lat="43.60045" lon="1.32283">
        <ele>195.2</ele>
        <time>2022-07-13T04:55:37Z</time>
      </trkpt>
      <trkpt lat="43.60049" lon="1.32322">
        <ele>195</ele>
        <time>2022-07-13T04:55:43Z</time>
      </trkpt>
      <trkpt lat="43.60051" lon="1.32329">
        <ele>195</ele>
        <time>2022-07-13T04:55:44Z</time>
      </trkpt>
      <trkpt lat="43.60056" lon="1.32341">
        <ele>195</ele>
        <time>2022-07-13T04:55:46Z</time>
      </trkpt>
      <trkpt lat="43.60059" lon="1.32346">
        <ele>195</ele>
        <time>2022-07-13T04:55:47Z</time>
      </trkpt>
      <trkpt lat="43.60063" lon="1.32351">
        <ele>194.8</ele>
        <time>2022-07-13T04:55:48Z</time>
      </trkpt>
      <trkpt lat="43.60086" lon="1.32377">
        <ele>194.8</ele>
        <time>2022-07-13T04:55:53Z</time>
      </trkpt>
      <trkpt lat="43.60108" lon="1.32404">
        <ele>194.6</ele>
        <time>2022-07-13T04:55:58Z</time>
      </trkpt>
      <trkpt lat="43.60117" lon="1.32415">
        <ele>194.4</ele>
        <time>2022-07-13T04:56:00Z</time>
      </trkpt>
      <trkpt lat="43.60122" lon="1.3242">
        <ele>194.4</ele>
        <time>2022-07-13T04:56:01Z</time>
      </trkpt>
      <trkpt lat="43.60163" lon="1.32468">
        <ele>194.4</ele>
        <time>2022-07-13T04:56:10Z</time>
      </trkpt>
      <trkpt lat="43.60203" lon="1.32515">
        <ele>194.2</ele>
        <time>2022-07-13T04:56:19Z</time>
      </trkpt>
      <trkpt lat="43.60245" lon="1.32559">
        <ele>194.2</ele>
        <time>2022-07-13T04:56:28Z</time>
      </trkpt>
      <trkpt lat="43.60277" lon="1.32598">
        <ele>194</ele>
        <time>2022-07-13T04:56:35Z</time>
      </trkpt>
      <trkpt lat="43.60297" lon="1.32618">
        <ele>194</ele>
        <time>2022-07-13T04:56:39Z</time>
      </trkpt>
      <trkpt lat="43.60308" lon="1.32621">
        <ele>194</ele>
        <time>2022-07-13T04:56:41Z</time>
      </trkpt>
      <trkpt lat="43.60337" lon="1.32615">
        <ele>194.2</ele>
        <time>2022-07-13T04:56:46Z</time>
      </trkpt>
      <trkpt lat="43.60355" lon="1.32609">
        <ele>194.2</ele>
        <time>2022-07-13T04:56:49Z</time>
      </trkpt>
      <trkpt lat="43.60364" lon="1.32598">
        <ele>194.2</ele>
        <time>2022-07-13T04:56:51Z</time>
      </trkpt>
      <trkpt lat="43.60374" lon="1.32578">
        <ele>194.2</ele>
        <time>2022-07-13T04:56:54Z</time>
      </trkpt>
      <trkpt lat="43.60377" lon="1.32572">
        <ele>194.2</ele>
        <time>2022-07-13T04:56:55Z</time>
      </trkpt>
      <trkpt lat="43.60392" lon="1.32545">
        <ele>194.2</ele>
        <time>2022-07-13T04:56:59Z</time>
      </trkpt>
      <trkpt lat="43.60417" lon="1.325">
        <ele>194</ele>
        <time>2022-07-13T04:57:06Z</time>
      </trkpt>
      <trkpt lat="43.60442" lon="1.32449">
        <ele>194</ele>
        <time>2022-07-13T04:57:14Z</time>
      </trkpt>
      <trkpt lat="43.60474" lon="1.32394">
        <ele>194</ele>
        <time>2022-07-13T04:57:23Z</time>
      </trkpt>
      <trkpt lat="43.60483" lon="1.32387">
        <ele>194</ele>
        <time>2022-07-13T04:57:25Z</time>
      </trkpt>
      <trkpt lat="43.60487" lon="1.32384">
        <ele>194</ele>
        <time>2022-07-13T04:57:26Z</time>
      </trkpt>
      <trkpt lat="43.60497" lon="1.3238">
        <ele>193.8</ele>
        <time>2022-07-13T04:57:28Z</time>
      </trkpt>
      <trkpt lat="43.60502" lon="1.32379">
        <ele>193.8</ele>
        <time>2022-07-13T04:57:29Z</time>
      </trkpt>
      <trkpt lat="43.60506" lon="1.32379">
        <ele>193.8</ele>
        <time>2022-07-13T04:57:30Z</time>
      </trkpt>
      <trkpt lat="43.6051" lon="1.32381">
        <ele>193.8</ele>
        <time>2022-07-13T04:57:31Z</time>
      </trkpt>
      <trkpt lat="43.60522" lon="1.32389">
        <ele>193.8</ele>
        <time>2022-07-13T04:57:34Z</time>
      </trkpt>
      <trkpt lat="43.60532" lon="1.32394">
        <ele>193.8</ele>
        <time>2022-07-13T04:57:36Z</time>
      </trkpt>
      <trkpt lat="43.60542" lon="1.32391">
        <ele>193.8</ele>
        <time>2022-07-13T04:57:38Z</time>
      </trkpt>
      <trkpt lat="43.60546" lon="1.32386">
        <ele>194</ele>
        <time>2022-07-13T04:57:39Z</time>
      </trkpt>
      <trkpt lat="43.60554" lon="1.32376">
        <ele>194</ele>
        <time>2022-07-13T04:57:41Z</time>
      </trkpt>
      <trkpt lat="43.60565" lon="1.32369">
        <ele>194</ele>
        <time>2022-07-13T04:57:43Z</time>
      </trkpt>
      <trkpt lat="43.6059" lon="1.32367">
        <ele>194</ele>
        <time>2022-07-13T04:57:47Z</time>
      </trkpt>
      <trkpt lat="43.60595" lon="1.3237">
        <ele>193.8</ele>
        <time>2022-07-13T04:57:48Z</time>
      </trkpt>
      <trkpt lat="43.60624" lon="1.324">
        <ele>193.6</ele>
        <time>2022-07-13T04:57:54Z</time>
      </trkpt>
      <trkpt lat="43.60651" lon="1.32431">
        <ele>193.4</ele>
        <time>2022-07-13T04:58:00Z</time>
      </trkpt>
      <trkpt lat="43.60657" lon="1.32435">
        <ele>193.2</ele>
        <time>2022-07-13T04:58:01Z</time>
      </trkpt>
      <trkpt lat="43.60663" lon="1.32436">
        <ele>193.2</ele>
        <time>2022-07-13T04:58:02Z</time>
      </trkpt>
      <trkpt lat="43.60675" lon="1.32436">
        <ele>193</ele>
        <time>2022-07-13T04:58:04Z</time>
      </trkpt>
      <trkpt lat="43.60686" lon="1.32432">
        <ele>193</ele>
        <time>2022-07-13T04:58:06Z</time>
      </trkpt>
      <trkpt lat="43.60718" lon="1.32416">
        <ele>192.8</ele>
        <time>2022-07-13T04:58:12Z</time>
      </trkpt>
      <trkpt lat="43.60732" lon="1.32406">
        <ele>192.8</ele>
        <time>2022-07-13T04:58:14Z</time>
      </trkpt>
      <trkpt lat="43.60742" lon="1.32398">
        <ele>192.8</ele>
        <time>2022-07-13T04:58:16Z</time>
      </trkpt>
      <trkpt lat="43.60749" lon="1.32385">
        <ele>192.8</ele>
        <time>2022-07-13T04:58:18Z</time>
      </trkpt>
      <trkpt lat="43.60751" lon="1.32378">
        <ele>192.8</ele>
        <time>2022-07-13T04:58:19Z</time>
      </trkpt>
      <trkpt lat="43.60758" lon="1.32365">
        <ele>192.8</ele>
        <time>2022-07-13T04:58:21Z</time>
      </trkpt>
      <trkpt lat="43.60769" lon="1.3235">
        <ele>192.8</ele>
        <time>2022-07-13T04:58:24Z</time>
      </trkpt>
      <trkpt lat="43.60777" lon="1.32342">
        <ele>192.8</ele>
        <time>2022-07-13T04:58:26Z</time>
      </trkpt>
      <trkpt lat="43.60784" lon="1.32341">
        <ele>192.8</ele>
        <time>2022-07-13T04:58:28Z</time>
      </trkpt>
      <trkpt lat="43.60811" lon="1.32346">
        <ele>192.8</ele>
        <time>2022-07-13T04:58:34Z</time>
      </trkpt>
      <trkpt lat="43.60837" lon="1.32337">
        <ele>192.8</ele>
        <time>2022-07-13T04:58:39Z</time>
      </trkpt>
      <trkpt lat="43.60866" lon="1.32319">
        <ele>192.6</ele>
        <time>2022-07-13T04:58:45Z</time>
      </trkpt>
      <trkpt lat="43.60871" lon="1.32317">
        <ele>192.6</ele>
        <time>2022-07-13T04:58:46Z</time>
      </trkpt>
      <trkpt lat="43.60876" lon="1.32317">
        <ele>192.6</ele>
        <time>2022-07-13T04:58:47Z</time>
      </trkpt>
      <trkpt lat="43.60888" lon="1.32319">
        <ele>192.6</ele>
        <time>2022-07-13T04:58:49Z</time>
      </trkpt>
      <trkpt lat="43.60894" lon="1.32318">
        <ele>192.6</ele>
        <time>2022-07-13T04:58:50Z</time>
      </trkpt>
      <trkpt lat="43.60906" lon="1.32315">
        <ele>192.6</ele>
        <time>2022-07-13T04:58:52Z</time>
      </trkpt>
      <trkpt lat="43.60923" lon="1.32307">
        <ele>192.8</ele>
        <time>2022-07-13T04:58:56Z</time>
      </trkpt>
      <trkpt lat="43.60937" lon="1.323">
        <ele>193.4</ele>
        <time>2022-07-13T04:59:01Z</time>
      </trkpt>
      <trkpt lat="43.60939" lon="1.323">
        <ele>193.4</ele>
        <time>2022-07-13T04:59:02Z</time>
      </trkpt>
      <trkpt lat="43.60942" lon="1.32304">
        <ele>193.8</ele>
        <time>2022-07-13T04:59:04Z</time>
      </trkpt>
      <trkpt lat="43.60943" lon="1.32312">
        <ele>194.2</ele>
        <time>2022-07-13T04:59:06Z</time>
      </trkpt>
      <trkpt lat="43.60945" lon="1.32322">
        <ele>194.6</ele>
        <time>2022-07-13T04:59:09Z</time>
      </trkpt>
      <trkpt lat="43.60943" lon="1.32324">
        <ele>194.8</ele>
        <time>2022-07-13T04:59:10Z</time>
      </trkpt>
      <trkpt lat="43.60926" lon="1.32333">
        <ele>195</ele>
        <time>2022-07-13T04:59:14Z</time>
      </trkpt>
      <trkpt lat="43.60903" lon="1.32344">
        <ele>195</ele>
        <time>2022-07-13T04:59:19Z</time>
      </trkpt>
      <trkpt lat="43.60895" lon="1.32348">
        <ele>194.6</ele>
        <time>2022-07-13T04:59:21Z</time>
      </trkpt>
      <trkpt lat="43.60893" lon="1.32349">
        <ele>194.4</ele>
        <time>2022-07-13T04:59:22Z</time>
      </trkpt>
      <trkpt lat="43.60891" lon="1.32352">
        <ele>194</ele>
        <time>2022-07-13T04:59:24Z</time>
      </trkpt>
      <trkpt lat="43.60878" lon="1.32359">
        <ele>193.2</ele>
        <time>2022-07-13T04:59:29Z</time>
      </trkpt>
      <trkpt lat="43.60873" lon="1.32366">
        <ele>193.2</ele>
        <time>2022-07-13T04:59:31Z</time>
      </trkpt>
      <trkpt lat="43.60872" lon="1.32371">
        <ele>193.2</ele>
        <time>2022-07-13T04:59:32Z</time>
      </trkpt>
      <trkpt lat="43.60872" lon="1.32377">
        <ele>193</ele>
        <time>2022-07-13T04:59:33Z</time>
      </trkpt>
      <trkpt lat="43.60872" lon="1.32383">
        <ele>192.8</ele>
        <time>2022-07-13T04:59:34Z</time>
      </trkpt>
      <trkpt lat="43.60874" lon="1.32389">
        <ele>192.8</ele>
        <time>2022-07-13T04:59:35Z</time>
      </trkpt>
      <trkpt lat="43.60879" lon="1.32406">
        <ele>192.6</ele>
        <time>2022-07-13T04:59:38Z</time>
      </trkpt>
      <trkpt lat="43.60883" lon="1.32423">
        <ele>192.4</ele>
        <time>2022-07-13T04:59:41Z</time>
      </trkpt>
      <trkpt lat="43.60889" lon="1.32438">
        <ele>192.4</ele>
        <time>2022-07-13T04:59:44Z</time>
      </trkpt>
      <trkpt lat="43.60889" lon="1.32444">
        <ele>192.2</ele>
        <time>2022-07-13T04:59:45Z</time>
      </trkpt>
      <trkpt lat="43.6089" lon="1.32457">
        <ele>192</ele>
        <time>2022-07-13T04:59:47Z</time>
      </trkpt>
      <trkpt lat="43.60892" lon="1.32463">
        <ele>192</ele>
        <time>2022-07-13T04:59:48Z</time>
      </trkpt>
      <trkpt lat="43.60895" lon="1.32469">
        <ele>192</ele>
        <time>2022-07-13T04:59:49Z</time>
      </trkpt>
      <trkpt lat="43.60909" lon="1.32488">
        <ele>191.8</ele>
        <time>2022-07-13T04:59:53Z</time>
      </trkpt>
      <trkpt lat="43.60917" lon="1.32497">
        <ele>191.6</ele>
        <time>2022-07-13T04:59:55Z</time>
      </trkpt>
      <trkpt lat="43.60917" lon="1.32508">
        <ele>191.4</ele>
        <time>2022-07-13T04:59:57Z</time>
      </trkpt>
      <trkpt lat="43.60911" lon="1.32527">
        <ele>191.4</ele>
        <time>2022-07-13T05:00:00Z</time>
      </trkpt>
      <trkpt lat="43.60911" lon="1.32533">
        <ele>191.4</ele>
        <time>2022-07-13T05:00:01Z</time>
      </trkpt>
      <trkpt lat="43.60912" lon="1.3254">
        <ele>191.4</ele>
        <time>2022-07-13T05:00:02Z</time>
      </trkpt>
      <trkpt lat="43.6092" lon="1.3255">
        <ele>191.2</ele>
        <time>2022-07-13T05:00:04Z</time>
      </trkpt>
      <trkpt lat="43.60929" lon="1.32556">
        <ele>191.2</ele>
        <time>2022-07-13T05:00:06Z</time>
      </trkpt>
      <trkpt lat="43.60936" lon="1.32561">
        <ele>191.2</ele>
        <time>2022-07-13T05:00:08Z</time>
      </trkpt>
      <trkpt lat="43.60943" lon="1.32563">
        <ele>191</ele>
        <time>2022-07-13T05:00:10Z</time>
      </trkpt>
      <trkpt lat="43.60945" lon="1.32565">
        <ele>191</ele>
        <time>2022-07-13T05:00:11Z</time>
      </trkpt>
      <trkpt lat="43.60946" lon="1.32568">
        <ele>190.8</ele>
        <time>2022-07-13T05:00:12Z</time>
      </trkpt>
      <trkpt lat="43.60946" lon="1.32575">
        <ele>190.8</ele>
        <time>2022-07-13T05:00:14Z</time>
      </trkpt>
      <trkpt lat="43.60936" lon="1.32593">
        <ele>190.8</ele>
        <time>2022-07-13T05:00:18Z</time>
      </trkpt>
      <trkpt lat="43.60914" lon="1.32628">
        <ele>190.6</ele>
        <time>2022-07-13T05:00:25Z</time>
      </trkpt>
      <trkpt lat="43.60894" lon="1.3264">
        <ele>190.6</ele>
        <time>2022-07-13T05:00:29Z</time>
      </trkpt>
      <trkpt lat="43.60879" lon="1.32652">
        <ele>190.6</ele>
        <time>2022-07-13T05:00:32Z</time>
      </trkpt>
      <trkpt lat="43.6087" lon="1.32663">
        <ele>190.6</ele>
        <time>2022-07-13T05:00:34Z</time>
      </trkpt>
      <trkpt lat="43.60863" lon="1.32677">
        <ele>190.6</ele>
        <time>2022-07-13T05:00:36Z</time>
      </trkpt>
      <trkpt lat="43.60859" lon="1.32692">
        <ele>190.6</ele>
        <time>2022-07-13T05:00:38Z</time>
      </trkpt>
      <trkpt lat="43.60858" lon="1.32708">
        <ele>190.6</ele>
        <time>2022-07-13T05:00:40Z</time>
      </trkpt>
      <trkpt lat="43.60861" lon="1.32723">
        <ele>190.8</ele>
        <time>2022-07-13T05:00:42Z</time>
      </trkpt>
      <trkpt lat="43.60874" lon="1.32749">
        <ele>190.8</ele>
        <time>2022-07-13T05:00:46Z</time>
      </trkpt>
      <trkpt lat="43.60877" lon="1.32764">
        <ele>191</ele>
        <time>2022-07-13T05:00:48Z</time>
      </trkpt>
      <trkpt lat="43.60877" lon="1.32772">
        <ele>191</ele>
        <time>2022-07-13T05:00:49Z</time>
      </trkpt>
      <trkpt lat="43.60876" lon="1.3278">
        <ele>191</ele>
        <time>2022-07-13T05:00:50Z</time>
      </trkpt>
      <trkpt lat="43.60874" lon="1.32792">
        <ele>190.8</ele>
        <time>2022-07-13T05:00:52Z</time>
      </trkpt>
      <trkpt lat="43.60871" lon="1.32796">
        <ele>190.8</ele>
        <time>2022-07-13T05:00:53Z</time>
      </trkpt>
      <trkpt lat="43.60868" lon="1.32798">
        <ele>190.8</ele>
        <time>2022-07-13T05:00:54Z</time>
      </trkpt>
      <trkpt lat="43.6086" lon="1.32799">
        <ele>190.8</ele>
        <time>2022-07-13T05:00:56Z</time>
      </trkpt>
      <trkpt lat="43.60828" lon="1.32792">
        <ele>190.4</ele>
        <time>2022-07-13T05:01:03Z</time>
      </trkpt>
      <trkpt lat="43.60826" lon="1.32789">
        <ele>190.4</ele>
        <time>2022-07-13T05:01:04Z</time>
      </trkpt>
      <trkpt lat="43.60821" lon="1.32786">
        <ele>190.2</ele>
        <time>2022-07-13T05:01:06Z</time>
      </trkpt>
      <trkpt lat="43.60819" lon="1.32788">
        <ele>190.2</ele>
        <time>2022-07-13T05:01:07Z</time>
      </trkpt>
      <trkpt lat="43.60819" lon="1.32791">
        <ele>190.2</ele>
        <time>2022-07-13T05:01:08Z</time>
      </trkpt>
      <trkpt lat="43.60824" lon="1.32796">
        <ele>190</ele>
        <time>2022-07-13T05:01:10Z</time>
      </trkpt>
      <trkpt lat="43.60847" lon="1.32799">
        <ele>189.8</ele>
        <time>2022-07-13T05:01:15Z</time>
      </trkpt>
      <trkpt lat="43.60857" lon="1.32801">
        <ele>189.8</ele>
        <time>2022-07-13T05:01:17Z</time>
      </trkpt>
      <trkpt lat="43.60866" lon="1.32801">
        <ele>189.8</ele>
        <time>2022-07-13T05:01:19Z</time>
      </trkpt>
      <trkpt lat="43.60876" lon="1.32803">
        <ele>189.8</ele>
        <time>2022-07-13T05:01:21Z</time>
      </trkpt>
      <trkpt lat="43.60881" lon="1.32805">
        <ele>189.8</ele>
        <time>2022-07-13T05:01:22Z</time>
      </trkpt>
      <trkpt lat="43.60889" lon="1.32816">
        <ele>189.8</ele>
        <time>2022-07-13T05:01:24Z</time>
      </trkpt>
      <trkpt lat="43.60902" lon="1.32832">
        <ele>190</ele>
        <time>2022-07-13T05:01:27Z</time>
      </trkpt>
      <trkpt lat="43.6091" lon="1.32846">
        <ele>190</ele>
        <time>2022-07-13T05:01:29Z</time>
      </trkpt>
      <trkpt lat="43.60942" lon="1.32895">
        <ele>190.2</ele>
        <time>2022-07-13T05:01:37Z</time>
      </trkpt>
      <trkpt lat="43.60945" lon="1.32901">
        <ele>190.2</ele>
        <time>2022-07-13T05:01:38Z</time>
      </trkpt>
      <trkpt lat="43.60951" lon="1.32915">
        <ele>190.2</ele>
        <time>2022-07-13T05:01:40Z</time>
      </trkpt>
      <trkpt lat="43.60952" lon="1.32922">
        <ele>190.4</ele>
        <time>2022-07-13T05:01:41Z</time>
      </trkpt>
      <trkpt lat="43.60953" lon="1.3293">
        <ele>190.4</ele>
        <time>2022-07-13T05:01:42Z</time>
      </trkpt>
      <trkpt lat="43.6095" lon="1.32947">
        <ele>190.6</ele>
        <time>2022-07-13T05:01:44Z</time>
      </trkpt>
      <trkpt lat="43.60945" lon="1.32979">
        <ele>190.6</ele>
        <time>2022-07-13T05:01:48Z</time>
      </trkpt>
      <trkpt lat="43.60942" lon="1.32996">
        <ele>190.8</ele>
        <time>2022-07-13T05:01:50Z</time>
      </trkpt>
      <trkpt lat="43.6093" lon="1.33059">
        <ele>191.2</ele>
        <time>2022-07-13T05:01:58Z</time>
      </trkpt>
      <trkpt lat="43.60917" lon="1.3313">
        <ele>191</ele>
        <time>2022-07-13T05:02:07Z</time>
      </trkpt>
      <trkpt lat="43.60917" lon="1.33143">
        <ele>191</ele>
        <time>2022-07-13T05:02:09Z</time>
      </trkpt>
      <trkpt lat="43.6092" lon="1.33147">
        <ele>191</ele>
        <time>2022-07-13T05:02:10Z</time>
      </trkpt>
      <trkpt lat="43.6093" lon="1.33153">
        <ele>191</ele>
        <time>2022-07-13T05:02:12Z</time>
      </trkpt>
      <trkpt lat="43.60941" lon="1.33155">
        <ele>191</ele>
        <time>2022-07-13T05:02:14Z</time>
      </trkpt>
      <trkpt lat="43.60972" lon="1.33165">
        <ele>190.8</ele>
        <time>2022-07-13T05:02:20Z</time>
      </trkpt>
      <trkpt lat="43.60976" lon="1.3317">
        <ele>190.6</ele>
        <time>2022-07-13T05:02:21Z</time>
      </trkpt>
      <trkpt lat="43.6098" lon="1.33177">
        <ele>190.6</ele>
        <time>2022-07-13T05:02:22Z</time>
      </trkpt>
      <trkpt lat="43.60987" lon="1.33199">
        <ele>190.4</ele>
        <time>2022-07-13T05:02:25Z</time>
      </trkpt>
      <trkpt lat="43.60989" lon="1.33208">
        <ele>190.4</ele>
        <time>2022-07-13T05:02:26Z</time>
      </trkpt>
      <trkpt lat="43.6099" lon="1.33225">
        <ele>190.2</ele>
        <time>2022-07-13T05:02:28Z</time>
      </trkpt>
      <trkpt lat="43.6099" lon="1.33233">
        <ele>190.2</ele>
        <time>2022-07-13T05:02:29Z</time>
      </trkpt>
      <trkpt lat="43.60989" lon="1.3324">
        <ele>190.2</ele>
        <time>2022-07-13T05:02:30Z</time>
      </trkpt>
      <trkpt lat="43.60987" lon="1.33255">
        <ele>190.2</ele>
        <time>2022-07-13T05:02:32Z</time>
      </trkpt>
      <trkpt lat="43.60982" lon="1.33268">
        <ele>190.2</ele>
        <time>2022-07-13T05:02:34Z</time>
      </trkpt>
      <trkpt lat="43.6098" lon="1.33276">
        <ele>190.2</ele>
        <time>2022-07-13T05:02:35Z</time>
      </trkpt>
      <trkpt lat="43.60979" lon="1.33288">
        <ele>190.2</ele>
        <time>2022-07-13T05:02:37Z</time>
      </trkpt>
      <trkpt lat="43.60978" lon="1.33295">
        <ele>190.4</ele>
        <time>2022-07-13T05:02:38Z</time>
      </trkpt>
      <trkpt lat="43.60975" lon="1.33309">
        <ele>190.4</ele>
        <time>2022-07-13T05:02:40Z</time>
      </trkpt>
      <trkpt lat="43.60969" lon="1.33317">
        <ele>190.4</ele>
        <time>2022-07-13T05:02:42Z</time>
      </trkpt>
      <trkpt lat="43.60963" lon="1.33325">
        <ele>190.6</ele>
        <time>2022-07-13T05:02:44Z</time>
      </trkpt>
      <trkpt lat="43.60956" lon="1.33334">
        <ele>190.4</ele>
        <time>2022-07-13T05:02:46Z</time>
      </trkpt>
      <trkpt lat="43.6095" lon="1.33349">
        <ele>190.4</ele>
        <time>2022-07-13T05:02:50Z</time>
      </trkpt>
      <trkpt lat="43.6095" lon="1.33355">
        <ele>190.4</ele>
        <time>2022-07-13T05:02:51Z</time>
      </trkpt>
      <trkpt lat="43.60947" lon="1.33379">
        <ele>190.4</ele>
        <time>2022-07-13T05:02:55Z</time>
      </trkpt>
      <trkpt lat="43.60945" lon="1.33385">
        <ele>190.4</ele>
        <time>2022-07-13T05:02:56Z</time>
      </trkpt>
      <trkpt lat="43.60931" lon="1.33416">
        <ele>190.2</ele>
        <time>2022-07-13T05:03:01Z</time>
      </trkpt>
      <trkpt lat="43.6093" lon="1.33421">
        <ele>190.2</ele>
        <time>2022-07-13T05:03:02Z</time>
      </trkpt>
      <trkpt lat="43.60928" lon="1.33426">
        <ele>189.8</ele>
        <time>2022-07-13T05:03:04Z</time>
      </trkpt>
      <trkpt lat="43.60924" lon="1.3343">
        <ele>189.6</ele>
        <time>2022-07-13T05:03:06Z</time>
      </trkpt>
      <trkpt lat="43.6092" lon="1.33437">
        <ele>189.4</ele>
        <time>2022-07-13T05:03:08Z</time>
      </trkpt>
      <trkpt lat="43.60913" lon="1.33453">
        <ele>189.2</ele>
        <time>2022-07-13T05:03:11Z</time>
      </trkpt>
      <trkpt lat="43.60903" lon="1.33471">
        <ele>189</ele>
        <time>2022-07-13T05:03:14Z</time>
      </trkpt>
      <trkpt lat="43.60895" lon="1.33485">
        <ele>189</ele>
        <time>2022-07-13T05:03:16Z</time>
      </trkpt>
      <trkpt lat="43.60893" lon="1.33491">
        <ele>188.8</ele>
        <time>2022-07-13T05:03:17Z</time>
      </trkpt>
      <trkpt lat="43.60887" lon="1.33504">
        <ele>188.6</ele>
        <time>2022-07-13T05:03:19Z</time>
      </trkpt>
      <trkpt lat="43.60885" lon="1.33512">
        <ele>188.6</ele>
        <time>2022-07-13T05:03:20Z</time>
      </trkpt>
      <trkpt lat="43.60875" lon="1.3354">
        <ele>188.6</ele>
        <time>2022-07-13T05:03:24Z</time>
      </trkpt>
      <trkpt lat="43.60872" lon="1.33546">
        <ele>188.4</ele>
        <time>2022-07-13T05:03:25Z</time>
      </trkpt>
      <trkpt lat="43.60869" lon="1.33555">
        <ele>188.4</ele>
        <time>2022-07-13T05:03:27Z</time>
      </trkpt>
      <trkpt lat="43.60869" lon="1.33558">
        <ele>188.4</ele>
        <time>2022-07-13T05:03:28Z</time>
      </trkpt>
      <trkpt lat="43.60868" lon="1.3356">
        <ele>188.4</ele>
        <time>2022-07-13T05:03:29Z</time>
      </trkpt>
      <trkpt lat="43.60863" lon="1.33568">
        <ele>188.2</ele>
        <time>2022-07-13T05:03:31Z</time>
      </trkpt>
      <trkpt lat="43.60857" lon="1.33581">
        <ele>188.2</ele>
        <time>2022-07-13T05:03:33Z</time>
      </trkpt>
      <trkpt lat="43.60856" lon="1.33586">
        <ele>188.2</ele>
        <time>2022-07-13T05:03:34Z</time>
      </trkpt>
      <trkpt lat="43.60851" lon="1.33593">
        <ele>188.2</ele>
        <time>2022-07-13T05:03:35Z</time>
      </trkpt>
      <trkpt lat="43.60851" lon="1.33607">
        <ele>188</ele>
        <time>2022-07-13T05:03:36Z</time>
      </trkpt>
      <trkpt lat="43.60849" lon="1.33626">
        <ele>187.8</ele>
        <time>2022-07-13T05:03:39Z</time>
      </trkpt>
      <trkpt lat="43.60847" lon="1.33643">
        <ele>187.6</ele>
        <time>2022-07-13T05:03:42Z</time>
      </trkpt>
      <trkpt lat="43.60843" lon="1.33646">
        <ele>187.6</ele>
        <time>2022-07-13T05:03:43Z</time>
      </trkpt>
      <trkpt lat="43.60835" lon="1.33652">
        <ele>187.4</ele>
        <time>2022-07-13T05:03:46Z</time>
      </trkpt>
      <trkpt lat="43.60833" lon="1.33652">
        <ele>187.4</ele>
        <time>2022-07-13T05:03:47Z</time>
      </trkpt>
      <trkpt lat="43.60832" lon="1.33654">
        <ele>187.4</ele>
        <time>2022-07-13T05:03:48Z</time>
      </trkpt>
      <trkpt lat="43.60825" lon="1.33658">
        <ele>187.4</ele>
        <time>2022-07-13T05:03:51Z</time>
      </trkpt>
      <trkpt lat="43.60823" lon="1.33657">
        <ele>187.4</ele>
        <time>2022-07-13T05:03:52Z</time>
      </trkpt>
      <trkpt lat="43.60823" lon="1.33655">
        <ele>187.4</ele>
        <time>2022-07-13T05:03:53Z</time>
      </trkpt>
      <trkpt lat="43.6083" lon="1.3365">
        <ele>187.6</ele>
        <time>2022-07-13T05:03:56Z</time>
      </trkpt>
      <trkpt lat="43.60843" lon="1.33641">
        <ele>187.8</ele>
        <time>2022-07-13T05:04:00Z</time>
      </trkpt>
      <trkpt lat="43.60853" lon="1.33638">
        <ele>187.8</ele>
        <time>2022-07-13T05:04:02Z</time>
      </trkpt>
      <trkpt lat="43.60861" lon="1.33637">
        <ele>188</ele>
        <time>2022-07-13T05:04:04Z</time>
      </trkpt>
      <trkpt lat="43.60871" lon="1.33634">
        <ele>188</ele>
        <time>2022-07-13T05:04:06Z</time>
      </trkpt>
      <trkpt lat="43.60883" lon="1.33633">
        <ele>188.2</ele>
        <time>2022-07-13T05:04:08Z</time>
      </trkpt>
      <trkpt lat="43.60912" lon="1.33642">
        <ele>188.2</ele>
        <time>2022-07-13T05:04:13Z</time>
      </trkpt>
      <trkpt lat="43.60945" lon="1.33649">
        <ele>188.4</ele>
        <time>2022-07-13T05:04:18Z</time>
      </trkpt>
      <trkpt lat="43.60996" lon="1.3366">
        <ele>188.2</ele>
        <time>2022-07-13T05:04:25Z</time>
      </trkpt>
      <trkpt lat="43.61049" lon="1.33672">
        <ele>187.8</ele>
        <time>2022-07-13T05:04:32Z</time>
      </trkpt>
      <trkpt lat="43.61085" lon="1.3368">
        <ele>187.6</ele>
        <time>2022-07-13T05:04:37Z</time>
      </trkpt>
      <trkpt lat="43.6109" lon="1.33683">
        <ele>187.4</ele>
        <time>2022-07-13T05:04:38Z</time>
      </trkpt>
      <trkpt lat="43.61095" lon="1.33687">
        <ele>187.4</ele>
        <time>2022-07-13T05:04:39Z</time>
      </trkpt>
      <trkpt lat="43.61102" lon="1.33697">
        <ele>187.4</ele>
        <time>2022-07-13T05:04:41Z</time>
      </trkpt>
      <trkpt lat="43.61105" lon="1.33703">
        <ele>187.4</ele>
        <time>2022-07-13T05:04:42Z</time>
      </trkpt>
      <trkpt lat="43.61109" lon="1.33709">
        <ele>187.4</ele>
        <time>2022-07-13T05:04:43Z</time>
      </trkpt>
      <trkpt lat="43.6112" lon="1.33717">
        <ele>187.2</ele>
        <time>2022-07-13T05:04:45Z</time>
      </trkpt>
      <trkpt lat="43.61125" lon="1.3372">
        <ele>187.2</ele>
        <time>2022-07-13T05:04:46Z</time>
      </trkpt>
      <trkpt lat="43.61131" lon="1.33722">
        <ele>187.2</ele>
        <time>2022-07-13T05:04:47Z</time>
      </trkpt>
      <trkpt lat="43.61155" lon="1.3373">
        <ele>187.4</ele>
        <time>2022-07-13T05:04:51Z</time>
      </trkpt>
      <trkpt lat="43.61188" lon="1.33746">
        <ele>187.4</ele>
        <time>2022-07-13T05:04:56Z</time>
      </trkpt>
      <trkpt lat="43.61234" lon="1.33778">
        <ele>187</ele>
        <time>2022-07-13T05:05:02Z</time>
      </trkpt>
      <trkpt lat="43.61275" lon="1.33819">
        <ele>186.4</ele>
        <time>2022-07-13T05:05:07Z</time>
      </trkpt>
      <trkpt lat="43.61283" lon="1.33829">
        <ele>186.2</ele>
        <time>2022-07-13T05:05:08Z</time>
      </trkpt>
      <trkpt lat="43.61307" lon="1.33859">
        <ele>185.2</ele>
        <time>2022-07-13T05:05:11Z</time>
      </trkpt>
      <trkpt lat="43.61316" lon="1.33869">
        <ele>185</ele>
        <time>2022-07-13T05:05:12Z</time>
      </trkpt>
      <trkpt lat="43.6134" lon="1.33898">
        <ele>183.8</ele>
        <time>2022-07-13T05:05:15Z</time>
      </trkpt>
      <trkpt lat="43.61347" lon="1.33908">
        <ele>183.4</ele>
        <time>2022-07-13T05:05:16Z</time>
      </trkpt>
      <trkpt lat="43.61358" lon="1.33932">
        <ele>182.6</ele>
        <time>2022-07-13T05:05:18Z</time>
      </trkpt>
      <trkpt lat="43.61367" lon="1.33957">
        <ele>181.8</ele>
        <time>2022-07-13T05:05:20Z</time>
      </trkpt>
      <trkpt lat="43.61371" lon="1.3397">
        <ele>181.6</ele>
        <time>2022-07-13T05:05:21Z</time>
      </trkpt>
      <trkpt lat="43.61374" lon="1.33994">
        <ele>180.8</ele>
        <time>2022-07-13T05:05:23Z</time>
      </trkpt>
      <trkpt lat="43.61374" lon="1.34005">
        <ele>180.6</ele>
        <time>2022-07-13T05:05:24Z</time>
      </trkpt>
      <trkpt lat="43.61376" lon="1.34038">
        <ele>179.6</ele>
        <time>2022-07-13T05:05:27Z</time>
      </trkpt>
      <trkpt lat="43.61378" lon="1.34049">
        <ele>179.2</ele>
        <time>2022-07-13T05:05:28Z</time>
      </trkpt>
      <trkpt lat="43.61385" lon="1.34076">
        <ele>178.4</ele>
        <time>2022-07-13T05:05:31Z</time>
      </trkpt>
      <trkpt lat="43.61386" lon="1.34083">
        <ele>177.8</ele>
        <time>2022-07-13T05:05:32Z</time>
      </trkpt>
      <trkpt lat="43.61387" lon="1.34092">
        <ele>177.2</ele>
        <time>2022-07-13T05:05:34Z</time>
      </trkpt>
      <trkpt lat="43.61389" lon="1.34095">
        <ele>177.2</ele>
        <time>2022-07-13T05:05:35Z</time>
      </trkpt>
      <trkpt lat="43.61401" lon="1.341">
        <ele>176.4</ele>
        <time>2022-07-13T05:05:38Z</time>
      </trkpt>
      <trkpt lat="43.61405" lon="1.34101">
        <ele>176.2</ele>
        <time>2022-07-13T05:05:39Z</time>
      </trkpt>
      <trkpt lat="43.6141" lon="1.34101">
        <ele>176</ele>
        <time>2022-07-13T05:05:40Z</time>
      </trkpt>
      <trkpt lat="43.61428" lon="1.34098">
        <ele>175.6</ele>
        <time>2022-07-13T05:05:44Z</time>
      </trkpt>
      <trkpt lat="43.61438" lon="1.34097">
        <ele>175.4</ele>
        <time>2022-07-13T05:05:46Z</time>
      </trkpt>
      <trkpt lat="43.61446" lon="1.34088">
        <ele>175.2</ele>
        <time>2022-07-13T05:05:48Z</time>
      </trkpt>
      <trkpt lat="43.61449" lon="1.34083">
        <ele>175.2</ele>
        <time>2022-07-13T05:05:49Z</time>
      </trkpt>
      <trkpt lat="43.61451" lon="1.34077">
        <ele>175</ele>
        <time>2022-07-13T05:05:50Z</time>
      </trkpt>
      <trkpt lat="43.61457" lon="1.34065">
        <ele>175</ele>
        <time>2022-07-13T05:05:52Z</time>
      </trkpt>
      <trkpt lat="43.61465" lon="1.34055">
        <ele>174.8</ele>
        <time>2022-07-13T05:05:54Z</time>
      </trkpt>
      <trkpt lat="43.61469" lon="1.34051">
        <ele>174.8</ele>
        <time>2022-07-13T05:05:55Z</time>
      </trkpt>
      <trkpt lat="43.61474" lon="1.34048">
        <ele>174.8</ele>
        <time>2022-07-13T05:05:56Z</time>
      </trkpt>
      <trkpt lat="43.61493" lon="1.3404">
        <ele>175</ele>
        <time>2022-07-13T05:06:00Z</time>
      </trkpt>
      <trkpt lat="43.6154" lon="1.34031">
        <ele>175.6</ele>
        <time>2022-07-13T05:06:09Z</time>
      </trkpt>
      <trkpt lat="43.61581" lon="1.34021">
        <ele>176.2</ele>
        <time>2022-07-13T05:06:17Z</time>
      </trkpt>
      <trkpt lat="43.61586" lon="1.3402">
        <ele>176.4</ele>
        <time>2022-07-13T05:06:18Z</time>
      </trkpt>
      <trkpt lat="43.61622" lon="1.34014">
        <ele>177.2</ele>
        <time>2022-07-13T05:06:25Z</time>
      </trkpt>
      <trkpt lat="43.61657" lon="1.34012">
        <ele>178</ele>
        <time>2022-07-13T05:06:32Z</time>
      </trkpt>
      <trkpt lat="43.61668" lon="1.3401">
        <ele>178.2</ele>
        <time>2022-07-13T05:06:35Z</time>
      </trkpt>
      <trkpt lat="43.6167" lon="1.34008">
        <ele>178.4</ele>
        <time>2022-07-13T05:06:36Z</time>
      </trkpt>
      <trkpt lat="43.61672" lon="1.34001">
        <ele>178.4</ele>
        <time>2022-07-13T05:06:38Z</time>
      </trkpt>
      <trkpt lat="43.61678" lon="1.33999">
        <ele>178.6</ele>
        <time>2022-07-13T05:06:40Z</time>
      </trkpt>
      <trkpt lat="43.6169" lon="1.33999">
        <ele>179</ele>
        <time>2022-07-13T05:06:43Z</time>
      </trkpt>
      <trkpt lat="43.61699" lon="1.33996">
        <ele>179.2</ele>
        <time>2022-07-13T05:06:45Z</time>
      </trkpt>
      <trkpt lat="43.61713" lon="1.33991">
        <ele>179.2</ele>
        <time>2022-07-13T05:06:48Z</time>
      </trkpt>
      <trkpt lat="43.61736" lon="1.33979">
        <ele>179.8</ele>
        <time>2022-07-13T05:06:53Z</time>
      </trkpt>
      <trkpt lat="43.61758" lon="1.33965">
        <ele>180</ele>
        <time>2022-07-13T05:06:58Z</time>
      </trkpt>
      <trkpt lat="43.6177" lon="1.33955">
        <ele>180.2</ele>
        <time>2022-07-13T05:07:01Z</time>
      </trkpt>
      <trkpt lat="43.61774" lon="1.33952">
        <ele>180.4</ele>
        <time>2022-07-13T05:07:02Z</time>
      </trkpt>
      <trkpt lat="43.61798" lon="1.33932">
        <ele>181</ele>
        <time>2022-07-13T05:07:08Z</time>
      </trkpt>
      <trkpt lat="43.61806" lon="1.33928">
        <ele>181</ele>
        <time>2022-07-13T05:07:10Z</time>
      </trkpt>
      <trkpt lat="43.61817" lon="1.33932">
        <ele>181.2</ele>
        <time>2022-07-13T05:07:13Z</time>
      </trkpt>
      <trkpt lat="43.61818" lon="1.33935">
        <ele>181.4</ele>
        <time>2022-07-13T05:07:14Z</time>
      </trkpt>
      <trkpt lat="43.61817" lon="1.3394">
        <ele>181.6</ele>
        <time>2022-07-13T05:07:15Z</time>
      </trkpt>
      <trkpt lat="43.61814" lon="1.33946">
        <ele>181.6</ele>
        <time>2022-07-13T05:07:16Z</time>
      </trkpt>
      <trkpt lat="43.61807" lon="1.33956">
        <ele>181.8</ele>
        <time>2022-07-13T05:07:18Z</time>
      </trkpt>
      <trkpt lat="43.61783" lon="1.3398">
        <ele>181.8</ele>
        <time>2022-07-13T05:07:22Z</time>
      </trkpt>
      <trkpt lat="43.61777" lon="1.33986">
        <ele>181.6</ele>
        <time>2022-07-13T05:07:23Z</time>
      </trkpt>
      <trkpt lat="43.61766" lon="1.33992">
        <ele>181.2</ele>
        <time>2022-07-13T05:07:25Z</time>
      </trkpt>
      <trkpt lat="43.61763" lon="1.33994">
        <ele>181.2</ele>
        <time>2022-07-13T05:07:26Z</time>
      </trkpt>
      <trkpt lat="43.61761" lon="1.33998">
        <ele>180.8</ele>
        <time>2022-07-13T05:07:27Z</time>
      </trkpt>
      <trkpt lat="43.61762" lon="1.34004">
        <ele>180.4</ele>
        <time>2022-07-13T05:07:28Z</time>
      </trkpt>
      <trkpt lat="43.61768" lon="1.34027">
        <ele>179.6</ele>
        <time>2022-07-13T05:07:31Z</time>
      </trkpt>
      <trkpt lat="43.6177" lon="1.34036">
        <ele>179.2</ele>
        <time>2022-07-13T05:07:32Z</time>
      </trkpt>
      <trkpt lat="43.61782" lon="1.34077">
        <ele>178.2</ele>
        <time>2022-07-13T05:07:36Z</time>
      </trkpt>
      <trkpt lat="43.61785" lon="1.34088">
        <ele>177.8</ele>
        <time>2022-07-13T05:07:37Z</time>
      </trkpt>
      <trkpt lat="43.61794" lon="1.34124">
        <ele>176.6</ele>
        <time>2022-07-13T05:07:40Z</time>
      </trkpt>
      <trkpt lat="43.61798" lon="1.34142">
        <ele>175.8</ele>
        <time>2022-07-13T05:07:42Z</time>
      </trkpt>
      <trkpt lat="43.61802" lon="1.34151">
        <ele>175.4</ele>
        <time>2022-07-13T05:07:43Z</time>
      </trkpt>
      <trkpt lat="43.61806" lon="1.34159">
        <ele>175.2</ele>
        <time>2022-07-13T05:07:44Z</time>
      </trkpt>
      <trkpt lat="43.61811" lon="1.34167">
        <ele>175</ele>
        <time>2022-07-13T05:07:45Z</time>
      </trkpt>
      <trkpt lat="43.61816" lon="1.34174">
        <ele>174.4</ele>
        <time>2022-07-13T05:07:46Z</time>
      </trkpt>
      <trkpt lat="43.61833" lon="1.34196">
        <ele>173.2</ele>
        <time>2022-07-13T05:07:49Z</time>
      </trkpt>
      <trkpt lat="43.61848" lon="1.34215">
        <ele>172.2</ele>
        <time>2022-07-13T05:07:52Z</time>
      </trkpt>
      <trkpt lat="43.61865" lon="1.34235">
        <ele>171.4</ele>
        <time>2022-07-13T05:07:55Z</time>
      </trkpt>
      <trkpt lat="43.6187" lon="1.34241">
        <ele>171.4</ele>
        <time>2022-07-13T05:07:56Z</time>
      </trkpt>
      <trkpt lat="43.61898" lon="1.34273">
        <ele>170.2</ele>
        <time>2022-07-13T05:08:01Z</time>
      </trkpt>
      <trkpt lat="43.61913" lon="1.34294">
        <ele>169.6</ele>
        <time>2022-07-13T05:08:04Z</time>
      </trkpt>
      <trkpt lat="43.61923" lon="1.34306">
        <ele>169.2</ele>
        <time>2022-07-13T05:08:06Z</time>
      </trkpt>
      <trkpt lat="43.6193" lon="1.34313">
        <ele>169</ele>
        <time>2022-07-13T05:08:07Z</time>
      </trkpt>
      <trkpt lat="43.61941" lon="1.3432">
        <ele>168.8</ele>
        <time>2022-07-13T05:08:09Z</time>
      </trkpt>
      <trkpt lat="43.61956" lon="1.34336">
        <ele>168.2</ele>
        <time>2022-07-13T05:08:12Z</time>
      </trkpt>
      <trkpt lat="43.61961" lon="1.34341">
        <ele>168</ele>
        <time>2022-07-13T05:08:13Z</time>
      </trkpt>
      <trkpt lat="43.61966" lon="1.34345">
        <ele>167.8</ele>
        <time>2022-07-13T05:08:14Z</time>
      </trkpt>
      <trkpt lat="43.61971" lon="1.3435">
        <ele>167.6</ele>
        <time>2022-07-13T05:08:15Z</time>
      </trkpt>
      <trkpt lat="43.61981" lon="1.3436">
        <ele>167</ele>
        <time>2022-07-13T05:08:17Z</time>
      </trkpt>
      <trkpt lat="43.6199" lon="1.3437">
        <ele>166.8</ele>
        <time>2022-07-13T05:08:19Z</time>
      </trkpt>
      <trkpt lat="43.62005" lon="1.34385">
        <ele>166.4</ele>
        <time>2022-07-13T05:08:22Z</time>
      </trkpt>
      <trkpt lat="43.62019" lon="1.34405">
        <ele>166.2</ele>
        <time>2022-07-13T05:08:25Z</time>
      </trkpt>
      <trkpt lat="43.62026" lon="1.34418">
        <ele>166</ele>
        <time>2022-07-13T05:08:27Z</time>
      </trkpt>
      <trkpt lat="43.62028" lon="1.34425">
        <ele>166</ele>
        <time>2022-07-13T05:08:28Z</time>
      </trkpt>
      <trkpt lat="43.6203" lon="1.34433">
        <ele>166</ele>
        <time>2022-07-13T05:08:29Z</time>
      </trkpt>
      <trkpt lat="43.62029" lon="1.34448">
        <ele>165.6</ele>
        <time>2022-07-13T05:08:31Z</time>
      </trkpt>
      <trkpt lat="43.62026" lon="1.34454">
        <ele>165.4</ele>
        <time>2022-07-13T05:08:32Z</time>
      </trkpt>
      <trkpt lat="43.62024" lon="1.34463">
        <ele>165.2</ele>
        <time>2022-07-13T05:08:34Z</time>
      </trkpt>
      <trkpt lat="43.62026" lon="1.34466">
        <ele>165</ele>
        <time>2022-07-13T05:08:35Z</time>
      </trkpt>
      <trkpt lat="43.62028" lon="1.34466">
        <ele>165</ele>
        <time>2022-07-13T05:08:36Z</time>
      </trkpt>
      <trkpt lat="43.6203" lon="1.34464">
        <ele>164.8</ele>
        <time>2022-07-13T05:08:37Z</time>
      </trkpt>
      <trkpt lat="43.62045" lon="1.34459">
        <ele>164.6</ele>
        <time>2022-07-13T05:08:41Z</time>
      </trkpt>
      <trkpt lat="43.6206" lon="1.34458">
        <ele>164.4</ele>
        <time>2022-07-13T05:08:44Z</time>
      </trkpt>
      <trkpt lat="43.62065" lon="1.3446">
        <ele>164.4</ele>
        <time>2022-07-13T05:08:45Z</time>
      </trkpt>
      <trkpt lat="43.6207" lon="1.34463">
        <ele>164.4</ele>
        <time>2022-07-13T05:08:46Z</time>
      </trkpt>
      <trkpt lat="43.62089" lon="1.34482">
        <ele>164.4</ele>
        <time>2022-07-13T05:08:50Z</time>
      </trkpt>
      <trkpt lat="43.62116" lon="1.34512">
        <ele>164.2</ele>
        <time>2022-07-13T05:08:56Z</time>
      </trkpt>
      <trkpt lat="43.62121" lon="1.34517">
        <ele>164.2</ele>
        <time>2022-07-13T05:08:57Z</time>
      </trkpt>
      <trkpt lat="43.62156" lon="1.3455">
        <ele>164</ele>
        <time>2022-07-13T05:09:04Z</time>
      </trkpt>
      <trkpt lat="43.62201" lon="1.34584">
        <ele>163.6</ele>
        <time>2022-07-13T05:09:12Z</time>
      </trkpt>
      <trkpt lat="43.62253" lon="1.34616">
        <ele>163.2</ele>
        <time>2022-07-13T05:09:20Z</time>
      </trkpt>
      <trkpt lat="43.6226" lon="1.34617">
        <ele>163.2</ele>
        <time>2022-07-13T05:09:21Z</time>
      </trkpt>
      <trkpt lat="43.62312" lon="1.34641">
        <ele>162.8</ele>
        <time>2022-07-13T05:09:29Z</time>
      </trkpt>
      <trkpt lat="43.62319" lon="1.34644">
        <ele>162.6</ele>
        <time>2022-07-13T05:09:30Z</time>
      </trkpt>
      <trkpt lat="43.62364" lon="1.34664">
        <ele>162.4</ele>
        <time>2022-07-13T05:09:37Z</time>
      </trkpt>
      <trkpt lat="43.62368" lon="1.34668">
        <ele>162.4</ele>
        <time>2022-07-13T05:09:38Z</time>
      </trkpt>
      <trkpt lat="43.62373" lon="1.34674">
        <ele>162.4</ele>
        <time>2022-07-13T05:09:39Z</time>
      </trkpt>
      <trkpt lat="43.6238" lon="1.34687">
        <ele>162.4</ele>
        <time>2022-07-13T05:09:41Z</time>
      </trkpt>
      <trkpt lat="43.6239" lon="1.34696">
        <ele>162.4</ele>
        <time>2022-07-13T05:09:43Z</time>
      </trkpt>
      <trkpt lat="43.62395" lon="1.34696">
        <ele>162.2</ele>
        <time>2022-07-13T05:09:44Z</time>
      </trkpt>
      <trkpt lat="43.62405" lon="1.3469">
        <ele>162.2</ele>
        <time>2022-07-13T05:09:46Z</time>
      </trkpt>
      <trkpt lat="43.62415" lon="1.34685">
        <ele>162.2</ele>
        <time>2022-07-13T05:09:48Z</time>
      </trkpt>
      <trkpt lat="43.62448" lon="1.34685">
        <ele>162.2</ele>
        <time>2022-07-13T05:09:53Z</time>
      </trkpt>
      <trkpt lat="43.62454" lon="1.34686">
        <ele>162</ele>
        <time>2022-07-13T05:09:54Z</time>
      </trkpt>
      <trkpt lat="43.62491" lon="1.34692">
        <ele>162</ele>
        <time>2022-07-13T05:09:59Z</time>
      </trkpt>
      <trkpt lat="43.62491" lon="1.34692">
        <ele>162</ele>
        <time>2022-07-13T05:10:00Z</time>
      </trkpt>
      <trkpt lat="43.62497" lon="1.34696">
        <ele>162</ele>
        <time>2022-07-13T05:10:01Z</time>
      </trkpt>
      <trkpt lat="43.62504" lon="1.34709">
        <ele>162</ele>
        <time>2022-07-13T05:10:03Z</time>
      </trkpt>
      <trkpt lat="43.62509" lon="1.34736">
        <ele>162</ele>
        <time>2022-07-13T05:10:07Z</time>
      </trkpt>
      <trkpt lat="43.62509" lon="1.34743">
        <ele>161.8</ele>
        <time>2022-07-13T05:10:10Z</time>
      </trkpt>
      <trkpt lat="43.62509" lon="1.34743">
        <ele>161.8</ele>
        <time>2022-07-13T05:10:12Z</time>
      </trkpt>
      <trkpt lat="43.6251" lon="1.34751">
        <ele>161</ele>
        <time>2022-07-13T05:10:25Z</time>
      </trkpt>
      <trkpt lat="43.6251" lon="1.3476">
        <ele>160.8</ele>
        <time>2022-07-13T05:10:26Z</time>
      </trkpt>
      <trkpt lat="43.62508" lon="1.34768">
        <ele>160.8</ele>
        <time>2022-07-13T05:10:29Z</time>
      </trkpt>
      <trkpt lat="43.62504" lon="1.34771">
        <ele>160.8</ele>
        <time>2022-07-13T05:10:30Z</time>
      </trkpt>
      <trkpt lat="43.62501" lon="1.34772">
        <ele>160.6</ele>
        <time>2022-07-13T05:10:31Z</time>
      </trkpt>
      <trkpt lat="43.62488" lon="1.34772">
        <ele>160.6</ele>
        <time>2022-07-13T05:10:33Z</time>
      </trkpt>
      <trkpt lat="43.62461" lon="1.34778">
        <ele>160.6</ele>
        <time>2022-07-13T05:10:38Z</time>
      </trkpt>
      <trkpt lat="43.62457" lon="1.34784">
        <ele>160.6</ele>
        <time>2022-07-13T05:10:39Z</time>
      </trkpt>
      <trkpt lat="43.6245" lon="1.348">
        <ele>160.8</ele>
        <time>2022-07-13T05:10:41Z</time>
      </trkpt>
      <trkpt lat="43.62443" lon="1.34818">
        <ele>160.8</ele>
        <time>2022-07-13T05:10:43Z</time>
      </trkpt>
      <trkpt lat="43.62427" lon="1.34845">
        <ele>161.2</ele>
        <time>2022-07-13T05:10:47Z</time>
      </trkpt>
      <trkpt lat="43.62423" lon="1.34852">
        <ele>161.2</ele>
        <time>2022-07-13T05:10:48Z</time>
      </trkpt>
      <trkpt lat="43.62406" lon="1.34852">
        <ele>161.4</ele>
        <time>2022-07-13T05:10:51Z</time>
      </trkpt>
      <trkpt lat="43.624" lon="1.3484">
        <ele>161.4</ele>
        <time>2022-07-13T05:10:52Z</time>
      </trkpt>
      <trkpt lat="43.62385" lon="1.34813">
        <ele>161.6</ele>
        <time>2022-07-13T05:10:55Z</time>
      </trkpt>
      <trkpt lat="43.62352" lon="1.348">
        <ele>161.8</ele>
        <time>2022-07-13T05:10:59Z</time>
      </trkpt>
      <trkpt lat="43.6234" lon="1.34801">
        <ele>161.8</ele>
        <time>2022-07-13T05:11:01Z</time>
      </trkpt>
      <trkpt lat="43.62334" lon="1.34801">
        <ele>162</ele>
        <time>2022-07-13T05:11:02Z</time>
      </trkpt>
      <trkpt lat="43.62306" lon="1.3482">
        <ele>162.2</ele>
        <time>2022-07-13T05:11:07Z</time>
      </trkpt>
      <trkpt lat="43.62262" lon="1.34863">
        <ele>162.2</ele>
        <time>2022-07-13T05:11:16Z</time>
      </trkpt>
      <trkpt lat="43.62258" lon="1.34869">
        <ele>162.2</ele>
        <time>2022-07-13T05:11:17Z</time>
      </trkpt>
      <trkpt lat="43.62255" lon="1.34879">
        <ele>162.2</ele>
        <time>2022-07-13T05:11:19Z</time>
      </trkpt>
      <trkpt lat="43.62255" lon="1.34884">
        <ele>162.2</ele>
        <time>2022-07-13T05:11:20Z</time>
      </trkpt>
      <trkpt lat="43.62255" lon="1.34916">
        <ele>161.8</ele>
        <time>2022-07-13T05:11:25Z</time>
      </trkpt>
      <trkpt lat="43.62256" lon="1.34985">
        <ele>161</ele>
        <time>2022-07-13T05:11:34Z</time>
      </trkpt>
      <trkpt lat="43.62257" lon="1.34992">
        <ele>161</ele>
        <time>2022-07-13T05:11:35Z</time>
      </trkpt>
      <trkpt lat="43.62259" lon="1.3506">
        <ele>160.6</ele>
        <time>2022-07-13T05:11:44Z</time>
      </trkpt>
      <trkpt lat="43.62262" lon="1.3514">
        <ele>160</ele>
        <time>2022-07-13T05:11:55Z</time>
      </trkpt>
      <trkpt lat="43.62263" lon="1.35145">
        <ele>160</ele>
        <time>2022-07-13T05:11:56Z</time>
      </trkpt>
      <trkpt lat="43.62266" lon="1.35152">
        <ele>160</ele>
        <time>2022-07-13T05:11:58Z</time>
      </trkpt>
      <trkpt lat="43.62268" lon="1.35153">
        <ele>159.8</ele>
        <time>2022-07-13T05:11:59Z</time>
      </trkpt>
      <trkpt lat="43.62268" lon="1.35152">
        <ele>159.8</ele>
        <time>2022-07-13T05:12:02Z</time>
      </trkpt>
      <trkpt lat="43.62269" lon="1.35157">
        <ele>152</ele>
        <time>2022-07-13T05:19:47Z</time>
      </trkpt>
      <trkpt lat="43.62266" lon="1.35185">
        <ele>158</ele>
        <time>2022-07-13T05:19:54Z</time>
      </trkpt>
      <trkpt lat="43.62269" lon="1.35215">
        <ele>158.2</ele>
        <time>2022-07-13T05:20:01Z</time>
      </trkpt>
      <trkpt lat="43.62277" lon="1.35228">
        <ele>158.2</ele>
        <time>2022-07-13T05:20:05Z</time>
      </trkpt>
      <trkpt lat="43.62281" lon="1.3523">
        <ele>158.2</ele>
        <time>2022-07-13T05:20:07Z</time>
      </trkpt>
      <trkpt lat="43.6228" lon="1.35232">
        <ele>158.2</ele>
        <time>2022-07-13T05:20:08Z</time>
      </trkpt>
      <trkpt lat="43.62281" lon="1.35234">
        <ele>158.2</ele>
        <time>2022-07-13T05:20:09Z</time>
      </trkpt>
      <trkpt lat="43.62281" lon="1.35234">
        <ele>158.4</ele>
        <time>2022-07-13T05:20:12Z</time>
      </trkpt>
      <trkpt lat="43.62282" lon="1.35236">
        <ele>158.4</ele>
        <time>2022-07-13T05:20:13Z</time>
      </trkpt>
      <trkpt lat="43.62282" lon="1.35241">
        <ele>158.6</ele>
        <time>2022-07-13T05:20:16Z</time>
      </trkpt>
      <trkpt lat="43.62281" lon="1.35242">
        <ele>158.6</ele>
        <time>2022-07-13T05:20:17Z</time>
      </trkpt>
      <trkpt lat="43.62282" lon="1.35246">
        <ele>159</ele>
        <time>2022-07-13T05:20:23Z</time>
      </trkpt>
      <trkpt lat="43.62282" lon="1.35246">
        <ele>159</ele>
        <time>2022-07-13T05:20:24Z</time>
      </trkpt>
      <trkpt lat="43.62427" lon="1.35265">
        <ele>150</ele>
        <time>2022-07-13T13:53:16Z</time>
      </trkpt>
      <trkpt lat="43.62427" lon="1.35265">
        <ele>150</ele>
        <time>2022-07-13T13:53:17Z</time>
      </trkpt>
      <trkpt lat="43.62428" lon="1.35259">
        <ele>152.6</ele>
        <time>2022-07-13T13:53:51Z</time>
      </trkpt>
      <trkpt lat="43.62428" lon="1.35255">
        <ele>153</ele>
        <time>2022-07-13T13:53:53Z</time>
      </trkpt>
      <trkpt lat="43.62429" lon="1.3525">
        <ele>153.2</ele>
        <time>2022-07-13T13:53:55Z</time>
      </trkpt>
      <trkpt lat="43.62425" lon="1.35245">
        <ele>153.4</ele>
        <time>2022-07-13T13:53:57Z</time>
      </trkpt>
      <trkpt lat="43.62418" lon="1.35239">
        <ele>153.6</ele>
        <time>2022-07-13T13:54:00Z</time>
      </trkpt>
      <trkpt lat="43.62414" lon="1.35228">
        <ele>153.8</ele>
        <time>2022-07-13T13:54:03Z</time>
      </trkpt>
      <trkpt lat="43.62413" lon="1.35197">
        <ele>154.2</ele>
        <time>2022-07-13T13:54:09Z</time>
      </trkpt>
      <trkpt lat="43.62415" lon="1.35173">
        <ele>154.2</ele>
        <time>2022-07-13T13:54:14Z</time>
      </trkpt>
      <trkpt lat="43.62414" lon="1.35172">
        <ele>154.2</ele>
        <time>2022-07-13T13:54:15Z</time>
      </trkpt>
      <trkpt lat="43.62414" lon="1.35172">
        <ele>154.4</ele>
        <time>2022-07-13T13:54:16Z</time>
      </trkpt>
      <trkpt lat="43.62413" lon="1.35172">
        <ele>154.4</ele>
        <time>2022-07-13T13:54:17Z</time>
      </trkpt>
      <trkpt lat="43.62263" lon="1.35129">
        <ele>165.8</ele>
        <time>2022-07-13T14:00:52Z</time>
      </trkpt>
      <trkpt lat="43.62263" lon="1.35126">
        <ele>165.6</ele>
        <time>2022-07-13T14:00:53Z</time>
      </trkpt>
      <trkpt lat="43.62261" lon="1.35102">
        <ele>165</ele>
        <time>2022-07-13T14:00:58Z</time>
      </trkpt>
      <trkpt lat="43.6226" lon="1.35091">
        <ele>164.6</ele>
        <time>2022-07-13T14:01:00Z</time>
      </trkpt>
      <trkpt lat="43.62259" lon="1.35069">
        <ele>163.4</ele>
        <time>2022-07-13T14:01:04Z</time>
      </trkpt>
      <trkpt lat="43.62259" lon="1.35063">
        <ele>163.2</ele>
        <time>2022-07-13T14:01:05Z</time>
      </trkpt>
      <trkpt lat="43.62259" lon="1.35026">
        <ele>162.8</ele>
        <time>2022-07-13T14:01:11Z</time>
      </trkpt>
      <trkpt lat="43.62258" lon="1.35018">
        <ele>162.6</ele>
        <time>2022-07-13T14:01:12Z</time>
      </trkpt>
      <trkpt lat="43.62258" lon="1.35012">
        <ele>162.6</ele>
        <time>2022-07-13T14:01:13Z</time>
      </trkpt>
      <trkpt lat="43.62257" lon="1.34953">
        <ele>161.8</ele>
        <time>2022-07-13T14:01:22Z</time>
      </trkpt>
      <trkpt lat="43.62256" lon="1.34938">
        <ele>161.4</ele>
        <time>2022-07-13T14:01:24Z</time>
      </trkpt>
      <trkpt lat="43.62256" lon="1.34898">
        <ele>161.2</ele>
        <time>2022-07-13T14:01:30Z</time>
      </trkpt>
      <trkpt lat="43.62257" lon="1.34874">
        <ele>161.2</ele>
        <time>2022-07-13T14:01:35Z</time>
      </trkpt>
      <trkpt lat="43.62258" lon="1.34872">
        <ele>161.2</ele>
        <time>2022-07-13T14:01:36Z</time>
      </trkpt>
      <trkpt lat="43.62265" lon="1.34866">
        <ele>161.4</ele>
        <time>2022-07-13T14:01:39Z</time>
      </trkpt>
      <trkpt lat="43.62284" lon="1.34847">
        <ele>161.6</ele>
        <time>2022-07-13T14:01:45Z</time>
      </trkpt>
      <trkpt lat="43.62292" lon="1.3484">
        <ele>161.8</ele>
        <time>2022-07-13T14:01:47Z</time>
      </trkpt>
      <trkpt lat="43.62306" lon="1.34827">
        <ele>161.8</ele>
        <time>2022-07-13T14:01:51Z</time>
      </trkpt>
      <trkpt lat="43.62335" lon="1.34799">
        <ele>162</ele>
        <time>2022-07-13T14:01:59Z</time>
      </trkpt>
      <trkpt lat="43.62347" lon="1.34791">
        <ele>162.2</ele>
        <time>2022-07-13T14:02:02Z</time>
      </trkpt>
      <trkpt lat="43.62361" lon="1.34787">
        <ele>162.4</ele>
        <time>2022-07-13T14:02:05Z</time>
      </trkpt>
      <trkpt lat="43.62375" lon="1.34785">
        <ele>162.8</ele>
        <time>2022-07-13T14:02:08Z</time>
      </trkpt>
      <trkpt lat="43.62406" lon="1.34783">
        <ele>163</ele>
        <time>2022-07-13T14:02:14Z</time>
      </trkpt>
      <trkpt lat="43.62411" lon="1.34783">
        <ele>163</ele>
        <time>2022-07-13T14:02:15Z</time>
      </trkpt>
      <trkpt lat="43.62421" lon="1.34782">
        <ele>163</ele>
        <time>2022-07-13T14:02:17Z</time>
      </trkpt>
      <trkpt lat="43.62431" lon="1.34782">
        <ele>162.8</ele>
        <time>2022-07-13T14:02:19Z</time>
      </trkpt>
      <trkpt lat="43.62436" lon="1.34782">
        <ele>162.8</ele>
        <time>2022-07-13T14:02:20Z</time>
      </trkpt>
      <trkpt lat="43.62442" lon="1.34781">
        <ele>162.8</ele>
        <time>2022-07-13T14:02:21Z</time>
      </trkpt>
      <trkpt lat="43.6246" lon="1.34778">
        <ele>162.6</ele>
        <time>2022-07-13T14:02:25Z</time>
      </trkpt>
      <trkpt lat="43.62464" lon="1.34776">
        <ele>162.6</ele>
        <time>2022-07-13T14:02:26Z</time>
      </trkpt>
      <trkpt lat="43.62488" lon="1.34786">
        <ele>162.4</ele>
        <time>2022-07-13T14:02:31Z</time>
      </trkpt>
      <trkpt lat="43.62492" lon="1.34789">
        <ele>162.6</ele>
        <time>2022-07-13T14:02:32Z</time>
      </trkpt>
      <trkpt lat="43.625" lon="1.34796">
        <ele>162.6</ele>
        <time>2022-07-13T14:02:34Z</time>
      </trkpt>
      <trkpt lat="43.62512" lon="1.34798">
        <ele>162.6</ele>
        <time>2022-07-13T14:02:36Z</time>
      </trkpt>
      <trkpt lat="43.62524" lon="1.34788">
        <ele>163</ele>
        <time>2022-07-13T14:02:38Z</time>
      </trkpt>
      <trkpt lat="43.62529" lon="1.34782">
        <ele>162.8</ele>
        <time>2022-07-13T14:02:39Z</time>
      </trkpt>
      <trkpt lat="43.62532" lon="1.34776">
        <ele>162.8</ele>
        <time>2022-07-13T14:02:40Z</time>
      </trkpt>
      <trkpt lat="43.62534" lon="1.34763">
        <ele>163</ele>
        <time>2022-07-13T14:02:42Z</time>
      </trkpt>
      <trkpt lat="43.62534" lon="1.34752">
        <ele>162.8</ele>
        <time>2022-07-13T14:02:44Z</time>
      </trkpt>
      <trkpt lat="43.62536" lon="1.34743">
        <ele>162.8</ele>
        <time>2022-07-13T14:02:47Z</time>
      </trkpt>
      <trkpt lat="43.62536" lon="1.34743">
        <ele>162.8</ele>
        <time>2022-07-13T14:02:49Z</time>
      </trkpt>
      <trkpt lat="43.62534" lon="1.34731">
        <ele>161.8</ele>
        <time>2022-07-13T14:03:00Z</time>
      </trkpt>
      <trkpt lat="43.62534" lon="1.34729">
        <ele>161.6</ele>
        <time>2022-07-13T14:03:01Z</time>
      </trkpt>
      <trkpt lat="43.62536" lon="1.34712">
        <ele>161</ele>
        <time>2022-07-13T14:03:08Z</time>
      </trkpt>
      <trkpt lat="43.6254" lon="1.34703">
        <ele>160.8</ele>
        <time>2022-07-13T14:03:12Z</time>
      </trkpt>
      <trkpt lat="43.6254" lon="1.34702">
        <ele>160.8</ele>
        <time>2022-07-13T14:03:13Z</time>
      </trkpt>
      <trkpt lat="43.6254" lon="1.34702">
        <ele>161.2</ele>
        <time>2022-07-13T14:03:15Z</time>
      </trkpt>
      <trkpt lat="43.6254" lon="1.34699">
        <ele>166</ele>
        <time>2022-07-13T14:03:42Z</time>
      </trkpt>
      <trkpt lat="43.62541" lon="1.34691">
        <ele>166.4</ele>
        <time>2022-07-13T14:03:45Z</time>
      </trkpt>
      <trkpt lat="43.62543" lon="1.34681">
        <ele>166.4</ele>
        <time>2022-07-13T14:03:48Z</time>
      </trkpt>
      <trkpt lat="43.62546" lon="1.34669">
        <ele>166.6</ele>
        <time>2022-07-13T14:03:51Z</time>
      </trkpt>
      <trkpt lat="43.62547" lon="1.34665">
        <ele>166.8</ele>
        <time>2022-07-13T14:03:52Z</time>
      </trkpt>
      <trkpt lat="43.62553" lon="1.34661">
        <ele>166.8</ele>
        <time>2022-07-13T14:03:54Z</time>
      </trkpt>
      <trkpt lat="43.62572" lon="1.34661">
        <ele>167</ele>
        <time>2022-07-13T14:03:58Z</time>
      </trkpt>
      <trkpt lat="43.62578" lon="1.34661">
        <ele>167</ele>
        <time>2022-07-13T14:03:59Z</time>
      </trkpt>
      <trkpt lat="43.62617" lon="1.3466">
        <ele>166.8</ele>
        <time>2022-07-13T14:04:06Z</time>
      </trkpt>
      <trkpt lat="43.62658" lon="1.34658">
        <ele>166</ele>
        <time>2022-07-13T14:04:13Z</time>
      </trkpt>
      <trkpt lat="43.6267" lon="1.34657">
        <ele>166</ele>
        <time>2022-07-13T14:04:15Z</time>
      </trkpt>
      <trkpt lat="43.62726" lon="1.34653">
        <ele>165.8</ele>
        <time>2022-07-13T14:04:24Z</time>
      </trkpt>
      <trkpt lat="43.62763" lon="1.34652">
        <ele>165.2</ele>
        <time>2022-07-13T14:04:30Z</time>
      </trkpt>
      <trkpt lat="43.62793" lon="1.3465">
        <ele>165</ele>
        <time>2022-07-13T14:04:35Z</time>
      </trkpt>
      <trkpt lat="43.62847" lon="1.34647">
        <ele>164.6</ele>
        <time>2022-07-13T14:04:44Z</time>
      </trkpt>
      <trkpt lat="43.62853" lon="1.34647">
        <ele>164.6</ele>
        <time>2022-07-13T14:04:45Z</time>
      </trkpt>
      <trkpt lat="43.62884" lon="1.34645">
        <ele>164.6</ele>
        <time>2022-07-13T14:04:50Z</time>
      </trkpt>
      <trkpt lat="43.62907" lon="1.3464">
        <ele>164.6</ele>
        <time>2022-07-13T14:04:54Z</time>
      </trkpt>
      <trkpt lat="43.62925" lon="1.34634">
        <ele>164.4</ele>
        <time>2022-07-13T14:04:57Z</time>
      </trkpt>
      <trkpt lat="43.62947" lon="1.34621">
        <ele>164.2</ele>
        <time>2022-07-13T14:05:01Z</time>
      </trkpt>
      <trkpt lat="43.62957" lon="1.34612">
        <ele>164.2</ele>
        <time>2022-07-13T14:05:03Z</time>
      </trkpt>
      <trkpt lat="43.62967" lon="1.34608">
        <ele>164</ele>
        <time>2022-07-13T14:05:05Z</time>
      </trkpt>
      <trkpt lat="43.62976" lon="1.34605">
        <ele>163.8</ele>
        <time>2022-07-13T14:05:07Z</time>
      </trkpt>
      <trkpt lat="43.62977" lon="1.34599">
        <ele>163.8</ele>
        <time>2022-07-13T14:05:08Z</time>
      </trkpt>
      <trkpt lat="43.62978" lon="1.34593">
        <ele>163.8</ele>
        <time>2022-07-13T14:05:09Z</time>
      </trkpt>
      <trkpt lat="43.62979" lon="1.34565">
        <ele>164</ele>
        <time>2022-07-13T14:05:13Z</time>
      </trkpt>
      <trkpt lat="43.62981" lon="1.34505">
        <ele>164.4</ele>
        <time>2022-07-13T14:05:21Z</time>
      </trkpt>
      <trkpt lat="43.62982" lon="1.34498">
        <ele>164.4</ele>
        <time>2022-07-13T14:05:22Z</time>
      </trkpt>
      <trkpt lat="43.62988" lon="1.34421">
        <ele>165</ele>
        <time>2022-07-13T14:05:32Z</time>
      </trkpt>
      <trkpt lat="43.62992" lon="1.34408">
        <ele>165</ele>
        <time>2022-07-13T14:05:34Z</time>
      </trkpt>
      <trkpt lat="43.62999" lon="1.34395">
        <ele>165.2</ele>
        <time>2022-07-13T14:05:36Z</time>
      </trkpt>
      <trkpt lat="43.63013" lon="1.34384">
        <ele>165.4</ele>
        <time>2022-07-13T14:05:39Z</time>
      </trkpt>
      <trkpt lat="43.63017" lon="1.34382">
        <ele>165.4</ele>
        <time>2022-07-13T14:05:40Z</time>
      </trkpt>
      <trkpt lat="43.63023" lon="1.34381">
        <ele>165.4</ele>
        <time>2022-07-13T14:05:41Z</time>
      </trkpt>
      <trkpt lat="43.63034" lon="1.34381">
        <ele>165.6</ele>
        <time>2022-07-13T14:05:43Z</time>
      </trkpt>
      <trkpt lat="43.63045" lon="1.34382">
        <ele>165.6</ele>
        <time>2022-07-13T14:05:45Z</time>
      </trkpt>
      <trkpt lat="43.63092" lon="1.34385">
        <ele>165.8</ele>
        <time>2022-07-13T14:05:53Z</time>
      </trkpt>
      <trkpt lat="43.63098" lon="1.34386">
        <ele>165.8</ele>
        <time>2022-07-13T14:05:54Z</time>
      </trkpt>
      <trkpt lat="43.63146" lon="1.3439">
        <ele>166.4</ele>
        <time>2022-07-13T14:06:02Z</time>
      </trkpt>
      <trkpt lat="43.63204" lon="1.34394">
        <ele>167</ele>
        <time>2022-07-13T14:06:12Z</time>
      </trkpt>
      <trkpt lat="43.63252" lon="1.34396">
        <ele>167.4</ele>
        <time>2022-07-13T14:06:20Z</time>
      </trkpt>
      <trkpt lat="43.63311" lon="1.34396">
        <ele>167.4</ele>
        <time>2022-07-13T14:06:30Z</time>
      </trkpt>
      <trkpt lat="43.63361" lon="1.34406">
        <ele>168</ele>
        <time>2022-07-13T14:06:38Z</time>
      </trkpt>
      <trkpt lat="43.63391" lon="1.34419">
        <ele>168.4</ele>
        <time>2022-07-13T14:06:43Z</time>
      </trkpt>
      <trkpt lat="43.6341" lon="1.34427">
        <ele>168.8</ele>
        <time>2022-07-13T14:06:46Z</time>
      </trkpt>
      <trkpt lat="43.63422" lon="1.34433">
        <ele>169</ele>
        <time>2022-07-13T14:06:48Z</time>
      </trkpt>
      <trkpt lat="43.63441" lon="1.34443">
        <ele>169.6</ele>
        <time>2022-07-13T14:06:51Z</time>
      </trkpt>
      <trkpt lat="43.63466" lon="1.34457">
        <ele>170</ele>
        <time>2022-07-13T14:06:55Z</time>
      </trkpt>
      <trkpt lat="43.63474" lon="1.3447">
        <ele>170.2</ele>
        <time>2022-07-13T14:06:57Z</time>
      </trkpt>
      <trkpt lat="43.63476" lon="1.34479">
        <ele>170.4</ele>
        <time>2022-07-13T14:06:58Z</time>
      </trkpt>
      <trkpt lat="43.63475" lon="1.34489">
        <ele>170.4</ele>
        <time>2022-07-13T14:06:59Z</time>
      </trkpt>
      <trkpt lat="43.63474" lon="1.34498">
        <ele>170.6</ele>
        <time>2022-07-13T14:07:00Z</time>
      </trkpt>
      <trkpt lat="43.63472" lon="1.34507">
        <ele>170.8</ele>
        <time>2022-07-13T14:07:01Z</time>
      </trkpt>
      <trkpt lat="43.63462" lon="1.34539">
        <ele>171</ele>
        <time>2022-07-13T14:07:05Z</time>
      </trkpt>
      <trkpt lat="43.63458" lon="1.34548">
        <ele>171</ele>
        <time>2022-07-13T14:07:06Z</time>
      </trkpt>
      <trkpt lat="43.63451" lon="1.34564">
        <ele>170.8</ele>
        <time>2022-07-13T14:07:08Z</time>
      </trkpt>
      <trkpt lat="43.63445" lon="1.34585">
        <ele>170.4</ele>
        <time>2022-07-13T14:07:10Z</time>
      </trkpt>
      <trkpt lat="43.63448" lon="1.34604">
        <ele>170.4</ele>
        <time>2022-07-13T14:07:12Z</time>
      </trkpt>
      <trkpt lat="43.63451" lon="1.34612">
        <ele>170.4</ele>
        <time>2022-07-13T14:07:13Z</time>
      </trkpt>
      <trkpt lat="43.63456" lon="1.34618">
        <ele>170.4</ele>
        <time>2022-07-13T14:07:14Z</time>
      </trkpt>
      <trkpt lat="43.63469" lon="1.34628">
        <ele>170.4</ele>
        <time>2022-07-13T14:07:16Z</time>
      </trkpt>
      <trkpt lat="43.63498" lon="1.34628">
        <ele>170.4</ele>
        <time>2022-07-13T14:07:20Z</time>
      </trkpt>
      <trkpt lat="43.63555" lon="1.34624">
        <ele>169.6</ele>
        <time>2022-07-13T14:07:28Z</time>
      </trkpt>
      <trkpt lat="43.63568" lon="1.34623">
        <ele>169.4</ele>
        <time>2022-07-13T14:07:30Z</time>
      </trkpt>
      <trkpt lat="43.63616" lon="1.34622">
        <ele>168.8</ele>
        <time>2022-07-13T14:07:37Z</time>
      </trkpt>
      <trkpt lat="43.63638" lon="1.34622">
        <ele>168.4</ele>
        <time>2022-07-13T14:07:40Z</time>
      </trkpt>
      <trkpt lat="43.6368" lon="1.34624">
        <ele>167.6</ele>
        <time>2022-07-13T14:07:46Z</time>
      </trkpt>
      <trkpt lat="43.63736" lon="1.34626">
        <ele>167.2</ele>
        <time>2022-07-13T14:07:54Z</time>
      </trkpt>
      <trkpt lat="43.63763" lon="1.34626">
        <ele>166.8</ele>
        <time>2022-07-13T14:07:58Z</time>
      </trkpt>
      <trkpt lat="43.6379" lon="1.34622">
        <ele>166.4</ele>
        <time>2022-07-13T14:08:02Z</time>
      </trkpt>
      <trkpt lat="43.63844" lon="1.34605">
        <ele>166</ele>
        <time>2022-07-13T14:08:10Z</time>
      </trkpt>
      <trkpt lat="43.6385" lon="1.34602">
        <ele>165.8</ele>
        <time>2022-07-13T14:08:11Z</time>
      </trkpt>
      <trkpt lat="43.63875" lon="1.34589">
        <ele>165.6</ele>
        <time>2022-07-13T14:08:15Z</time>
      </trkpt>
      <trkpt lat="43.63904" lon="1.3457">
        <ele>165.8</ele>
        <time>2022-07-13T14:08:20Z</time>
      </trkpt>
      <trkpt lat="43.63947" lon="1.34533">
        <ele>166</ele>
        <time>2022-07-13T14:08:28Z</time>
      </trkpt>
      <trkpt lat="43.63992" lon="1.34482">
        <ele>165.8</ele>
        <time>2022-07-13T14:08:37Z</time>
      </trkpt>
      <trkpt lat="43.64002" lon="1.34471">
        <ele>166</ele>
        <time>2022-07-13T14:08:39Z</time>
      </trkpt>
      <trkpt lat="43.64043" lon="1.34421">
        <ele>166.6</ele>
        <time>2022-07-13T14:08:48Z</time>
      </trkpt>
      <trkpt lat="43.64047" lon="1.34416">
        <ele>166.6</ele>
        <time>2022-07-13T14:08:49Z</time>
      </trkpt>
      <trkpt lat="43.6405" lon="1.34411">
        <ele>166.6</ele>
        <time>2022-07-13T14:08:50Z</time>
      </trkpt>
      <trkpt lat="43.64056" lon="1.34399">
        <ele>166.6</ele>
        <time>2022-07-13T14:08:52Z</time>
      </trkpt>
      <trkpt lat="43.64059" lon="1.34395">
        <ele>166.6</ele>
        <time>2022-07-13T14:08:53Z</time>
      </trkpt>
      <trkpt lat="43.64082" lon="1.34367">
        <ele>166.6</ele>
        <time>2022-07-13T14:08:59Z</time>
      </trkpt>
      <trkpt lat="43.64117" lon="1.34327">
        <ele>167</ele>
        <time>2022-07-13T14:09:07Z</time>
      </trkpt>
      <trkpt lat="43.64126" lon="1.34317">
        <ele>167.2</ele>
        <time>2022-07-13T14:09:09Z</time>
      </trkpt>
      <trkpt lat="43.6417" lon="1.34265">
        <ele>168.2</ele>
        <time>2022-07-13T14:09:19Z</time>
      </trkpt>
      <trkpt lat="43.64183" lon="1.34249">
        <ele>168.4</ele>
        <time>2022-07-13T14:09:22Z</time>
      </trkpt>
      <trkpt lat="43.64224" lon="1.34197">
        <ele>169.2</ele>
        <time>2022-07-13T14:09:31Z</time>
      </trkpt>
      <trkpt lat="43.64243" lon="1.34162">
        <ele>169.4</ele>
        <time>2022-07-13T14:09:36Z</time>
      </trkpt>
      <trkpt lat="43.64261" lon="1.34125">
        <ele>170</ele>
        <time>2022-07-13T14:09:41Z</time>
      </trkpt>
      <trkpt lat="43.64295" lon="1.34056">
        <ele>170.4</ele>
        <time>2022-07-13T14:09:50Z</time>
      </trkpt>
      <trkpt lat="43.64323" lon="1.34002">
        <ele>170.4</ele>
        <time>2022-07-13T14:09:57Z</time>
      </trkpt>
      <trkpt lat="43.64326" lon="1.33995">
        <ele>170.4</ele>
        <time>2022-07-13T14:09:58Z</time>
      </trkpt>
      <trkpt lat="43.6434" lon="1.33965">
        <ele>170.6</ele>
        <time>2022-07-13T14:10:02Z</time>
      </trkpt>
      <trkpt lat="43.64355" lon="1.33936">
        <ele>170.8</ele>
        <time>2022-07-13T14:10:06Z</time>
      </trkpt>
      <trkpt lat="43.64388" lon="1.33876">
        <ele>171</ele>
        <time>2022-07-13T14:10:15Z</time>
      </trkpt>
      <trkpt lat="43.64398" lon="1.33856">
        <ele>171.2</ele>
        <time>2022-07-13T14:10:18Z</time>
      </trkpt>
      <trkpt lat="43.64419" lon="1.33816">
        <ele>171.2</ele>
        <time>2022-07-13T14:10:24Z</time>
      </trkpt>
      <trkpt lat="43.64422" lon="1.33808">
        <ele>171.2</ele>
        <time>2022-07-13T14:10:25Z</time>
      </trkpt>
      <trkpt lat="43.6443" lon="1.33792">
        <ele>171</ele>
        <time>2022-07-13T14:10:28Z</time>
      </trkpt>
      <trkpt lat="43.64432" lon="1.33784">
        <ele>171</ele>
        <time>2022-07-13T14:10:29Z</time>
      </trkpt>
      <trkpt lat="43.64432" lon="1.33771">
        <ele>171</ele>
        <time>2022-07-13T14:10:31Z</time>
      </trkpt>
      <trkpt lat="43.64434" lon="1.33758">
        <ele>170.8</ele>
        <time>2022-07-13T14:10:33Z</time>
      </trkpt>
      <trkpt lat="43.64435" lon="1.33752">
        <ele>170.8</ele>
        <time>2022-07-13T14:10:34Z</time>
      </trkpt>
      <trkpt lat="43.6445" lon="1.33703">
        <ele>172</ele>
        <time>2022-07-13T14:10:41Z</time>
      </trkpt>
      <trkpt lat="43.64454" lon="1.3369">
        <ele>172.2</ele>
        <time>2022-07-13T14:10:43Z</time>
      </trkpt>
      <trkpt lat="43.64462" lon="1.33663">
        <ele>172.4</ele>
        <time>2022-07-13T14:10:47Z</time>
      </trkpt>
      <trkpt lat="43.64464" lon="1.33657">
        <ele>172.6</ele>
        <time>2022-07-13T14:10:48Z</time>
      </trkpt>
      <trkpt lat="43.64472" lon="1.33632">
        <ele>173</ele>
        <time>2022-07-13T14:10:52Z</time>
      </trkpt>
      <trkpt lat="43.64474" lon="1.33625">
        <ele>173.2</ele>
        <time>2022-07-13T14:10:53Z</time>
      </trkpt>
      <trkpt lat="43.64485" lon="1.33585">
        <ele>173.6</ele>
        <time>2022-07-13T14:10:59Z</time>
      </trkpt>
      <trkpt lat="43.64493" lon="1.33556">
        <ele>173.8</ele>
        <time>2022-07-13T14:11:05Z</time>
      </trkpt>
      <trkpt lat="43.64497" lon="1.3354">
        <ele>174.2</ele>
        <time>2022-07-13T14:11:08Z</time>
      </trkpt>
      <trkpt lat="43.64499" lon="1.33529">
        <ele>174.6</ele>
        <time>2022-07-13T14:11:10Z</time>
      </trkpt>
      <trkpt lat="43.64501" lon="1.33515">
        <ele>175.2</ele>
        <time>2022-07-13T14:11:13Z</time>
      </trkpt>
      <trkpt lat="43.64504" lon="1.33503">
        <ele>175.6</ele>
        <time>2022-07-13T14:11:15Z</time>
      </trkpt>
      <trkpt lat="43.6451" lon="1.3349">
        <ele>176.2</ele>
        <time>2022-07-13T14:11:18Z</time>
      </trkpt>
      <trkpt lat="43.64515" lon="1.33475">
        <ele>176.6</ele>
        <time>2022-07-13T14:11:22Z</time>
      </trkpt>
      <trkpt lat="43.64519" lon="1.33452">
        <ele>177.4</ele>
        <time>2022-07-13T14:11:28Z</time>
      </trkpt>
      <trkpt lat="43.6452" lon="1.33449">
        <ele>177.8</ele>
        <time>2022-07-13T14:11:29Z</time>
      </trkpt>
      <trkpt lat="43.64522" lon="1.33442">
        <ele>178.6</ele>
        <time>2022-07-13T14:11:32Z</time>
      </trkpt>
      <trkpt lat="43.64528" lon="1.33423">
        <ele>179.8</ele>
        <time>2022-07-13T14:11:37Z</time>
      </trkpt>
      <trkpt lat="43.64531" lon="1.33406">
        <ele>181.2</ele>
        <time>2022-07-13T14:11:41Z</time>
      </trkpt>
      <trkpt lat="43.64534" lon="1.33398">
        <ele>181.6</ele>
        <time>2022-07-13T14:11:43Z</time>
      </trkpt>
      <trkpt lat="43.64535" lon="1.33394">
        <ele>182</ele>
        <time>2022-07-13T14:11:44Z</time>
      </trkpt>
      <trkpt lat="43.64537" lon="1.33387">
        <ele>182.6</ele>
        <time>2022-07-13T14:11:46Z</time>
      </trkpt>
      <trkpt lat="43.64538" lon="1.33383">
        <ele>182.6</ele>
        <time>2022-07-13T14:11:47Z</time>
      </trkpt>
      <trkpt lat="43.64545" lon="1.33361">
        <ele>183.6</ele>
        <time>2022-07-13T14:11:52Z</time>
      </trkpt>
      <trkpt lat="43.64547" lon="1.33355">
        <ele>184</ele>
        <time>2022-07-13T14:11:53Z</time>
      </trkpt>
      <trkpt lat="43.64553" lon="1.3334">
        <ele>184.8</ele>
        <time>2022-07-13T14:11:56Z</time>
      </trkpt>
      <trkpt lat="43.64562" lon="1.33322">
        <ele>185.8</ele>
        <time>2022-07-13T14:12:00Z</time>
      </trkpt>
      <trkpt lat="43.64567" lon="1.33312">
        <ele>186.2</ele>
        <time>2022-07-13T14:12:02Z</time>
      </trkpt>
      <trkpt lat="43.64578" lon="1.33288">
        <ele>187.2</ele>
        <time>2022-07-13T14:12:07Z</time>
      </trkpt>
      <trkpt lat="43.64581" lon="1.33284">
        <ele>187.2</ele>
        <time>2022-07-13T14:12:08Z</time>
      </trkpt>
      <trkpt lat="43.64599" lon="1.33252">
        <ele>188.4</ele>
        <time>2022-07-13T14:12:15Z</time>
      </trkpt>
      <trkpt lat="43.64602" lon="1.33247">
        <ele>188.4</ele>
        <time>2022-07-13T14:12:16Z</time>
      </trkpt>
      <trkpt lat="43.64616" lon="1.33218">
        <ele>189</ele>
        <time>2022-07-13T14:12:22Z</time>
      </trkpt>
      <trkpt lat="43.64629" lon="1.33191">
        <ele>189.4</ele>
        <time>2022-07-13T14:12:27Z</time>
      </trkpt>
      <trkpt lat="43.64637" lon="1.33174">
        <ele>189.8</ele>
        <time>2022-07-13T14:12:30Z</time>
      </trkpt>
      <trkpt lat="43.64651" lon="1.33142">
        <ele>189.8</ele>
        <time>2022-07-13T14:12:35Z</time>
      </trkpt>
      <trkpt lat="43.64658" lon="1.33129">
        <ele>189.8</ele>
        <time>2022-07-13T14:12:37Z</time>
      </trkpt>
      <trkpt lat="43.64675" lon="1.33093">
        <ele>189.8</ele>
        <time>2022-07-13T14:12:43Z</time>
      </trkpt>
      <trkpt lat="43.64678" lon="1.33088">
        <ele>189.8</ele>
        <time>2022-07-13T14:12:44Z</time>
      </trkpt>
      <trkpt lat="43.6472" lon="1.3305">
        <ele>188.8</ele>
        <time>2022-07-13T14:12:53Z</time>
      </trkpt>
      <trkpt lat="43.6473" lon="1.33043">
        <ele>188.6</ele>
        <time>2022-07-13T14:12:55Z</time>
      </trkpt>
      <trkpt lat="43.64735" lon="1.33038">
        <ele>188.8</ele>
        <time>2022-07-13T14:12:56Z</time>
      </trkpt>
      <trkpt lat="43.6475" lon="1.33025">
        <ele>188.4</ele>
        <time>2022-07-13T14:12:59Z</time>
      </trkpt>
      <trkpt lat="43.64789" lon="1.32986">
        <ele>187.8</ele>
        <time>2022-07-13T14:13:07Z</time>
      </trkpt>
      <trkpt lat="43.64803" lon="1.32966">
        <ele>187.8</ele>
        <time>2022-07-13T14:13:10Z</time>
      </trkpt>
      <trkpt lat="43.64818" lon="1.3294">
        <ele>187.4</ele>
        <time>2022-07-13T14:13:14Z</time>
      </trkpt>
      <trkpt lat="43.64826" lon="1.32923">
        <ele>187.2</ele>
        <time>2022-07-13T14:13:16Z</time>
      </trkpt>
      <trkpt lat="43.64832" lon="1.32905">
        <ele>186.8</ele>
        <time>2022-07-13T14:13:18Z</time>
      </trkpt>
      <trkpt lat="43.64841" lon="1.32856">
        <ele>186.4</ele>
        <time>2022-07-13T14:13:22Z</time>
      </trkpt>
      <trkpt lat="43.64847" lon="1.32811">
        <ele>185.2</ele>
        <time>2022-07-13T14:13:25Z</time>
      </trkpt>
      <trkpt lat="43.64851" lon="1.32782">
        <ele>184.6</ele>
        <time>2022-07-13T14:13:27Z</time>
      </trkpt>
      <trkpt lat="43.64854" lon="1.32769">
        <ele>184.2</ele>
        <time>2022-07-13T14:13:28Z</time>
      </trkpt>
      <trkpt lat="43.64858" lon="1.32734">
        <ele>183</ele>
        <time>2022-07-13T14:13:31Z</time>
      </trkpt>
      <trkpt lat="43.64854" lon="1.32714">
        <ele>181.8</ele>
        <time>2022-07-13T14:13:33Z</time>
      </trkpt>
      <trkpt lat="43.64851" lon="1.32705">
        <ele>181.4</ele>
        <time>2022-07-13T14:13:34Z</time>
      </trkpt>
      <trkpt lat="43.64847" lon="1.32697">
        <ele>180.4</ele>
        <time>2022-07-13T14:13:35Z</time>
      </trkpt>
      <trkpt lat="43.64835" lon="1.32669">
        <ele>179</ele>
        <time>2022-07-13T14:13:38Z</time>
      </trkpt>
      <trkpt lat="43.64817" lon="1.32621">
        <ele>177.8</ele>
        <time>2022-07-13T14:13:42Z</time>
      </trkpt>
      <trkpt lat="43.64807" lon="1.32596">
        <ele>176.6</ele>
        <time>2022-07-13T14:13:44Z</time>
      </trkpt>
      <trkpt lat="43.64803" lon="1.32583">
        <ele>175.8</ele>
        <time>2022-07-13T14:13:45Z</time>
      </trkpt>
      <trkpt lat="43.64799" lon="1.32567">
        <ele>175.6</ele>
        <time>2022-07-13T14:13:46Z</time>
      </trkpt>
      <trkpt lat="43.64796" lon="1.32554">
        <ele>175</ele>
        <time>2022-07-13T14:13:47Z</time>
      </trkpt>
      <trkpt lat="43.64795" lon="1.32544">
        <ele>174</ele>
        <time>2022-07-13T14:13:48Z</time>
      </trkpt>
      <trkpt lat="43.64793" lon="1.32531">
        <ele>173.6</ele>
        <time>2022-07-13T14:13:49Z</time>
      </trkpt>
      <trkpt lat="43.64793" lon="1.3252">
        <ele>173.2</ele>
        <time>2022-07-13T14:13:50Z</time>
      </trkpt>
      <trkpt lat="43.64791" lon="1.32502">
        <ele>172.2</ele>
        <time>2022-07-13T14:13:52Z</time>
      </trkpt>
      <trkpt lat="43.6479" lon="1.32495">
        <ele>171.8</ele>
        <time>2022-07-13T14:13:53Z</time>
      </trkpt>
      <trkpt lat="43.64786" lon="1.32493">
        <ele>171.2</ele>
        <time>2022-07-13T14:13:55Z</time>
      </trkpt>
      <trkpt lat="43.64786" lon="1.32504">
        <ele>170.6</ele>
        <time>2022-07-13T14:13:57Z</time>
      </trkpt>
      <trkpt lat="43.64785" lon="1.32509">
        <ele>170.2</ele>
        <time>2022-07-13T14:13:58Z</time>
      </trkpt>
      <trkpt lat="43.64781" lon="1.32511">
        <ele>170.2</ele>
        <time>2022-07-13T14:13:59Z</time>
      </trkpt>
      <trkpt lat="43.64773" lon="1.32511">
        <ele>169.4</ele>
        <time>2022-07-13T14:14:01Z</time>
      </trkpt>
      <trkpt lat="43.64766" lon="1.3251">
        <ele>168.6</ele>
        <time>2022-07-13T14:14:02Z</time>
      </trkpt>
      <trkpt lat="43.64749" lon="1.32506">
        <ele>167.8</ele>
        <time>2022-07-13T14:14:05Z</time>
      </trkpt>
      <trkpt lat="43.64742" lon="1.32504">
        <ele>167.6</ele>
        <time>2022-07-13T14:14:06Z</time>
      </trkpt>
      <trkpt lat="43.64736" lon="1.32502">
        <ele>167.4</ele>
        <time>2022-07-13T14:14:07Z</time>
      </trkpt>
      <trkpt lat="43.64727" lon="1.32494">
        <ele>166.4</ele>
        <time>2022-07-13T14:14:09Z</time>
      </trkpt>
      <trkpt lat="43.6472" lon="1.32481">
        <ele>166</ele>
        <time>2022-07-13T14:14:11Z</time>
      </trkpt>
      <trkpt lat="43.64714" lon="1.32475">
        <ele>165.8</ele>
        <time>2022-07-13T14:14:12Z</time>
      </trkpt>
      <trkpt lat="43.64708" lon="1.3247">
        <ele>165.2</ele>
        <time>2022-07-13T14:14:13Z</time>
      </trkpt>
      <trkpt lat="43.64685" lon="1.32454">
        <ele>164.2</ele>
        <time>2022-07-13T14:14:17Z</time>
      </trkpt>
      <trkpt lat="43.64679" lon="1.3245">
        <ele>163.8</ele>
        <time>2022-07-13T14:14:18Z</time>
      </trkpt>
      <trkpt lat="43.64669" lon="1.32442">
        <ele>163.2</ele>
        <time>2022-07-13T14:14:20Z</time>
      </trkpt>
      <trkpt lat="43.64648" lon="1.32427">
        <ele>162.8</ele>
        <time>2022-07-13T14:14:24Z</time>
      </trkpt>
      <trkpt lat="43.64606" lon="1.32397">
        <ele>163</ele>
        <time>2022-07-13T14:14:32Z</time>
      </trkpt>
      <trkpt lat="43.64592" lon="1.32383">
        <ele>163</ele>
        <time>2022-07-13T14:14:35Z</time>
      </trkpt>
      <trkpt lat="43.64578" lon="1.32367">
        <ele>163</ele>
        <time>2022-07-13T14:14:38Z</time>
      </trkpt>
      <trkpt lat="43.64574" lon="1.32363">
        <ele>163</ele>
        <time>2022-07-13T14:14:39Z</time>
      </trkpt>
      <trkpt lat="43.64568" lon="1.3236">
        <ele>162.8</ele>
        <time>2022-07-13T14:14:41Z</time>
      </trkpt>
      <trkpt lat="43.64551" lon="1.32354">
        <ele>162.4</ele>
        <time>2022-07-13T14:14:46Z</time>
      </trkpt>
      <trkpt lat="43.64547" lon="1.32352">
        <ele>162.2</ele>
        <time>2022-07-13T14:14:47Z</time>
      </trkpt>
      <trkpt lat="43.6452" lon="1.32337">
        <ele>161.8</ele>
        <time>2022-07-13T14:14:53Z</time>
      </trkpt>
      <trkpt lat="43.64487" lon="1.32319">
        <ele>161.6</ele>
        <time>2022-07-13T14:15:00Z</time>
      </trkpt>
      <trkpt lat="43.64453" lon="1.32295">
        <ele>162.2</ele>
        <time>2022-07-13T14:15:07Z</time>
      </trkpt>
      <trkpt lat="43.64425" lon="1.32263">
        <ele>162.8</ele>
        <time>2022-07-13T14:15:14Z</time>
      </trkpt>
      <trkpt lat="43.64396" lon="1.32217">
        <ele>162.8</ele>
        <time>2022-07-13T14:15:23Z</time>
      </trkpt>
      <trkpt lat="43.64373" lon="1.32178">
        <ele>163.2</ele>
        <time>2022-07-13T14:15:31Z</time>
      </trkpt>
      <trkpt lat="43.64362" lon="1.32158">
        <ele>163.6</ele>
        <time>2022-07-13T14:15:35Z</time>
      </trkpt>
      <trkpt lat="43.64354" lon="1.32142">
        <ele>163.8</ele>
        <time>2022-07-13T14:15:38Z</time>
      </trkpt>
      <trkpt lat="43.64351" lon="1.32137">
        <ele>163.8</ele>
        <time>2022-07-13T14:15:39Z</time>
      </trkpt>
      <trkpt lat="43.64332" lon="1.32097">
        <ele>164.4</ele>
        <time>2022-07-13T14:15:46Z</time>
      </trkpt>
      <trkpt lat="43.64309" lon="1.32042">
        <ele>164.6</ele>
        <time>2022-07-13T14:15:55Z</time>
      </trkpt>
      <trkpt lat="43.64296" lon="1.31998">
        <ele>165</ele>
        <time>2022-07-13T14:16:02Z</time>
      </trkpt>
      <trkpt lat="43.64291" lon="1.31985">
        <ele>165</ele>
        <time>2022-07-13T14:16:04Z</time>
      </trkpt>
      <trkpt lat="43.64285" lon="1.31967">
        <ele>165.4</ele>
        <time>2022-07-13T14:16:07Z</time>
      </trkpt>
      <trkpt lat="43.64282" lon="1.31953">
        <ele>165.2</ele>
        <time>2022-07-13T14:16:09Z</time>
      </trkpt>
      <trkpt lat="43.6428" lon="1.31947">
        <ele>165.2</ele>
        <time>2022-07-13T14:16:10Z</time>
      </trkpt>
      <trkpt lat="43.64273" lon="1.31935">
        <ele>165.4</ele>
        <time>2022-07-13T14:16:12Z</time>
      </trkpt>
      <trkpt lat="43.64269" lon="1.3193">
        <ele>165.4</ele>
        <time>2022-07-13T14:16:13Z</time>
      </trkpt>
      <trkpt lat="43.64264" lon="1.31925">
        <ele>165.4</ele>
        <time>2022-07-13T14:16:14Z</time>
      </trkpt>
      <trkpt lat="43.64243" lon="1.31909">
        <ele>165.2</ele>
        <time>2022-07-13T14:16:17Z</time>
      </trkpt>
      <trkpt lat="43.64197" lon="1.31876">
        <ele>164.6</ele>
        <time>2022-07-13T14:16:24Z</time>
      </trkpt>
      <trkpt lat="43.64185" lon="1.3187">
        <ele>164.6</ele>
        <time>2022-07-13T14:16:26Z</time>
      </trkpt>
      <trkpt lat="43.64177" lon="1.31866">
        <ele>164.8</ele>
        <time>2022-07-13T14:16:28Z</time>
      </trkpt>
      <trkpt lat="43.64152" lon="1.31854">
        <ele>164.6</ele>
        <time>2022-07-13T14:16:33Z</time>
      </trkpt>
      <trkpt lat="43.64116" lon="1.31837">
        <ele>164.6</ele>
        <time>2022-07-13T14:16:39Z</time>
      </trkpt>
      <trkpt lat="43.6408" lon="1.31815">
        <ele>164.6</ele>
        <time>2022-07-13T14:16:45Z</time>
      </trkpt>
      <trkpt lat="43.64037" lon="1.3179">
        <ele>164.6</ele>
        <time>2022-07-13T14:16:52Z</time>
      </trkpt>
      <trkpt lat="43.64022" lon="1.31782">
        <ele>164.8</ele>
        <time>2022-07-13T14:16:54Z</time>
      </trkpt>
      <trkpt lat="43.64004" lon="1.31773">
        <ele>164.8</ele>
        <time>2022-07-13T14:16:57Z</time>
      </trkpt>
      <trkpt lat="43.63968" lon="1.31755">
        <ele>164.8</ele>
        <time>2022-07-13T14:17:03Z</time>
      </trkpt>
      <trkpt lat="43.63936" lon="1.31734">
        <ele>164.8</ele>
        <time>2022-07-13T14:17:09Z</time>
      </trkpt>
      <trkpt lat="43.639" lon="1.31702">
        <ele>165.2</ele>
        <time>2022-07-13T14:17:16Z</time>
      </trkpt>
      <trkpt lat="43.63864" lon="1.31667">
        <ele>165.8</ele>
        <time>2022-07-13T14:17:23Z</time>
      </trkpt>
      <trkpt lat="43.63826" lon="1.3162">
        <ele>166.6</ele>
        <time>2022-07-13T14:17:31Z</time>
      </trkpt>
      <trkpt lat="43.63822" lon="1.31613">
        <ele>166.6</ele>
        <time>2022-07-13T14:17:32Z</time>
      </trkpt>
      <trkpt lat="43.63807" lon="1.31586">
        <ele>167</ele>
        <time>2022-07-13T14:17:36Z</time>
      </trkpt>
      <trkpt lat="43.63804" lon="1.31578">
        <ele>167.2</ele>
        <time>2022-07-13T14:17:37Z</time>
      </trkpt>
      <trkpt lat="43.63793" lon="1.31553">
        <ele>167.4</ele>
        <time>2022-07-13T14:17:41Z</time>
      </trkpt>
      <trkpt lat="43.63785" lon="1.31539">
        <ele>168</ele>
        <time>2022-07-13T14:17:43Z</time>
      </trkpt>
      <trkpt lat="43.63761" lon="1.3149">
        <ele>168.4</ele>
        <time>2022-07-13T14:17:50Z</time>
      </trkpt>
      <trkpt lat="43.63739" lon="1.31444">
        <ele>168</ele>
        <time>2022-07-13T14:17:57Z</time>
      </trkpt>
      <trkpt lat="43.63715" lon="1.31382">
        <ele>167.4</ele>
        <time>2022-07-13T14:18:06Z</time>
      </trkpt>
      <trkpt lat="43.63698" lon="1.31322">
        <ele>167.4</ele>
        <time>2022-07-13T14:18:14Z</time>
      </trkpt>
      <trkpt lat="43.63684" lon="1.31267">
        <ele>167.6</ele>
        <time>2022-07-13T14:18:21Z</time>
      </trkpt>
      <trkpt lat="43.63674" lon="1.31239">
        <ele>168</ele>
        <time>2022-07-13T14:18:25Z</time>
      </trkpt>
      <trkpt lat="43.6367" lon="1.31233">
        <ele>168.2</ele>
        <time>2022-07-13T14:18:26Z</time>
      </trkpt>
      <trkpt lat="43.63665" lon="1.31227">
        <ele>168.2</ele>
        <time>2022-07-13T14:18:27Z</time>
      </trkpt>
      <trkpt lat="43.63651" lon="1.3121">
        <ele>168.2</ele>
        <time>2022-07-13T14:18:31Z</time>
      </trkpt>
      <trkpt lat="43.63635" lon="1.31176">
        <ele>168.6</ele>
        <time>2022-07-13T14:18:36Z</time>
      </trkpt>
      <trkpt lat="43.6363" lon="1.31163">
        <ele>168.6</ele>
        <time>2022-07-13T14:18:38Z</time>
      </trkpt>
      <trkpt lat="43.63618" lon="1.31133">
        <ele>168.8</ele>
        <time>2022-07-13T14:18:42Z</time>
      </trkpt>
      <trkpt lat="43.63611" lon="1.31119">
        <ele>168.8</ele>
        <time>2022-07-13T14:18:44Z</time>
      </trkpt>
      <trkpt lat="43.63605" lon="1.31109">
        <ele>169</ele>
        <time>2022-07-13T14:18:46Z</time>
      </trkpt>
      <trkpt lat="43.63588" lon="1.31084">
        <ele>169.4</ele>
        <time>2022-07-13T14:18:50Z</time>
      </trkpt>
      <trkpt lat="43.63584" lon="1.31078">
        <ele>169.4</ele>
        <time>2022-07-13T14:18:51Z</time>
      </trkpt>
      <trkpt lat="43.63576" lon="1.31064">
        <ele>169.6</ele>
        <time>2022-07-13T14:18:53Z</time>
      </trkpt>
      <trkpt lat="43.63562" lon="1.31034">
        <ele>170</ele>
        <time>2022-07-13T14:18:57Z</time>
      </trkpt>
      <trkpt lat="43.6354" lon="1.31">
        <ele>170.2</ele>
        <time>2022-07-13T14:19:02Z</time>
      </trkpt>
      <trkpt lat="43.6352" lon="1.30974">
        <ele>170.2</ele>
        <time>2022-07-13T14:19:06Z</time>
      </trkpt>
      <trkpt lat="43.63514" lon="1.30969">
        <ele>170.2</ele>
        <time>2022-07-13T14:19:07Z</time>
      </trkpt>
      <trkpt lat="43.635" lon="1.3096">
        <ele>170.2</ele>
        <time>2022-07-13T14:19:09Z</time>
      </trkpt>
      <trkpt lat="43.63471" lon="1.30946">
        <ele>170</ele>
        <time>2022-07-13T14:19:14Z</time>
      </trkpt>
      <trkpt lat="43.63431" lon="1.30925">
        <ele>169.4</ele>
        <time>2022-07-13T14:19:21Z</time>
      </trkpt>
      <trkpt lat="43.63404" lon="1.30899">
        <ele>168.6</ele>
        <time>2022-07-13T14:19:26Z</time>
      </trkpt>
      <trkpt lat="43.63399" lon="1.30893">
        <ele>168.4</ele>
        <time>2022-07-13T14:19:27Z</time>
      </trkpt>
      <trkpt lat="43.63372" lon="1.30854">
        <ele>167.2</ele>
        <time>2022-07-13T14:19:33Z</time>
      </trkpt>
      <trkpt lat="43.63367" lon="1.30847">
        <ele>167.2</ele>
        <time>2022-07-13T14:19:34Z</time>
      </trkpt>
      <trkpt lat="43.63326" lon="1.30788">
        <ele>166.4</ele>
        <time>2022-07-13T14:19:43Z</time>
      </trkpt>
      <trkpt lat="43.63304" lon="1.30757">
        <ele>165.4</ele>
        <time>2022-07-13T14:19:48Z</time>
      </trkpt>
      <trkpt lat="43.63292" lon="1.30741">
        <ele>165.4</ele>
        <time>2022-07-13T14:19:51Z</time>
      </trkpt>
      <trkpt lat="43.63288" lon="1.30729">
        <ele>165.4</ele>
        <time>2022-07-13T14:19:53Z</time>
      </trkpt>
      <trkpt lat="43.63287" lon="1.30705">
        <ele>165.4</ele>
        <time>2022-07-13T14:19:57Z</time>
      </trkpt>
      <trkpt lat="43.63285" lon="1.30688">
        <ele>165.8</ele>
        <time>2022-07-13T14:20:00Z</time>
      </trkpt>
      <trkpt lat="43.63284" lon="1.30681">
        <ele>166</ele>
        <time>2022-07-13T14:20:01Z</time>
      </trkpt>
      <trkpt lat="43.63279" lon="1.3064">
        <ele>166.8</ele>
        <time>2022-07-13T14:20:07Z</time>
      </trkpt>
      <trkpt lat="43.63283" lon="1.30623">
        <ele>167.4</ele>
        <time>2022-07-13T14:20:10Z</time>
      </trkpt>
      <trkpt lat="43.63283" lon="1.30616">
        <ele>167.6</ele>
        <time>2022-07-13T14:20:11Z</time>
      </trkpt>
      <trkpt lat="43.63291" lon="1.30582">
        <ele>168.2</ele>
        <time>2022-07-13T14:20:15Z</time>
      </trkpt>
      <trkpt lat="43.63295" lon="1.3057">
        <ele>168.8</ele>
        <time>2022-07-13T14:20:17Z</time>
      </trkpt>
      <trkpt lat="43.63304" lon="1.30539">
        <ele>169.8</ele>
        <time>2022-07-13T14:20:21Z</time>
      </trkpt>
      <trkpt lat="43.63307" lon="1.30532">
        <ele>170</ele>
        <time>2022-07-13T14:20:22Z</time>
      </trkpt>
      <trkpt lat="43.63313" lon="1.30504">
        <ele>171.2</ele>
        <time>2022-07-13T14:20:25Z</time>
      </trkpt>
      <trkpt lat="43.63315" lon="1.30493">
        <ele>171.4</ele>
        <time>2022-07-13T14:20:26Z</time>
      </trkpt>
      <trkpt lat="43.63317" lon="1.30481">
        <ele>171.8</ele>
        <time>2022-07-13T14:20:27Z</time>
      </trkpt>
      <trkpt lat="43.63322" lon="1.30452">
        <ele>172.2</ele>
        <time>2022-07-13T14:20:30Z</time>
      </trkpt>
      <trkpt lat="43.63323" lon="1.30443">
        <ele>172.2</ele>
        <time>2022-07-13T14:20:31Z</time>
      </trkpt>
      <trkpt lat="43.63324" lon="1.30416">
        <ele>172.6</ele>
        <time>2022-07-13T14:20:34Z</time>
      </trkpt>
      <trkpt lat="43.63324" lon="1.30407">
        <ele>172.8</ele>
        <time>2022-07-13T14:20:35Z</time>
      </trkpt>
      <trkpt lat="43.63325" lon="1.30369">
        <ele>172.8</ele>
        <time>2022-07-13T14:20:39Z</time>
      </trkpt>
      <trkpt lat="43.63322" lon="1.30352">
        <ele>173</ele>
        <time>2022-07-13T14:20:41Z</time>
      </trkpt>
      <trkpt lat="43.63319" lon="1.30335">
        <ele>173.2</ele>
        <time>2022-07-13T14:20:43Z</time>
      </trkpt>
      <trkpt lat="43.63318" lon="1.30329">
        <ele>173.2</ele>
        <time>2022-07-13T14:20:44Z</time>
      </trkpt>
      <trkpt lat="43.63317" lon="1.30309">
        <ele>173.8</ele>
        <time>2022-07-13T14:20:47Z</time>
      </trkpt>
      <trkpt lat="43.63305" lon="1.30281">
        <ele>174</ele>
        <time>2022-07-13T14:20:51Z</time>
      </trkpt>
      <trkpt lat="43.63296" lon="1.30269">
        <ele>174.2</ele>
        <time>2022-07-13T14:20:53Z</time>
      </trkpt>
      <trkpt lat="43.63283" lon="1.30246">
        <ele>174.2</ele>
        <time>2022-07-13T14:20:56Z</time>
      </trkpt>
      <trkpt lat="43.63278" lon="1.3024">
        <ele>174.2</ele>
        <time>2022-07-13T14:20:57Z</time>
      </trkpt>
      <trkpt lat="43.63264" lon="1.30222">
        <ele>174.4</ele>
        <time>2022-07-13T14:21:00Z</time>
      </trkpt>
      <trkpt lat="43.6325" lon="1.30212">
        <ele>174.8</ele>
        <time>2022-07-13T14:21:02Z</time>
      </trkpt>
      <trkpt lat="43.63212" lon="1.30193">
        <ele>175</ele>
        <time>2022-07-13T14:21:08Z</time>
      </trkpt>
      <trkpt lat="43.63206" lon="1.3019">
        <ele>175.2</ele>
        <time>2022-07-13T14:21:09Z</time>
      </trkpt>
      <trkpt lat="43.63184" lon="1.30172">
        <ele>175.4</ele>
        <time>2022-07-13T14:21:13Z</time>
      </trkpt>
      <trkpt lat="43.63174" lon="1.30161">
        <ele>175.6</ele>
        <time>2022-07-13T14:21:15Z</time>
      </trkpt>
      <trkpt lat="43.63158" lon="1.30144">
        <ele>175.8</ele>
        <time>2022-07-13T14:21:19Z</time>
      </trkpt>
      <trkpt lat="43.63142" lon="1.30129">
        <ele>176</ele>
        <time>2022-07-13T14:21:22Z</time>
      </trkpt>
      <trkpt lat="43.63118" lon="1.3011">
        <ele>176</ele>
        <time>2022-07-13T14:21:26Z</time>
      </trkpt>
      <trkpt lat="43.63082" lon="1.30078">
        <ele>175.6</ele>
        <time>2022-07-13T14:21:33Z</time>
      </trkpt>
      <trkpt lat="43.63054" lon="1.30051">
        <ele>174.4</ele>
        <time>2022-07-13T14:21:38Z</time>
      </trkpt>
      <trkpt lat="43.63042" lon="1.30042">
        <ele>174</ele>
        <time>2022-07-13T14:21:40Z</time>
      </trkpt>
      <trkpt lat="43.63035" lon="1.30039">
        <ele>173.6</ele>
        <time>2022-07-13T14:21:41Z</time>
      </trkpt>
      <trkpt lat="43.63029" lon="1.30038">
        <ele>173.2</ele>
        <time>2022-07-13T14:21:42Z</time>
      </trkpt>
      <trkpt lat="43.63015" lon="1.30038">
        <ele>172.4</ele>
        <time>2022-07-13T14:21:44Z</time>
      </trkpt>
      <trkpt lat="43.63008" lon="1.30039">
        <ele>172.2</ele>
        <time>2022-07-13T14:21:45Z</time>
      </trkpt>
      <trkpt lat="43.62988" lon="1.30045">
        <ele>171.6</ele>
        <time>2022-07-13T14:21:48Z</time>
      </trkpt>
      <trkpt lat="43.62981" lon="1.30047">
        <ele>171.2</ele>
        <time>2022-07-13T14:21:49Z</time>
      </trkpt>
      <trkpt lat="43.62947" lon="1.30057">
        <ele>170.2</ele>
        <time>2022-07-13T14:21:54Z</time>
      </trkpt>
      <trkpt lat="43.62933" lon="1.30061">
        <ele>169.8</ele>
        <time>2022-07-13T14:21:56Z</time>
      </trkpt>
      <trkpt lat="43.62925" lon="1.30063">
        <ele>169.8</ele>
        <time>2022-07-13T14:21:57Z</time>
      </trkpt>
      <trkpt lat="43.62912" lon="1.30065">
        <ele>169</ele>
        <time>2022-07-13T14:21:59Z</time>
      </trkpt>
      <trkpt lat="43.62906" lon="1.30064">
        <ele>169</ele>
        <time>2022-07-13T14:22:00Z</time>
      </trkpt>
      <trkpt lat="43.629" lon="1.30062">
        <ele>168.8</ele>
        <time>2022-07-13T14:22:01Z</time>
      </trkpt>
      <trkpt lat="43.62868" lon="1.30046">
        <ele>167.4</ele>
        <time>2022-07-13T14:22:06Z</time>
      </trkpt>
      <trkpt lat="43.62824" lon="1.30025">
        <ele>166.6</ele>
        <time>2022-07-13T14:22:13Z</time>
      </trkpt>
      <trkpt lat="43.62814" lon="1.30019">
        <ele>166.6</ele>
        <time>2022-07-13T14:22:15Z</time>
      </trkpt>
      <trkpt lat="43.62788" lon="1.2999">
        <ele>166.2</ele>
        <time>2022-07-13T14:22:20Z</time>
      </trkpt>
      <trkpt lat="43.62755" lon="1.29941">
        <ele>166</ele>
        <time>2022-07-13T14:22:28Z</time>
      </trkpt>
      <trkpt lat="43.62717" lon="1.29886">
        <ele>166</ele>
        <time>2022-07-13T14:22:37Z</time>
      </trkpt>
      <trkpt lat="43.62713" lon="1.2988">
        <ele>166</ele>
        <time>2022-07-13T14:22:38Z</time>
      </trkpt>
      <trkpt lat="43.62677" lon="1.29832">
        <ele>167</ele>
        <time>2022-07-13T14:22:46Z</time>
      </trkpt>
      <trkpt lat="43.62642" lon="1.298">
        <ele>167.6</ele>
        <time>2022-07-13T14:22:53Z</time>
      </trkpt>
      <trkpt lat="43.6262" lon="1.29781">
        <ele>167.8</ele>
        <time>2022-07-13T14:22:57Z</time>
      </trkpt>
      <trkpt lat="43.626" lon="1.29761">
        <ele>168</ele>
        <time>2022-07-13T14:23:01Z</time>
      </trkpt>
      <trkpt lat="43.62557" lon="1.29718">
        <ele>169</ele>
        <time>2022-07-13T14:23:10Z</time>
      </trkpt>
      <trkpt lat="43.62517" lon="1.29674">
        <ele>170</ele>
        <time>2022-07-13T14:23:18Z</time>
      </trkpt>
      <trkpt lat="43.62504" lon="1.29659">
        <ele>170.6</ele>
        <time>2022-07-13T14:23:21Z</time>
      </trkpt>
      <trkpt lat="43.62463" lon="1.29607">
        <ele>170.6</ele>
        <time>2022-07-13T14:23:30Z</time>
      </trkpt>
      <trkpt lat="43.62459" lon="1.296">
        <ele>170.6</ele>
        <time>2022-07-13T14:23:31Z</time>
      </trkpt>
      <trkpt lat="43.62428" lon="1.29541">
        <ele>171.2</ele>
        <time>2022-07-13T14:23:40Z</time>
      </trkpt>
      <trkpt lat="43.62422" lon="1.29529">
        <ele>171.2</ele>
        <time>2022-07-13T14:23:42Z</time>
      </trkpt>
      <trkpt lat="43.62406" lon="1.2949">
        <ele>171.8</ele>
        <time>2022-07-13T14:23:48Z</time>
      </trkpt>
      <trkpt lat="43.62395" lon="1.29455">
        <ele>172.4</ele>
        <time>2022-07-13T14:23:53Z</time>
      </trkpt>
      <trkpt lat="43.62393" lon="1.29444">
        <ele>172.6</ele>
        <time>2022-07-13T14:23:55Z</time>
      </trkpt>
      <trkpt lat="43.62392" lon="1.29437">
        <ele>172.8</ele>
        <time>2022-07-13T14:23:56Z</time>
      </trkpt>
      <trkpt lat="43.62387" lon="1.29406">
        <ele>173.4</ele>
        <time>2022-07-13T14:24:01Z</time>
      </trkpt>
      <trkpt lat="43.62384" lon="1.29388">
        <ele>173.8</ele>
        <time>2022-07-13T14:24:03Z</time>
      </trkpt>
      <trkpt lat="43.62381" lon="1.29373">
        <ele>174.2</ele>
        <time>2022-07-13T14:24:05Z</time>
      </trkpt>
      <trkpt lat="43.62379" lon="1.29365">
        <ele>174.4</ele>
        <time>2022-07-13T14:24:06Z</time>
      </trkpt>
      <trkpt lat="43.62378" lon="1.29356">
        <ele>174.6</ele>
        <time>2022-07-13T14:24:07Z</time>
      </trkpt>
      <trkpt lat="43.62377" lon="1.29346">
        <ele>174.6</ele>
        <time>2022-07-13T14:24:08Z</time>
      </trkpt>
      <trkpt lat="43.62376" lon="1.29337">
        <ele>175</ele>
        <time>2022-07-13T14:24:09Z</time>
      </trkpt>
      <trkpt lat="43.62373" lon="1.29318">
        <ele>175</ele>
        <time>2022-07-13T14:24:11Z</time>
      </trkpt>
      <trkpt lat="43.62372" lon="1.29287">
        <ele>175</ele>
        <time>2022-07-13T14:24:14Z</time>
      </trkpt>
      <trkpt lat="43.62366" lon="1.29246">
        <ele>174.8</ele>
        <time>2022-07-13T14:24:18Z</time>
      </trkpt>
      <trkpt lat="43.6236" lon="1.29227">
        <ele>174.8</ele>
        <time>2022-07-13T14:24:20Z</time>
      </trkpt>
      <trkpt lat="43.62332" lon="1.29153">
        <ele>173.8</ele>
        <time>2022-07-13T14:24:28Z</time>
      </trkpt>
      <trkpt lat="43.62328" lon="1.29144">
        <ele>173.6</ele>
        <time>2022-07-13T14:24:29Z</time>
      </trkpt>
      <trkpt lat="43.6231" lon="1.29112">
        <ele>173.2</ele>
        <time>2022-07-13T14:24:33Z</time>
      </trkpt>
      <trkpt lat="43.623" lon="1.29095">
        <ele>173</ele>
        <time>2022-07-13T14:24:35Z</time>
      </trkpt>
      <trkpt lat="43.6228" lon="1.29059">
        <ele>172.8</ele>
        <time>2022-07-13T14:24:40Z</time>
      </trkpt>
      <trkpt lat="43.62277" lon="1.29052">
        <ele>172.6</ele>
        <time>2022-07-13T14:24:41Z</time>
      </trkpt>
      <trkpt lat="43.62261" lon="1.2902">
        <ele>172.8</ele>
        <time>2022-07-13T14:24:46Z</time>
      </trkpt>
      <trkpt lat="43.62246" lon="1.2898">
        <ele>172.8</ele>
        <time>2022-07-13T14:24:51Z</time>
      </trkpt>
      <trkpt lat="43.62247" lon="1.28945">
        <ele>172.8</ele>
        <time>2022-07-13T14:24:55Z</time>
      </trkpt>
      <trkpt lat="43.62249" lon="1.28877">
        <ele>173.4</ele>
        <time>2022-07-13T14:25:03Z</time>
      </trkpt>
      <trkpt lat="43.62251" lon="1.28837">
        <ele>173.8</ele>
        <time>2022-07-13T14:25:08Z</time>
      </trkpt>
      <trkpt lat="43.62254" lon="1.28789">
        <ele>174</ele>
        <time>2022-07-13T14:25:14Z</time>
      </trkpt>
      <trkpt lat="43.62257" lon="1.28738">
        <ele>174.6</ele>
        <time>2022-07-13T14:25:21Z</time>
      </trkpt>
      <trkpt lat="43.62258" lon="1.28731">
        <ele>174.8</ele>
        <time>2022-07-13T14:25:22Z</time>
      </trkpt>
      <trkpt lat="43.62258" lon="1.28719">
        <ele>175.2</ele>
        <time>2022-07-13T14:25:24Z</time>
      </trkpt>
      <trkpt lat="43.62257" lon="1.28702">
        <ele>175.2</ele>
        <time>2022-07-13T14:25:26Z</time>
      </trkpt>
      <trkpt lat="43.62257" lon="1.28677">
        <ele>175.2</ele>
        <time>2022-07-13T14:25:29Z</time>
      </trkpt>
      <trkpt lat="43.62259" lon="1.28665">
        <ele>175.2</ele>
        <time>2022-07-13T14:25:31Z</time>
      </trkpt>
      <trkpt lat="43.62267" lon="1.28636">
        <ele>175.4</ele>
        <time>2022-07-13T14:25:37Z</time>
      </trkpt>
      <trkpt lat="43.62267" lon="1.28612">
        <ele>175.4</ele>
        <time>2022-07-13T14:25:41Z</time>
      </trkpt>
      <trkpt lat="43.62263" lon="1.286">
        <ele>175.4</ele>
        <time>2022-07-13T14:25:43Z</time>
      </trkpt>
      <trkpt lat="43.62247" lon="1.28575">
        <ele>175.2</ele>
        <time>2022-07-13T14:25:48Z</time>
      </trkpt>
      <trkpt lat="43.6223" lon="1.28539">
        <ele>175</ele>
        <time>2022-07-13T14:25:54Z</time>
      </trkpt>
      <trkpt lat="43.62217" lon="1.28499">
        <ele>175</ele>
        <time>2022-07-13T14:25:59Z</time>
      </trkpt>
      <trkpt lat="43.62212" lon="1.28448">
        <ele>174.8</ele>
        <time>2022-07-13T14:26:05Z</time>
      </trkpt>
      <trkpt lat="43.62212" lon="1.28388">
        <ele>174.2</ele>
        <time>2022-07-13T14:26:12Z</time>
      </trkpt>
      <trkpt lat="43.62212" lon="1.28363">
        <ele>174</ele>
        <time>2022-07-13T14:26:15Z</time>
      </trkpt>
      <trkpt lat="43.62214" lon="1.28318">
        <ele>173</ele>
        <time>2022-07-13T14:26:20Z</time>
      </trkpt>
      <trkpt lat="43.62216" lon="1.28278">
        <ele>172.8</ele>
        <time>2022-07-13T14:26:25Z</time>
      </trkpt>
      <trkpt lat="43.6222" lon="1.2822">
        <ele>172.6</ele>
        <time>2022-07-13T14:26:32Z</time>
      </trkpt>
      <trkpt lat="43.62228" lon="1.28149">
        <ele>172.4</ele>
        <time>2022-07-13T14:26:41Z</time>
      </trkpt>
      <trkpt lat="43.62228" lon="1.28141">
        <ele>172.4</ele>
        <time>2022-07-13T14:26:42Z</time>
      </trkpt>
      <trkpt lat="43.62227" lon="1.28126">
        <ele>172.4</ele>
        <time>2022-07-13T14:26:44Z</time>
      </trkpt>
      <trkpt lat="43.62226" lon="1.28119">
        <ele>172.4</ele>
        <time>2022-07-13T14:26:45Z</time>
      </trkpt>
      <trkpt lat="43.62221" lon="1.28106">
        <ele>172.6</ele>
        <time>2022-07-13T14:26:47Z</time>
      </trkpt>
      <trkpt lat="43.62214" lon="1.28097">
        <ele>172.6</ele>
        <time>2022-07-13T14:26:49Z</time>
      </trkpt>
      <trkpt lat="43.62203" lon="1.28094">
        <ele>173</ele>
        <time>2022-07-13T14:26:52Z</time>
      </trkpt>
      <trkpt lat="43.62189" lon="1.28087">
        <ele>173.6</ele>
        <time>2022-07-13T14:26:56Z</time>
      </trkpt>
      <trkpt lat="43.62184" lon="1.28085">
        <ele>173.8</ele>
        <time>2022-07-13T14:26:57Z</time>
      </trkpt>
      <trkpt lat="43.62177" lon="1.28084">
        <ele>173.8</ele>
        <time>2022-07-13T14:26:58Z</time>
      </trkpt>
      <trkpt lat="43.62158" lon="1.28085">
        <ele>174</ele>
        <time>2022-07-13T14:27:01Z</time>
      </trkpt>
      <trkpt lat="43.62115" lon="1.28089">
        <ele>173.8</ele>
        <time>2022-07-13T14:27:08Z</time>
      </trkpt>
      <trkpt lat="43.62109" lon="1.28091">
        <ele>173.8</ele>
        <time>2022-07-13T14:27:09Z</time>
      </trkpt>
      <trkpt lat="43.621" lon="1.28096">
        <ele>173.6</ele>
        <time>2022-07-13T14:27:11Z</time>
      </trkpt>
      <trkpt lat="43.62095" lon="1.28099">
        <ele>173.6</ele>
        <time>2022-07-13T14:27:12Z</time>
      </trkpt>
      <trkpt lat="43.6209" lon="1.28101">
        <ele>173.4</ele>
        <time>2022-07-13T14:27:13Z</time>
      </trkpt>
      <trkpt lat="43.62074" lon="1.28104">
        <ele>173.4</ele>
        <time>2022-07-13T14:27:16Z</time>
      </trkpt>
      <trkpt lat="43.62037" lon="1.28107">
        <ele>173.8</ele>
        <time>2022-07-13T14:27:24Z</time>
      </trkpt>
      <trkpt lat="43.62034" lon="1.28106">
        <ele>173.8</ele>
        <time>2022-07-13T14:27:25Z</time>
      </trkpt>
      <trkpt lat="43.6203" lon="1.281">
        <ele>174.2</ele>
        <time>2022-07-13T14:27:27Z</time>
      </trkpt>
      <trkpt lat="43.62025" lon="1.28064">
        <ele>175</ele>
        <time>2022-07-13T14:27:33Z</time>
      </trkpt>
      <trkpt lat="43.62018" lon="1.28009">
        <ele>175.4</ele>
        <time>2022-07-13T14:27:41Z</time>
      </trkpt>
      <trkpt lat="43.62017" lon="1.28002">
        <ele>175.4</ele>
        <time>2022-07-13T14:27:42Z</time>
      </trkpt>
      <trkpt lat="43.62011" lon="1.2795">
        <ele>176</ele>
        <time>2022-07-13T14:27:49Z</time>
      </trkpt>
      <trkpt lat="43.62002" lon="1.27877">
        <ele>176.6</ele>
        <time>2022-07-13T14:27:58Z</time>
      </trkpt>
      <trkpt lat="43.62001" lon="1.27869">
        <ele>176.6</ele>
        <time>2022-07-13T14:27:59Z</time>
      </trkpt>
      <trkpt lat="43.61996" lon="1.27813">
        <ele>176.8</ele>
        <time>2022-07-13T14:28:06Z</time>
      </trkpt>
      <trkpt lat="43.61992" lon="1.27759">
        <ele>176.8</ele>
        <time>2022-07-13T14:28:12Z</time>
      </trkpt>
      <trkpt lat="43.61997" lon="1.27714">
        <ele>176.6</ele>
        <time>2022-07-13T14:28:17Z</time>
      </trkpt>
      <trkpt lat="43.61997" lon="1.27696">
        <ele>176.6</ele>
        <time>2022-07-13T14:28:19Z</time>
      </trkpt>
      <trkpt lat="43.61996" lon="1.2768">
        <ele>176.6</ele>
        <time>2022-07-13T14:28:21Z</time>
      </trkpt>
      <trkpt lat="43.61993" lon="1.27673">
        <ele>176.6</ele>
        <time>2022-07-13T14:28:22Z</time>
      </trkpt>
      <trkpt lat="43.6199" lon="1.27667">
        <ele>176.6</ele>
        <time>2022-07-13T14:28:23Z</time>
      </trkpt>
      <trkpt lat="43.61982" lon="1.27658">
        <ele>176.6</ele>
        <time>2022-07-13T14:28:25Z</time>
      </trkpt>
      <trkpt lat="43.61979" lon="1.27653">
        <ele>176.6</ele>
        <time>2022-07-13T14:28:26Z</time>
      </trkpt>
      <trkpt lat="43.61977" lon="1.27647">
        <ele>176.6</ele>
        <time>2022-07-13T14:28:27Z</time>
      </trkpt>
      <trkpt lat="43.61974" lon="1.27625">
        <ele>176.8</ele>
        <time>2022-07-13T14:28:30Z</time>
      </trkpt>
      <trkpt lat="43.61974" lon="1.27618">
        <ele>176.8</ele>
        <time>2022-07-13T14:28:31Z</time>
      </trkpt>
      <trkpt lat="43.61974" lon="1.27585">
        <ele>177</ele>
        <time>2022-07-13T14:28:35Z</time>
      </trkpt>
      <trkpt lat="43.61974" lon="1.27576">
        <ele>177.2</ele>
        <time>2022-07-13T14:28:36Z</time>
      </trkpt>
      <trkpt lat="43.61974" lon="1.27559">
        <ele>177.2</ele>
        <time>2022-07-13T14:28:38Z</time>
      </trkpt>
      <trkpt lat="43.61974" lon="1.27522">
        <ele>177.6</ele>
        <time>2022-07-13T14:28:42Z</time>
      </trkpt>
      <trkpt lat="43.61971" lon="1.27483">
        <ele>178.2</ele>
        <time>2022-07-13T14:28:46Z</time>
      </trkpt>
      <trkpt lat="43.61969" lon="1.27445">
        <ele>178.6</ele>
        <time>2022-07-13T14:28:50Z</time>
      </trkpt>
      <trkpt lat="43.61969" lon="1.27418">
        <ele>178.8</ele>
        <time>2022-07-13T14:28:53Z</time>
      </trkpt>
      <trkpt lat="43.61959" lon="1.27353">
        <ele>179</ele>
        <time>2022-07-13T14:29:00Z</time>
      </trkpt>
      <trkpt lat="43.61952" lon="1.27288">
        <ele>179.4</ele>
        <time>2022-07-13T14:29:07Z</time>
      </trkpt>
      <trkpt lat="43.61945" lon="1.27205">
        <ele>179.4</ele>
        <time>2022-07-13T14:29:16Z</time>
      </trkpt>
      <trkpt lat="43.61943" lon="1.27188">
        <ele>179.4</ele>
        <time>2022-07-13T14:29:18Z</time>
      </trkpt>
      <trkpt lat="43.6194" lon="1.2717">
        <ele>179.4</ele>
        <time>2022-07-13T14:29:20Z</time>
      </trkpt>
      <trkpt lat="43.61937" lon="1.27142">
        <ele>179.6</ele>
        <time>2022-07-13T14:29:23Z</time>
      </trkpt>
      <trkpt lat="43.61932" lon="1.27095">
        <ele>179.8</ele>
        <time>2022-07-13T14:29:29Z</time>
      </trkpt>
      <trkpt lat="43.61931" lon="1.27087">
        <ele>180</ele>
        <time>2022-07-13T14:29:30Z</time>
      </trkpt>
      <trkpt lat="43.61925" lon="1.2703">
        <ele>180.4</ele>
        <time>2022-07-13T14:29:37Z</time>
      </trkpt>
      <trkpt lat="43.61911" lon="1.26965">
        <ele>181</ele>
        <time>2022-07-13T14:29:45Z</time>
      </trkpt>
      <trkpt lat="43.61898" lon="1.26908">
        <ele>182</ele>
        <time>2022-07-13T14:29:52Z</time>
      </trkpt>
      <trkpt lat="43.61893" lon="1.26871">
        <ele>182</ele>
        <time>2022-07-13T14:29:56Z</time>
      </trkpt>
      <trkpt lat="43.61892" lon="1.26854">
        <ele>182.2</ele>
        <time>2022-07-13T14:29:58Z</time>
      </trkpt>
      <trkpt lat="43.61889" lon="1.2682">
        <ele>182.4</ele>
        <time>2022-07-13T14:30:02Z</time>
      </trkpt>
      <trkpt lat="43.61887" lon="1.26803">
        <ele>182.4</ele>
        <time>2022-07-13T14:30:04Z</time>
      </trkpt>
      <trkpt lat="43.61883" lon="1.26777">
        <ele>182.6</ele>
        <time>2022-07-13T14:30:07Z</time>
      </trkpt>
      <trkpt lat="43.6188" lon="1.26761">
        <ele>182.8</ele>
        <time>2022-07-13T14:30:09Z</time>
      </trkpt>
      <trkpt lat="43.61879" lon="1.26752">
        <ele>183</ele>
        <time>2022-07-13T14:30:10Z</time>
      </trkpt>
      <trkpt lat="43.61876" lon="1.26735">
        <ele>183</ele>
        <time>2022-07-13T14:30:12Z</time>
      </trkpt>
      <trkpt lat="43.61875" lon="1.26729">
        <ele>183</ele>
        <time>2022-07-13T14:30:13Z</time>
      </trkpt>
      <trkpt lat="43.61868" lon="1.26702">
        <ele>183.2</ele>
        <time>2022-07-13T14:30:16Z</time>
      </trkpt>
      <trkpt lat="43.61854" lon="1.26621">
        <ele>183.4</ele>
        <time>2022-07-13T14:30:25Z</time>
      </trkpt>
      <trkpt lat="43.61844" lon="1.26559">
        <ele>183.4</ele>
        <time>2022-07-13T14:30:33Z</time>
      </trkpt>
      <trkpt lat="43.61838" lon="1.26521">
        <ele>183.2</ele>
        <time>2022-07-13T14:30:38Z</time>
      </trkpt>
      <trkpt lat="43.61837" lon="1.26504">
        <ele>183.2</ele>
        <time>2022-07-13T14:30:40Z</time>
      </trkpt>
      <trkpt lat="43.61825" lon="1.2645">
        <ele>183</ele>
        <time>2022-07-13T14:30:46Z</time>
      </trkpt>
      <trkpt lat="43.6181" lon="1.2639">
        <ele>182.6</ele>
        <time>2022-07-13T14:30:53Z</time>
      </trkpt>
      <trkpt lat="43.61795" lon="1.26325">
        <ele>182</ele>
        <time>2022-07-13T14:31:01Z</time>
      </trkpt>
      <trkpt lat="43.61778" lon="1.26257">
        <ele>181.6</ele>
        <time>2022-07-13T14:31:10Z</time>
      </trkpt>
      <trkpt lat="43.61771" lon="1.26219">
        <ele>181.6</ele>
        <time>2022-07-13T14:31:15Z</time>
      </trkpt>
      <trkpt lat="43.6177" lon="1.26203">
        <ele>181.6</ele>
        <time>2022-07-13T14:31:17Z</time>
      </trkpt>
      <trkpt lat="43.61767" lon="1.26159">
        <ele>181.6</ele>
        <time>2022-07-13T14:31:22Z</time>
      </trkpt>
      <trkpt lat="43.61763" lon="1.26143">
        <ele>181.8</ele>
        <time>2022-07-13T14:31:24Z</time>
      </trkpt>
      <trkpt lat="43.61746" lon="1.26083">
        <ele>183</ele>
        <time>2022-07-13T14:31:32Z</time>
      </trkpt>
      <trkpt lat="43.61744" lon="1.26077">
        <ele>183</ele>
        <time>2022-07-13T14:31:33Z</time>
      </trkpt>
      <trkpt lat="43.61739" lon="1.26056">
        <ele>183</ele>
        <time>2022-07-13T14:31:36Z</time>
      </trkpt>
      <trkpt lat="43.61736" lon="1.26043">
        <ele>182.8</ele>
        <time>2022-07-13T14:31:38Z</time>
      </trkpt>
      <trkpt lat="43.6173" lon="1.2603">
        <ele>183</ele>
        <time>2022-07-13T14:31:40Z</time>
      </trkpt>
      <trkpt lat="43.61721" lon="1.26013">
        <ele>182.8</ele>
        <time>2022-07-13T14:31:43Z</time>
      </trkpt>
      <trkpt lat="43.61716" lon="1.26003">
        <ele>183</ele>
        <time>2022-07-13T14:31:45Z</time>
      </trkpt>
      <trkpt lat="43.61704" lon="1.25987">
        <ele>183.2</ele>
        <time>2022-07-13T14:31:49Z</time>
      </trkpt>
      <trkpt lat="43.61683" lon="1.25969">
        <ele>183.8</ele>
        <time>2022-07-13T14:31:56Z</time>
      </trkpt>
      <trkpt lat="43.61681" lon="1.25966">
        <ele>184.2</ele>
        <time>2022-07-13T14:31:57Z</time>
      </trkpt>
      <trkpt lat="43.6167" lon="1.25942">
        <ele>185.2</ele>
        <time>2022-07-13T14:32:03Z</time>
      </trkpt>
      <trkpt lat="43.61657" lon="1.2591">
        <ele>186.4</ele>
        <time>2022-07-13T14:32:10Z</time>
      </trkpt>
      <trkpt lat="43.61655" lon="1.25906">
        <ele>186.6</ele>
        <time>2022-07-13T14:32:11Z</time>
      </trkpt>
      <trkpt lat="43.61649" lon="1.25884">
        <ele>187.4</ele>
        <time>2022-07-13T14:32:16Z</time>
      </trkpt>
      <trkpt lat="43.61648" lon="1.25878">
        <ele>188.2</ele>
        <time>2022-07-13T14:32:18Z</time>
      </trkpt>
      <trkpt lat="43.61647" lon="1.25872">
        <ele>188.4</ele>
        <time>2022-07-13T14:32:20Z</time>
      </trkpt>
      <trkpt lat="43.61647" lon="1.25869">
        <ele>188.6</ele>
        <time>2022-07-13T14:32:21Z</time>
      </trkpt>
      <trkpt lat="43.61647" lon="1.25865">
        <ele>188.8</ele>
        <time>2022-07-13T14:32:22Z</time>
      </trkpt>
      <trkpt lat="43.6165" lon="1.25849">
        <ele>189.4</ele>
        <time>2022-07-13T14:32:25Z</time>
      </trkpt>
      <trkpt lat="43.6165" lon="1.25842">
        <ele>189.6</ele>
        <time>2022-07-13T14:32:26Z</time>
      </trkpt>
      <trkpt lat="43.61649" lon="1.25834">
        <ele>189.6</ele>
        <time>2022-07-13T14:32:27Z</time>
      </trkpt>
      <trkpt lat="43.6164" lon="1.25809">
        <ele>189.8</ele>
        <time>2022-07-13T14:32:30Z</time>
      </trkpt>
      <trkpt lat="43.61619" lon="1.25763">
        <ele>189.4</ele>
        <time>2022-07-13T14:32:35Z</time>
      </trkpt>
      <trkpt lat="43.61595" lon="1.25709">
        <ele>189</ele>
        <time>2022-07-13T14:32:41Z</time>
      </trkpt>
      <trkpt lat="43.61578" lon="1.25655">
        <ele>188.6</ele>
        <time>2022-07-13T14:32:47Z</time>
      </trkpt>
      <trkpt lat="43.61568" lon="1.25594">
        <ele>188</ele>
        <time>2022-07-13T14:32:53Z</time>
      </trkpt>
      <trkpt lat="43.61567" lon="1.25536">
        <ele>187.6</ele>
        <time>2022-07-13T14:32:59Z</time>
      </trkpt>
      <trkpt lat="43.61566" lon="1.2548">
        <ele>187</ele>
        <time>2022-07-13T14:33:05Z</time>
      </trkpt>
      <trkpt lat="43.6156" lon="1.25428">
        <ele>186.6</ele>
        <time>2022-07-13T14:33:11Z</time>
      </trkpt>
      <trkpt lat="43.61557" lon="1.25381">
        <ele>186.4</ele>
        <time>2022-07-13T14:33:17Z</time>
      </trkpt>
      <trkpt lat="43.61556" lon="1.25341">
        <ele>187.2</ele>
        <time>2022-07-13T14:33:23Z</time>
      </trkpt>
      <trkpt lat="43.6156" lon="1.25281">
        <ele>187.6</ele>
        <time>2022-07-13T14:33:30Z</time>
      </trkpt>
      <trkpt lat="43.61561" lon="1.25254">
        <ele>187.8</ele>
        <time>2022-07-13T14:33:33Z</time>
      </trkpt>
      <trkpt lat="43.61567" lon="1.25218">
        <ele>188</ele>
        <time>2022-07-13T14:33:37Z</time>
      </trkpt>
      <trkpt lat="43.61569" lon="1.25209">
        <ele>188.2</ele>
        <time>2022-07-13T14:33:38Z</time>
      </trkpt>
      <trkpt lat="43.61582" lon="1.25146">
        <ele>188.4</ele>
        <time>2022-07-13T14:33:46Z</time>
      </trkpt>
      <trkpt lat="43.61583" lon="1.25131">
        <ele>188.6</ele>
        <time>2022-07-13T14:33:48Z</time>
      </trkpt>
      <trkpt lat="43.61583" lon="1.25121">
        <ele>188.8</ele>
        <time>2022-07-13T14:33:50Z</time>
      </trkpt>
      <trkpt lat="43.61582" lon="1.25114">
        <ele>188.8</ele>
        <time>2022-07-13T14:33:51Z</time>
      </trkpt>
      <trkpt lat="43.61581" lon="1.25108">
        <ele>188.8</ele>
        <time>2022-07-13T14:33:52Z</time>
      </trkpt>
      <trkpt lat="43.61574" lon="1.25083">
        <ele>189</ele>
        <time>2022-07-13T14:33:56Z</time>
      </trkpt>
      <trkpt lat="43.61567" lon="1.25063">
        <ele>189.4</ele>
        <time>2022-07-13T14:33:59Z</time>
      </trkpt>
      <trkpt lat="43.61563" lon="1.25044">
        <ele>189.6</ele>
        <time>2022-07-13T14:34:02Z</time>
      </trkpt>
      <trkpt lat="43.6156" lon="1.25032">
        <ele>190</ele>
        <time>2022-07-13T14:34:04Z</time>
      </trkpt>
      <trkpt lat="43.61558" lon="1.25016">
        <ele>190.6</ele>
        <time>2022-07-13T14:34:07Z</time>
      </trkpt>
      <trkpt lat="43.61557" lon="1.25011">
        <ele>190.6</ele>
        <time>2022-07-13T14:34:08Z</time>
      </trkpt>
      <trkpt lat="43.61552" lon="1.25005">
        <ele>191</ele>
        <time>2022-07-13T14:34:10Z</time>
      </trkpt>
      <trkpt lat="43.61536" lon="1.25">
        <ele>192</ele>
        <time>2022-07-13T14:34:14Z</time>
      </trkpt>
      <trkpt lat="43.61533" lon="1.24996">
        <ele>192.2</ele>
        <time>2022-07-13T14:34:15Z</time>
      </trkpt>
      <trkpt lat="43.61529" lon="1.24984">
        <ele>192.6</ele>
        <time>2022-07-13T14:34:17Z</time>
      </trkpt>
      <trkpt lat="43.61527" lon="1.24957">
        <ele>193.4</ele>
        <time>2022-07-13T14:34:22Z</time>
      </trkpt>
      <trkpt lat="43.61525" lon="1.24952">
        <ele>193.4</ele>
        <time>2022-07-13T14:34:23Z</time>
      </trkpt>
      <trkpt lat="43.61518" lon="1.24951">
        <ele>193.8</ele>
        <time>2022-07-13T14:34:25Z</time>
      </trkpt>
      <trkpt lat="43.61511" lon="1.24957">
        <ele>194</ele>
        <time>2022-07-13T14:34:27Z</time>
      </trkpt>
      <trkpt lat="43.61504" lon="1.24963">
        <ele>194.4</ele>
        <time>2022-07-13T14:34:29Z</time>
      </trkpt>
      <trkpt lat="43.61501" lon="1.24965">
        <ele>194.8</ele>
        <time>2022-07-13T14:34:30Z</time>
      </trkpt>
      <trkpt lat="43.61486" lon="1.24968">
        <ele>195.8</ele>
        <time>2022-07-13T14:34:34Z</time>
      </trkpt>
      <trkpt lat="43.61478" lon="1.24969">
        <ele>196.2</ele>
        <time>2022-07-13T14:34:36Z</time>
      </trkpt>
      <trkpt lat="43.61465" lon="1.24966">
        <ele>197.2</ele>
        <time>2022-07-13T14:34:39Z</time>
      </trkpt>
      <trkpt lat="43.61447" lon="1.2496">
        <ele>198.2</ele>
        <time>2022-07-13T14:34:43Z</time>
      </trkpt>
      <trkpt lat="43.61426" lon="1.24953">
        <ele>199.4</ele>
        <time>2022-07-13T14:34:47Z</time>
      </trkpt>
      <trkpt lat="43.61417" lon="1.24951">
        <ele>199.6</ele>
        <time>2022-07-13T14:34:49Z</time>
      </trkpt>
      <trkpt lat="43.61412" lon="1.2495">
        <ele>199.8</ele>
        <time>2022-07-13T14:34:50Z</time>
      </trkpt>
      <trkpt lat="43.61388" lon="1.2495">
        <ele>200.2</ele>
        <time>2022-07-13T14:34:55Z</time>
      </trkpt>
      <trkpt lat="43.61382" lon="1.2495">
        <ele>200.2</ele>
        <time>2022-07-13T14:34:56Z</time>
      </trkpt>
      <trkpt lat="43.61371" lon="1.24951">
        <ele>200.4</ele>
        <time>2022-07-13T14:34:58Z</time>
      </trkpt>
      <trkpt lat="43.61355" lon="1.24953">
        <ele>201.2</ele>
        <time>2022-07-13T14:35:01Z</time>
      </trkpt>
      <trkpt lat="43.6135" lon="1.24953">
        <ele>201.4</ele>
        <time>2022-07-13T14:35:02Z</time>
      </trkpt>
      <trkpt lat="43.61341" lon="1.24953">
        <ele>201.6</ele>
        <time>2022-07-13T14:35:04Z</time>
      </trkpt>
      <trkpt lat="43.61326" lon="1.2495">
        <ele>202.4</ele>
        <time>2022-07-13T14:35:07Z</time>
      </trkpt>
      <trkpt lat="43.6132" lon="1.24947">
        <ele>202.6</ele>
        <time>2022-07-13T14:35:08Z</time>
      </trkpt>
      <trkpt lat="43.613" lon="1.24936">
        <ele>203.8</ele>
        <time>2022-07-13T14:35:12Z</time>
      </trkpt>
      <trkpt lat="43.61285" lon="1.24928">
        <ele>204.2</ele>
        <time>2022-07-13T14:35:15Z</time>
      </trkpt>
      <trkpt lat="43.61253" lon="1.249">
        <ele>204.8</ele>
        <time>2022-07-13T14:35:22Z</time>
      </trkpt>
      <trkpt lat="43.61247" lon="1.24892">
        <ele>204.8</ele>
        <time>2022-07-13T14:35:24Z</time>
      </trkpt>
      <trkpt lat="43.61238" lon="1.24882">
        <ele>205</ele>
        <time>2022-07-13T14:35:26Z</time>
      </trkpt>
      <trkpt lat="43.6123" lon="1.24871">
        <ele>205</ele>
        <time>2022-07-13T14:35:28Z</time>
      </trkpt>
      <trkpt lat="43.61226" lon="1.24866">
        <ele>205</ele>
        <time>2022-07-13T14:35:29Z</time>
      </trkpt>
      <trkpt lat="43.61196" lon="1.24823">
        <ele>205.4</ele>
        <time>2022-07-13T14:35:37Z</time>
      </trkpt>
      <trkpt lat="43.61161" lon="1.24764">
        <ele>205.8</ele>
        <time>2022-07-13T14:35:47Z</time>
      </trkpt>
      <trkpt lat="43.61153" lon="1.24752">
        <ele>206</ele>
        <time>2022-07-13T14:35:49Z</time>
      </trkpt>
      <trkpt lat="43.61131" lon="1.24715">
        <ele>206.2</ele>
        <time>2022-07-13T14:35:55Z</time>
      </trkpt>
      <trkpt lat="43.61094" lon="1.24654">
        <ele>206.2</ele>
        <time>2022-07-13T14:36:05Z</time>
      </trkpt>
      <trkpt lat="43.61086" lon="1.24643">
        <ele>206.2</ele>
        <time>2022-07-13T14:36:07Z</time>
      </trkpt>
      <trkpt lat="43.61074" lon="1.2463">
        <ele>206.4</ele>
        <time>2022-07-13T14:36:10Z</time>
      </trkpt>
      <trkpt lat="43.61071" lon="1.24627">
        <ele>206.4</ele>
        <time>2022-07-13T14:36:11Z</time>
      </trkpt>
      <trkpt lat="43.61067" lon="1.24626">
        <ele>206.6</ele>
        <time>2022-07-13T14:36:14Z</time>
      </trkpt>
      <trkpt lat="43.61057" lon="1.24634">
        <ele>206.4</ele>
        <time>2022-07-13T14:36:18Z</time>
      </trkpt>
      <trkpt lat="43.61043" lon="1.24657">
        <ele>206.4</ele>
        <time>2022-07-13T14:36:23Z</time>
      </trkpt>
      <trkpt lat="43.61017" lon="1.24693">
        <ele>206.2</ele>
        <time>2022-07-13T14:36:30Z</time>
      </trkpt>
      <trkpt lat="43.61005" lon="1.2471">
        <ele>206.2</ele>
        <time>2022-07-13T14:36:33Z</time>
      </trkpt>
      <trkpt lat="43.60986" lon="1.24728">
        <ele>206.2</ele>
        <time>2022-07-13T14:36:37Z</time>
      </trkpt>
      <trkpt lat="43.60943" lon="1.24756">
        <ele>206.2</ele>
        <time>2022-07-13T14:36:45Z</time>
      </trkpt>
      <trkpt lat="43.60893" lon="1.2479">
        <ele>206.4</ele>
        <time>2022-07-13T14:36:54Z</time>
      </trkpt>
      <trkpt lat="43.60865" lon="1.24811">
        <ele>206.4</ele>
        <time>2022-07-13T14:36:59Z</time>
      </trkpt>
      <trkpt lat="43.6086" lon="1.24813">
        <ele>206.6</ele>
        <time>2022-07-13T14:37:00Z</time>
      </trkpt>
      <trkpt lat="43.60857" lon="1.24813">
        <ele>206.6</ele>
        <time>2022-07-13T14:37:01Z</time>
      </trkpt>
      <trkpt lat="43.60855" lon="1.2481">
        <ele>206.6</ele>
        <time>2022-07-13T14:37:02Z</time>
      </trkpt>
      <trkpt lat="43.60853" lon="1.24805">
        <ele>206.6</ele>
        <time>2022-07-13T14:37:03Z</time>
      </trkpt>
      <trkpt lat="43.60851" lon="1.24791">
        <ele>206.6</ele>
        <time>2022-07-13T14:37:05Z</time>
      </trkpt>
      <trkpt lat="43.60838" lon="1.24725">
        <ele>206.2</ele>
        <time>2022-07-13T14:37:14Z</time>
      </trkpt>
      <trkpt lat="43.60821" lon="1.24679">
        <ele>205.6</ele>
        <time>2022-07-13T14:37:20Z</time>
      </trkpt>
      <trkpt lat="43.60806" lon="1.24633">
        <ele>206.2</ele>
        <time>2022-07-13T14:37:26Z</time>
      </trkpt>
      <trkpt lat="43.60789" lon="1.24573">
        <ele>206.8</ele>
        <time>2022-07-13T14:37:34Z</time>
      </trkpt>
      <trkpt lat="43.60768" lon="1.24496">
        <ele>207.2</ele>
        <time>2022-07-13T14:37:44Z</time>
      </trkpt>
      <trkpt lat="43.60763" lon="1.24481">
        <ele>207.4</ele>
        <time>2022-07-13T14:37:46Z</time>
      </trkpt>
      <trkpt lat="43.60754" lon="1.24461">
        <ele>207.4</ele>
        <time>2022-07-13T14:37:49Z</time>
      </trkpt>
      <trkpt lat="43.60746" lon="1.24448">
        <ele>207.4</ele>
        <time>2022-07-13T14:37:51Z</time>
      </trkpt>
      <trkpt lat="43.60727" lon="1.24416">
        <ele>207</ele>
        <time>2022-07-13T14:37:56Z</time>
      </trkpt>
      <trkpt lat="43.6072" lon="1.24403">
        <ele>206.8</ele>
        <time>2022-07-13T14:37:58Z</time>
      </trkpt>
      <trkpt lat="43.60709" lon="1.24385">
        <ele>206.4</ele>
        <time>2022-07-13T14:38:01Z</time>
      </trkpt>
      <trkpt lat="43.60691" lon="1.24357">
        <ele>206.4</ele>
        <time>2022-07-13T14:38:06Z</time>
      </trkpt>
      <trkpt lat="43.60665" lon="1.24318">
        <ele>207</ele>
        <time>2022-07-13T14:38:13Z</time>
      </trkpt>
      <trkpt lat="43.60658" lon="1.24307">
        <ele>207.2</ele>
        <time>2022-07-13T14:38:15Z</time>
      </trkpt>
      <trkpt lat="43.60651" lon="1.243">
        <ele>207</ele>
        <time>2022-07-13T14:38:17Z</time>
      </trkpt>
      <trkpt lat="43.60649" lon="1.24296">
        <ele>207</ele>
        <time>2022-07-13T14:38:18Z</time>
      </trkpt>
      <trkpt lat="43.60648" lon="1.24292">
        <ele>207</ele>
        <time>2022-07-13T14:38:19Z</time>
      </trkpt>
      <trkpt lat="43.60649" lon="1.24283">
        <ele>207.2</ele>
        <time>2022-07-13T14:38:21Z</time>
      </trkpt>
      <trkpt lat="43.60649" lon="1.24278">
        <ele>207.4</ele>
        <time>2022-07-13T14:38:22Z</time>
      </trkpt>
      <trkpt lat="43.60655" lon="1.24254">
        <ele>207.6</ele>
        <time>2022-07-13T14:38:26Z</time>
      </trkpt>
      <trkpt lat="43.60665" lon="1.24214">
        <ele>208.6</ele>
        <time>2022-07-13T14:38:32Z</time>
      </trkpt>
      <trkpt lat="43.60668" lon="1.24207">
        <ele>208.4</ele>
        <time>2022-07-13T14:38:33Z</time>
      </trkpt>
      <trkpt lat="43.60677" lon="1.24171">
        <ele>209.8</ele>
        <time>2022-07-13T14:38:38Z</time>
      </trkpt>
      <trkpt lat="43.60683" lon="1.2415">
        <ele>210.2</ele>
        <time>2022-07-13T14:38:41Z</time>
      </trkpt>
      <trkpt lat="43.60689" lon="1.24127">
        <ele>210.8</ele>
        <time>2022-07-13T14:38:44Z</time>
      </trkpt>
      <trkpt lat="43.607" lon="1.24082">
        <ele>211.6</ele>
        <time>2022-07-13T14:38:50Z</time>
      </trkpt>
      <trkpt lat="43.60721" lon="1.24007">
        <ele>211.8</ele>
        <time>2022-07-13T14:39:00Z</time>
      </trkpt>
      <trkpt lat="43.60723" lon="1.23999">
        <ele>211.8</ele>
        <time>2022-07-13T14:39:01Z</time>
      </trkpt>
      <trkpt lat="43.60744" lon="1.23928">
        <ele>212</ele>
        <time>2022-07-13T14:39:10Z</time>
      </trkpt>
      <trkpt lat="43.60746" lon="1.2392">
        <ele>212</ele>
        <time>2022-07-13T14:39:11Z</time>
      </trkpt>
      <trkpt lat="43.60753" lon="1.2389">
        <ele>212</ele>
        <time>2022-07-13T14:39:15Z</time>
      </trkpt>
      <trkpt lat="43.6076" lon="1.23853">
        <ele>212.2</ele>
        <time>2022-07-13T14:39:20Z</time>
      </trkpt>
      <trkpt lat="43.60778" lon="1.23783">
        <ele>211.8</ele>
        <time>2022-07-13T14:39:30Z</time>
      </trkpt>
      <trkpt lat="43.6079" lon="1.23728">
        <ele>211.8</ele>
        <time>2022-07-13T14:39:38Z</time>
      </trkpt>
      <trkpt lat="43.60802" lon="1.23666">
        <ele>211.6</ele>
        <time>2022-07-13T14:39:46Z</time>
      </trkpt>
      <trkpt lat="43.6081" lon="1.23621">
        <ele>211.4</ele>
        <time>2022-07-13T14:39:51Z</time>
      </trkpt>
      <trkpt lat="43.60816" lon="1.23583">
        <ele>211.2</ele>
        <time>2022-07-13T14:39:55Z</time>
      </trkpt>
      <trkpt lat="43.60825" lon="1.23539">
        <ele>211</ele>
        <time>2022-07-13T14:40:00Z</time>
      </trkpt>
      <trkpt lat="43.60838" lon="1.2348">
        <ele>210.2</ele>
        <time>2022-07-13T14:40:07Z</time>
      </trkpt>
      <trkpt lat="43.6084" lon="1.23473">
        <ele>210.2</ele>
        <time>2022-07-13T14:40:08Z</time>
      </trkpt>
      <trkpt lat="43.60846" lon="1.23453">
        <ele>210</ele>
        <time>2022-07-13T14:40:12Z</time>
      </trkpt>
      <trkpt lat="43.60845" lon="1.2345">
        <ele>209.8</ele>
        <time>2022-07-13T14:40:13Z</time>
      </trkpt>
      <trkpt lat="43.60839" lon="1.23445">
        <ele>209.6</ele>
        <time>2022-07-13T14:40:15Z</time>
      </trkpt>
      <trkpt lat="43.60835" lon="1.23442">
        <ele>209.4</ele>
        <time>2022-07-13T14:40:16Z</time>
      </trkpt>
      <trkpt lat="43.60829" lon="1.2344">
        <ele>209.2</ele>
        <time>2022-07-13T14:40:17Z</time>
      </trkpt>
      <trkpt lat="43.60824" lon="1.23438">
        <ele>209</ele>
        <time>2022-07-13T14:40:18Z</time>
      </trkpt>
      <trkpt lat="43.60792" lon="1.23427">
        <ele>208.4</ele>
        <time>2022-07-13T14:40:23Z</time>
      </trkpt>
      <trkpt lat="43.60778" lon="1.23425">
        <ele>208.2</ele>
        <time>2022-07-13T14:40:25Z</time>
      </trkpt>
      <trkpt lat="43.60745" lon="1.23422">
        <ele>207.6</ele>
        <time>2022-07-13T14:40:30Z</time>
      </trkpt>
      <trkpt lat="43.60739" lon="1.23421">
        <ele>207.4</ele>
        <time>2022-07-13T14:40:31Z</time>
      </trkpt>
      <trkpt lat="43.60721" lon="1.23415">
        <ele>207.4</ele>
        <time>2022-07-13T14:40:34Z</time>
      </trkpt>
      <trkpt lat="43.6071" lon="1.23421">
        <ele>207.4</ele>
        <time>2022-07-13T14:40:36Z</time>
      </trkpt>
      <trkpt lat="43.60705" lon="1.23432">
        <ele>207.4</ele>
        <time>2022-07-13T14:40:38Z</time>
      </trkpt>
      <trkpt lat="43.60703" lon="1.23439">
        <ele>207.6</ele>
        <time>2022-07-13T14:40:39Z</time>
      </trkpt>
      <trkpt lat="43.60701" lon="1.23454">
        <ele>207.8</ele>
        <time>2022-07-13T14:40:41Z</time>
      </trkpt>
      <trkpt lat="43.60696" lon="1.23466">
        <ele>208</ele>
        <time>2022-07-13T14:40:43Z</time>
      </trkpt>
      <trkpt lat="43.60694" lon="1.23473">
        <ele>208.2</ele>
        <time>2022-07-13T14:40:44Z</time>
      </trkpt>
      <trkpt lat="43.60687" lon="1.23505">
        <ele>208.8</ele>
        <time>2022-07-13T14:40:48Z</time>
      </trkpt>
      <trkpt lat="43.60678" lon="1.23536">
        <ele>209.4</ele>
        <time>2022-07-13T14:40:52Z</time>
      </trkpt>
      <trkpt lat="43.60674" lon="1.23551">
        <ele>209.8</ele>
        <time>2022-07-13T14:40:54Z</time>
      </trkpt>
      <trkpt lat="43.60669" lon="1.23567">
        <ele>209.8</ele>
        <time>2022-07-13T14:40:56Z</time>
      </trkpt>
      <trkpt lat="43.60664" lon="1.23583">
        <ele>210.2</ele>
        <time>2022-07-13T14:40:58Z</time>
      </trkpt>
      <trkpt lat="43.60662" lon="1.23591">
        <ele>210.4</ele>
        <time>2022-07-13T14:40:59Z</time>
      </trkpt>
      <trkpt lat="43.6066" lon="1.23599">
        <ele>210.4</ele>
        <time>2022-07-13T14:41:00Z</time>
      </trkpt>
      <trkpt lat="43.60652" lon="1.23623">
        <ele>211</ele>
        <time>2022-07-13T14:41:03Z</time>
      </trkpt>
      <trkpt lat="43.6065" lon="1.23632">
        <ele>211.2</ele>
        <time>2022-07-13T14:41:04Z</time>
      </trkpt>
      <trkpt lat="43.60641" lon="1.23666">
        <ele>211.6</ele>
        <time>2022-07-13T14:41:08Z</time>
      </trkpt>
      <trkpt lat="43.60636" lon="1.2368">
        <ele>211.8</ele>
        <time>2022-07-13T14:41:10Z</time>
      </trkpt>
      <trkpt lat="43.60631" lon="1.23697">
        <ele>211.8</ele>
        <time>2022-07-13T14:41:12Z</time>
      </trkpt>
      <trkpt lat="43.60629" lon="1.23706">
        <ele>211.8</ele>
        <time>2022-07-13T14:41:13Z</time>
      </trkpt>
      <trkpt lat="43.60622" lon="1.23755">
        <ele>211.4</ele>
        <time>2022-07-13T14:41:18Z</time>
      </trkpt>
      <trkpt lat="43.60614" lon="1.23772">
        <ele>211.4</ele>
        <time>2022-07-13T14:41:20Z</time>
      </trkpt>
      <trkpt lat="43.60607" lon="1.23793">
        <ele>211.2</ele>
        <time>2022-07-13T14:41:23Z</time>
      </trkpt>
      <trkpt lat="43.60602" lon="1.23809">
        <ele>211.2</ele>
        <time>2022-07-13T14:41:26Z</time>
      </trkpt>
      <trkpt lat="43.60601" lon="1.23814">
        <ele>211.2</ele>
        <time>2022-07-13T14:41:27Z</time>
      </trkpt>
      <trkpt lat="43.60592" lon="1.23849">
        <ele>211.8</ele>
        <time>2022-07-13T14:41:34Z</time>
      </trkpt>
      <trkpt lat="43.60579" lon="1.23889">
        <ele>212</ele>
        <time>2022-07-13T14:41:41Z</time>
      </trkpt>
      <trkpt lat="43.60572" lon="1.23911">
        <ele>212.4</ele>
        <time>2022-07-13T14:41:45Z</time>
      </trkpt>
      <trkpt lat="43.60571" lon="1.23917">
        <ele>212.6</ele>
        <time>2022-07-13T14:41:46Z</time>
      </trkpt>
      <trkpt lat="43.60566" lon="1.23932">
        <ele>212.6</ele>
        <time>2022-07-13T14:41:48Z</time>
      </trkpt>
      <trkpt lat="43.6056" lon="1.23938">
        <ele>212.8</ele>
        <time>2022-07-13T14:41:50Z</time>
      </trkpt>
      <trkpt lat="43.60547" lon="1.23935">
        <ele>212.8</ele>
        <time>2022-07-13T14:41:54Z</time>
      </trkpt>
      <trkpt lat="43.60524" lon="1.23922">
        <ele>212.8</ele>
        <time>2022-07-13T14:42:00Z</time>
      </trkpt>
      <trkpt lat="43.6051" lon="1.23927">
        <ele>212.4</ele>
        <time>2022-07-13T14:42:04Z</time>
      </trkpt>
      <trkpt lat="43.60504" lon="1.23946">
        <ele>212</ele>
        <time>2022-07-13T14:42:08Z</time>
      </trkpt>
      <trkpt lat="43.60492" lon="1.23977">
        <ele>211.8</ele>
        <time>2022-07-13T14:42:14Z</time>
      </trkpt>
      <trkpt lat="43.60489" lon="1.23982">
        <ele>211.8</ele>
        <time>2022-07-13T14:42:15Z</time>
      </trkpt>
      <trkpt lat="43.60486" lon="1.23988">
        <ele>211.8</ele>
        <time>2022-07-13T14:42:16Z</time>
      </trkpt>
      <trkpt lat="43.6048" lon="1.23998">
        <ele>211.6</ele>
        <time>2022-07-13T14:42:18Z</time>
      </trkpt>
      <trkpt lat="43.60473" lon="1.24014">
        <ele>211.6</ele>
        <time>2022-07-13T14:42:21Z</time>
      </trkpt>
      <trkpt lat="43.60468" lon="1.24034">
        <ele>210.6</ele>
        <time>2022-07-13T14:42:24Z</time>
      </trkpt>
      <trkpt lat="43.60458" lon="1.24053">
        <ele>209.4</ele>
        <time>2022-07-13T14:42:27Z</time>
      </trkpt>
      <trkpt lat="43.60448" lon="1.24063">
        <ele>208</ele>
        <time>2022-07-13T14:42:29Z</time>
      </trkpt>
      <trkpt lat="43.60442" lon="1.24066">
        <ele>207</ele>
        <time>2022-07-13T14:42:30Z</time>
      </trkpt>
      <trkpt lat="43.60436" lon="1.24069">
        <ele>206.6</ele>
        <time>2022-07-13T14:42:31Z</time>
      </trkpt>
      <trkpt lat="43.60431" lon="1.24073">
        <ele>206.4</ele>
        <time>2022-07-13T14:42:32Z</time>
      </trkpt>
      <trkpt lat="43.60426" lon="1.24076">
        <ele>205.4</ele>
        <time>2022-07-13T14:42:33Z</time>
      </trkpt>
      <trkpt lat="43.60422" lon="1.24078">
        <ele>204.8</ele>
        <time>2022-07-13T14:42:34Z</time>
      </trkpt>
      <trkpt lat="43.60418" lon="1.24079">
        <ele>204</ele>
        <time>2022-07-13T14:42:35Z</time>
      </trkpt>
      <trkpt lat="43.60407" lon="1.24078">
        <ele>202.6</ele>
        <time>2022-07-13T14:42:38Z</time>
      </trkpt>
      <trkpt lat="43.60404" lon="1.24076">
        <ele>202</ele>
        <time>2022-07-13T14:42:39Z</time>
      </trkpt>
      <trkpt lat="43.60402" lon="1.24073">
        <ele>201.4</ele>
        <time>2022-07-13T14:42:40Z</time>
      </trkpt>
      <trkpt lat="43.60389" lon="1.24058">
        <ele>200.2</ele>
        <time>2022-07-13T14:42:44Z</time>
      </trkpt>
      <trkpt lat="43.60383" lon="1.24049">
        <ele>199.6</ele>
        <time>2022-07-13T14:42:46Z</time>
      </trkpt>
      <trkpt lat="43.60372" lon="1.24036">
        <ele>199</ele>
        <time>2022-07-13T14:42:49Z</time>
      </trkpt>
      <trkpt lat="43.60358" lon="1.24023">
        <ele>198.2</ele>
        <time>2022-07-13T14:42:52Z</time>
      </trkpt>
      <trkpt lat="43.60347" lon="1.2401">
        <ele>197.6</ele>
        <time>2022-07-13T14:42:55Z</time>
      </trkpt>
      <trkpt lat="43.6033" lon="1.23992">
        <ele>197.2</ele>
        <time>2022-07-13T14:42:59Z</time>
      </trkpt>
      <trkpt lat="43.60322" lon="1.23984">
        <ele>197</ele>
        <time>2022-07-13T14:43:01Z</time>
      </trkpt>
      <trkpt lat="43.60312" lon="1.23984">
        <ele>196.8</ele>
        <time>2022-07-13T14:43:03Z</time>
      </trkpt>
      <trkpt lat="43.60309" lon="1.23987">
        <ele>196.6</ele>
        <time>2022-07-13T14:43:04Z</time>
      </trkpt>
      <trkpt lat="43.603" lon="1.23998">
        <ele>196.4</ele>
        <time>2022-07-13T14:43:07Z</time>
      </trkpt>
      <trkpt lat="43.60284" lon="1.24014">
        <ele>196.6</ele>
        <time>2022-07-13T14:43:12Z</time>
      </trkpt>
      <trkpt lat="43.60258" lon="1.24036">
        <ele>196.8</ele>
        <time>2022-07-13T14:43:20Z</time>
      </trkpt>
      <trkpt lat="43.60246" lon="1.24044">
        <ele>197.2</ele>
        <time>2022-07-13T14:43:26Z</time>
      </trkpt>
      <trkpt lat="43.60244" lon="1.24046">
        <ele>197.2</ele>
        <time>2022-07-13T14:43:27Z</time>
      </trkpt>
      <trkpt lat="43.60242" lon="1.24049">
        <ele>197.8</ele>
        <time>2022-07-13T14:43:29Z</time>
      </trkpt>
      <trkpt lat="43.6024" lon="1.2405">
        <ele>198</ele>
        <time>2022-07-13T14:43:30Z</time>
      </trkpt>
      <trkpt lat="43.60238" lon="1.2405">
        <ele>198.4</ele>
        <time>2022-07-13T14:43:31Z</time>
      </trkpt>
      <trkpt lat="43.60231" lon="1.24054">
        <ele>199.2</ele>
        <time>2022-07-13T14:43:34Z</time>
      </trkpt>
      <trkpt lat="43.60229" lon="1.24057">
        <ele>199.2</ele>
        <time>2022-07-13T14:43:35Z</time>
      </trkpt>
      <trkpt lat="43.60222" lon="1.24069">
        <ele>200.2</ele>
        <time>2022-07-13T14:43:40Z</time>
      </trkpt>
      <trkpt lat="43.60221" lon="1.24072">
        <ele>200.4</ele>
        <time>2022-07-13T14:43:41Z</time>
      </trkpt>
      <trkpt lat="43.60213" lon="1.24097">
        <ele>201</ele>
        <time>2022-07-13T14:43:49Z</time>
      </trkpt>
      <trkpt lat="43.60208" lon="1.24105">
        <ele>201.2</ele>
        <time>2022-07-13T14:43:52Z</time>
      </trkpt>
      <trkpt lat="43.60204" lon="1.24115">
        <ele>201.6</ele>
        <time>2022-07-13T14:43:56Z</time>
      </trkpt>
      <trkpt lat="43.602" lon="1.24122">
        <ele>202.6</ele>
        <time>2022-07-13T14:43:59Z</time>
      </trkpt>
      <trkpt lat="43.60197" lon="1.24126">
        <ele>203.4</ele>
        <time>2022-07-13T14:44:01Z</time>
      </trkpt>
      <trkpt lat="43.60193" lon="1.24131">
        <ele>203.8</ele>
        <time>2022-07-13T14:44:03Z</time>
      </trkpt>
      <trkpt lat="43.60185" lon="1.24141">
        <ele>204.8</ele>
        <time>2022-07-13T14:44:07Z</time>
      </trkpt>
      <trkpt lat="43.60183" lon="1.24143">
        <ele>205</ele>
        <time>2022-07-13T14:44:08Z</time>
      </trkpt>
      <trkpt lat="43.60173" lon="1.24155">
        <ele>206.2</ele>
        <time>2022-07-13T14:44:13Z</time>
      </trkpt>
      <trkpt lat="43.60169" lon="1.24159">
        <ele>206.2</ele>
        <time>2022-07-13T14:44:15Z</time>
      </trkpt>
      <trkpt lat="43.60145" lon="1.24188">
        <ele>206.8</ele>
        <time>2022-07-13T14:44:25Z</time>
      </trkpt>
      <trkpt lat="43.60135" lon="1.24198">
        <ele>207.2</ele>
        <time>2022-07-13T14:44:29Z</time>
      </trkpt>
      <trkpt lat="43.60129" lon="1.242">
        <ele>207.2</ele>
        <time>2022-07-13T14:44:31Z</time>
      </trkpt>
      <trkpt lat="43.60112" lon="1.2419">
        <ele>207.4</ele>
        <time>2022-07-13T14:44:36Z</time>
      </trkpt>
      <trkpt lat="43.60076" lon="1.24173">
        <ele>207.6</ele>
        <time>2022-07-13T14:44:44Z</time>
      </trkpt>
      <trkpt lat="43.60036" lon="1.24158">
        <ele>207.8</ele>
        <time>2022-07-13T14:44:52Z</time>
      </trkpt>
      <trkpt lat="43.60031" lon="1.24157">
        <ele>207.8</ele>
        <time>2022-07-13T14:44:53Z</time>
      </trkpt>
      <trkpt lat="43.60016" lon="1.24158">
        <ele>207.8</ele>
        <time>2022-07-13T14:44:56Z</time>
      </trkpt>
      <trkpt lat="43.59999" lon="1.24159">
        <ele>207.8</ele>
        <time>2022-07-13T14:44:59Z</time>
      </trkpt>
      <trkpt lat="43.59989" lon="1.24162">
        <ele>207.8</ele>
        <time>2022-07-13T14:45:01Z</time>
      </trkpt>
      <trkpt lat="43.59984" lon="1.24164">
        <ele>207.8</ele>
        <time>2022-07-13T14:45:02Z</time>
      </trkpt>
      <trkpt lat="43.59979" lon="1.2417">
        <ele>207.8</ele>
        <time>2022-07-13T14:45:03Z</time>
      </trkpt>
      <trkpt lat="43.59963" lon="1.24192">
        <ele>207.8</ele>
        <time>2022-07-13T14:45:07Z</time>
      </trkpt>
      <trkpt lat="43.59927" lon="1.24244">
        <ele>207.6</ele>
        <time>2022-07-13T14:45:16Z</time>
      </trkpt>
      <trkpt lat="43.59894" lon="1.24294">
        <ele>208</ele>
        <time>2022-07-13T14:45:24Z</time>
      </trkpt>
      <trkpt lat="43.59882" lon="1.24315">
        <ele>208.2</ele>
        <time>2022-07-13T14:45:27Z</time>
      </trkpt>
      <trkpt lat="43.59856" lon="1.2436">
        <ele>208.8</ele>
        <time>2022-07-13T14:45:34Z</time>
      </trkpt>
      <trkpt lat="43.59844" lon="1.24377">
        <ele>208.8</ele>
        <time>2022-07-13T14:45:37Z</time>
      </trkpt>
      <trkpt lat="43.59831" lon="1.24389">
        <ele>208.8</ele>
        <time>2022-07-13T14:45:40Z</time>
      </trkpt>
      <trkpt lat="43.59826" lon="1.24399">
        <ele>209</ele>
        <time>2022-07-13T14:45:42Z</time>
      </trkpt>
      <trkpt lat="43.59823" lon="1.24404">
        <ele>209</ele>
        <time>2022-07-13T14:45:43Z</time>
      </trkpt>
      <trkpt lat="43.59809" lon="1.24424">
        <ele>209</ele>
        <time>2022-07-13T14:45:47Z</time>
      </trkpt>
      <trkpt lat="43.598" lon="1.24434">
        <ele>209</ele>
        <time>2022-07-13T14:45:49Z</time>
      </trkpt>
      <trkpt lat="43.59764" lon="1.24472">
        <ele>209.4</ele>
        <time>2022-07-13T14:45:57Z</time>
      </trkpt>
      <trkpt lat="43.59755" lon="1.24481">
        <ele>209.6</ele>
        <time>2022-07-13T14:45:59Z</time>
      </trkpt>
      <trkpt lat="43.59732" lon="1.24506">
        <ele>210</ele>
        <time>2022-07-13T14:46:04Z</time>
      </trkpt>
      <trkpt lat="43.59727" lon="1.2451">
        <ele>210</ele>
        <time>2022-07-13T14:46:05Z</time>
      </trkpt>
      <trkpt lat="43.59714" lon="1.24523">
        <ele>210</ele>
        <time>2022-07-13T14:46:08Z</time>
      </trkpt>
      <trkpt lat="43.59678" lon="1.24561">
        <ele>210.6</ele>
        <time>2022-07-13T14:46:16Z</time>
      </trkpt>
      <trkpt lat="43.59645" lon="1.24589">
        <ele>211.2</ele>
        <time>2022-07-13T14:46:22Z</time>
      </trkpt>
      <trkpt lat="43.596" lon="1.24625">
        <ele>211.2</ele>
        <time>2022-07-13T14:46:30Z</time>
      </trkpt>
      <trkpt lat="43.59549" lon="1.24662">
        <ele>210.6</ele>
        <time>2022-07-13T14:46:39Z</time>
      </trkpt>
      <trkpt lat="43.59544" lon="1.24666">
        <ele>210.6</ele>
        <time>2022-07-13T14:46:40Z</time>
      </trkpt>
      <trkpt lat="43.59493" lon="1.24696">
        <ele>210.4</ele>
        <time>2022-07-13T14:46:49Z</time>
      </trkpt>
      <trkpt lat="43.59442" lon="1.24724">
        <ele>210.2</ele>
        <time>2022-07-13T14:46:58Z</time>
      </trkpt>
      <trkpt lat="43.59426" lon="1.24735">
        <ele>210.4</ele>
        <time>2022-07-13T14:47:01Z</time>
      </trkpt>
      <trkpt lat="43.59421" lon="1.24739">
        <ele>210.4</ele>
        <time>2022-07-13T14:47:02Z</time>
      </trkpt>
      <trkpt lat="43.59409" lon="1.24757">
        <ele>210.6</ele>
        <time>2022-07-13T14:47:05Z</time>
      </trkpt>
      <trkpt lat="43.59377" lon="1.24798">
        <ele>211</ele>
        <time>2022-07-13T14:47:12Z</time>
      </trkpt>
      <trkpt lat="43.59335" lon="1.24854">
        <ele>210.8</ele>
        <time>2022-07-13T14:47:21Z</time>
      </trkpt>
      <trkpt lat="43.5933" lon="1.24861">
        <ele>210.8</ele>
        <time>2022-07-13T14:47:22Z</time>
      </trkpt>
      <trkpt lat="43.59292" lon="1.24917">
        <ele>211.2</ele>
        <time>2022-07-13T14:47:30Z</time>
      </trkpt>
      <trkpt lat="43.59251" lon="1.24973">
        <ele>211</ele>
        <time>2022-07-13T14:47:38Z</time>
      </trkpt>
      <trkpt lat="43.59246" lon="1.2498">
        <ele>211</ele>
        <time>2022-07-13T14:47:39Z</time>
      </trkpt>
      <trkpt lat="43.59232" lon="1.25002">
        <ele>211</ele>
        <time>2022-07-13T14:47:42Z</time>
      </trkpt>
      <trkpt lat="43.59197" lon="1.2505">
        <ele>210.8</ele>
        <time>2022-07-13T14:47:49Z</time>
      </trkpt>
      <trkpt lat="43.59172" lon="1.25093">
        <ele>210.8</ele>
        <time>2022-07-13T14:47:55Z</time>
      </trkpt>
      <trkpt lat="43.59175" lon="1.25107">
        <ele>210.8</ele>
        <time>2022-07-13T14:47:57Z</time>
      </trkpt>
      <trkpt lat="43.59179" lon="1.25112">
        <ele>210.8</ele>
        <time>2022-07-13T14:47:58Z</time>
      </trkpt>
      <trkpt lat="43.59199" lon="1.25131">
        <ele>211</ele>
        <time>2022-07-13T14:48:02Z</time>
      </trkpt>
      <trkpt lat="43.59232" lon="1.25162">
        <ele>211.8</ele>
        <time>2022-07-13T14:48:08Z</time>
      </trkpt>
      <trkpt lat="43.59244" lon="1.25172">
        <ele>212.2</ele>
        <time>2022-07-13T14:48:10Z</time>
      </trkpt>
      <trkpt lat="43.59266" lon="1.25192">
        <ele>213</ele>
        <time>2022-07-13T14:48:14Z</time>
      </trkpt>
      <trkpt lat="43.59284" lon="1.25208">
        <ele>213.4</ele>
        <time>2022-07-13T14:48:17Z</time>
      </trkpt>
      <trkpt lat="43.5929" lon="1.25212">
        <ele>213.4</ele>
        <time>2022-07-13T14:48:18Z</time>
      </trkpt>
      <trkpt lat="43.59302" lon="1.25223">
        <ele>213.6</ele>
        <time>2022-07-13T14:48:20Z</time>
      </trkpt>
      <trkpt lat="43.59312" lon="1.25236">
        <ele>213.6</ele>
        <time>2022-07-13T14:48:22Z</time>
      </trkpt>
      <trkpt lat="43.59342" lon="1.25264">
        <ele>214</ele>
        <time>2022-07-13T14:48:27Z</time>
      </trkpt>
      <trkpt lat="43.59348" lon="1.25268">
        <ele>214</ele>
        <time>2022-07-13T14:48:28Z</time>
      </trkpt>
      <trkpt lat="43.59382" lon="1.25285">
        <ele>214</ele>
        <time>2022-07-13T14:48:33Z</time>
      </trkpt>
      <trkpt lat="43.59435" lon="1.25303">
        <ele>213.6</ele>
        <time>2022-07-13T14:48:41Z</time>
      </trkpt>
      <trkpt lat="43.59487" lon="1.25318">
        <ele>213</ele>
        <time>2022-07-13T14:48:49Z</time>
      </trkpt>
      <trkpt lat="43.59493" lon="1.2532">
        <ele>212.8</ele>
        <time>2022-07-13T14:48:50Z</time>
      </trkpt>
      <trkpt lat="43.59499" lon="1.25324">
        <ele>212.8</ele>
        <time>2022-07-13T14:48:51Z</time>
      </trkpt>
      <trkpt lat="43.59516" lon="1.25337">
        <ele>212.8</ele>
        <time>2022-07-13T14:48:54Z</time>
      </trkpt>
      <trkpt lat="43.59521" lon="1.25343">
        <ele>212.8</ele>
        <time>2022-07-13T14:48:55Z</time>
      </trkpt>
      <trkpt lat="43.59545" lon="1.25377">
        <ele>213.4</ele>
        <time>2022-07-13T14:49:00Z</time>
      </trkpt>
      <trkpt lat="43.59551" lon="1.25382">
        <ele>213.4</ele>
        <time>2022-07-13T14:49:01Z</time>
      </trkpt>
      <trkpt lat="43.59573" lon="1.25404">
        <ele>213.8</ele>
        <time>2022-07-13T14:49:05Z</time>
      </trkpt>
      <trkpt lat="43.5958" lon="1.25408">
        <ele>213.8</ele>
        <time>2022-07-13T14:49:06Z</time>
      </trkpt>
      <trkpt lat="43.59587" lon="1.25411">
        <ele>213.8</ele>
        <time>2022-07-13T14:49:07Z</time>
      </trkpt>
      <trkpt lat="43.59616" lon="1.25417">
        <ele>213.6</ele>
        <time>2022-07-13T14:49:11Z</time>
      </trkpt>
      <trkpt lat="43.59623" lon="1.25419">
        <ele>213.8</ele>
        <time>2022-07-13T14:49:12Z</time>
      </trkpt>
      <trkpt lat="43.59653" lon="1.25423">
        <ele>213.8</ele>
        <time>2022-07-13T14:49:16Z</time>
      </trkpt>
      <trkpt lat="43.59703" lon="1.2543">
        <ele>213.4</ele>
        <time>2022-07-13T14:49:23Z</time>
      </trkpt>
      <trkpt lat="43.5973" lon="1.25437">
        <ele>213.4</ele>
        <time>2022-07-13T14:49:27Z</time>
      </trkpt>
      <trkpt lat="43.59751" lon="1.2544">
        <ele>213.4</ele>
        <time>2022-07-13T14:49:30Z</time>
      </trkpt>
      <trkpt lat="43.59785" lon="1.25444">
        <ele>213.4</ele>
        <time>2022-07-13T14:49:35Z</time>
      </trkpt>
      <trkpt lat="43.59799" lon="1.25444">
        <ele>213.4</ele>
        <time>2022-07-13T14:49:37Z</time>
      </trkpt>
      <trkpt lat="43.59813" lon="1.25447">
        <ele>213.4</ele>
        <time>2022-07-13T14:49:39Z</time>
      </trkpt>
      <trkpt lat="43.59834" lon="1.25452">
        <ele>213.4</ele>
        <time>2022-07-13T14:49:42Z</time>
      </trkpt>
      <trkpt lat="43.59881" lon="1.25459">
        <ele>213.6</ele>
        <time>2022-07-13T14:49:49Z</time>
      </trkpt>
      <trkpt lat="43.59935" lon="1.25465">
        <ele>213.6</ele>
        <time>2022-07-13T14:49:57Z</time>
      </trkpt>
      <trkpt lat="43.59941" lon="1.25466">
        <ele>213.6</ele>
        <time>2022-07-13T14:49:58Z</time>
      </trkpt>
      <trkpt lat="43.59966" lon="1.25472">
        <ele>213.8</ele>
        <time>2022-07-13T14:50:02Z</time>
      </trkpt>
      <trkpt lat="43.59994" lon="1.25482">
        <ele>214.2</ele>
        <time>2022-07-13T14:50:07Z</time>
      </trkpt>
      <trkpt lat="43.59996" lon="1.25487">
        <ele>214.2</ele>
        <time>2022-07-13T14:50:08Z</time>
      </trkpt>
      <trkpt lat="43.59998" lon="1.25494">
        <ele>214.2</ele>
        <time>2022-07-13T14:50:09Z</time>
      </trkpt>
      <trkpt lat="43.6" lon="1.25509">
        <ele>214.4</ele>
        <time>2022-07-13T14:50:11Z</time>
      </trkpt>
      <trkpt lat="43.6" lon="1.25517">
        <ele>214.4</ele>
        <time>2022-07-13T14:50:12Z</time>
      </trkpt>
      <trkpt lat="43.60001" lon="1.25569">
        <ele>214.8</ele>
        <time>2022-07-13T14:50:18Z</time>
      </trkpt>
      <trkpt lat="43.59998" lon="1.25625">
        <ele>214.8</ele>
        <time>2022-07-13T14:50:24Z</time>
      </trkpt>
      <trkpt lat="43.59992" lon="1.25704">
        <ele>214.6</ele>
        <time>2022-07-13T14:50:32Z</time>
      </trkpt>
      <trkpt lat="43.59991" lon="1.25714">
        <ele>214.6</ele>
        <time>2022-07-13T14:50:33Z</time>
      </trkpt>
      <trkpt lat="43.59984" lon="1.25794">
        <ele>214.2</ele>
        <time>2022-07-13T14:50:41Z</time>
      </trkpt>
      <trkpt lat="43.59979" lon="1.25834">
        <ele>214</ele>
        <time>2022-07-13T14:50:45Z</time>
      </trkpt>
      <trkpt lat="43.59969" lon="1.25912">
        <ele>214.6</ele>
        <time>2022-07-13T14:50:53Z</time>
      </trkpt>
      <trkpt lat="43.59968" lon="1.25922">
        <ele>214.6</ele>
        <time>2022-07-13T14:50:54Z</time>
      </trkpt>
      <trkpt lat="43.59954" lon="1.26002">
        <ele>214.4</ele>
        <time>2022-07-13T14:51:02Z</time>
      </trkpt>
      <trkpt lat="43.59951" lon="1.26021">
        <ele>214.2</ele>
        <time>2022-07-13T14:51:04Z</time>
      </trkpt>
      <trkpt lat="43.59937" lon="1.26085">
        <ele>214</ele>
        <time>2022-07-13T14:51:11Z</time>
      </trkpt>
      <trkpt lat="43.59929" lon="1.26121">
        <ele>213.8</ele>
        <time>2022-07-13T14:51:15Z</time>
      </trkpt>
      <trkpt lat="43.59927" lon="1.2613">
        <ele>213.6</ele>
        <time>2022-07-13T14:51:16Z</time>
      </trkpt>
      <trkpt lat="43.59917" lon="1.26187">
        <ele>213</ele>
        <time>2022-07-13T14:51:22Z</time>
      </trkpt>
      <trkpt lat="43.59909" lon="1.26234">
        <ele>213</ele>
        <time>2022-07-13T14:51:27Z</time>
      </trkpt>
      <trkpt lat="43.59906" lon="1.26243">
        <ele>213</ele>
        <time>2022-07-13T14:51:28Z</time>
      </trkpt>
      <trkpt lat="43.59904" lon="1.26251">
        <ele>213.4</ele>
        <time>2022-07-13T14:51:29Z</time>
      </trkpt>
      <trkpt lat="43.59905" lon="1.26269">
        <ele>213.4</ele>
        <time>2022-07-13T14:51:31Z</time>
      </trkpt>
      <trkpt lat="43.59909" lon="1.26287">
        <ele>213.4</ele>
        <time>2022-07-13T14:51:33Z</time>
      </trkpt>
      <trkpt lat="43.59909" lon="1.26316">
        <ele>213.4</ele>
        <time>2022-07-13T14:51:36Z</time>
      </trkpt>
      <trkpt lat="43.5991" lon="1.26398">
        <ele>213.4</ele>
        <time>2022-07-13T14:51:44Z</time>
      </trkpt>
      <trkpt lat="43.5991" lon="1.26407">
        <ele>213.4</ele>
        <time>2022-07-13T14:51:45Z</time>
      </trkpt>
      <trkpt lat="43.59908" lon="1.26482">
        <ele>213</ele>
        <time>2022-07-13T14:51:52Z</time>
      </trkpt>
      <trkpt lat="43.59908" lon="1.26493">
        <ele>212.8</ele>
        <time>2022-07-13T14:51:53Z</time>
      </trkpt>
      <trkpt lat="43.59903" lon="1.26557">
        <ele>211.8</ele>
        <time>2022-07-13T14:51:59Z</time>
      </trkpt>
      <trkpt lat="43.59904" lon="1.26631">
        <ele>210.6</ele>
        <time>2022-07-13T14:52:06Z</time>
      </trkpt>
      <trkpt lat="43.59909" lon="1.26714">
        <ele>209.8</ele>
        <time>2022-07-13T14:52:14Z</time>
      </trkpt>
      <trkpt lat="43.5991" lon="1.26735">
        <ele>209.6</ele>
        <time>2022-07-13T14:52:16Z</time>
      </trkpt>
      <trkpt lat="43.59908" lon="1.26787">
        <ele>208.8</ele>
        <time>2022-07-13T14:52:21Z</time>
      </trkpt>
      <trkpt lat="43.59905" lon="1.26808">
        <ele>208.6</ele>
        <time>2022-07-13T14:52:23Z</time>
      </trkpt>
      <trkpt lat="43.59893" lon="1.26859">
        <ele>207.6</ele>
        <time>2022-07-13T14:52:28Z</time>
      </trkpt>
      <trkpt lat="43.59886" lon="1.26892">
        <ele>207.2</ele>
        <time>2022-07-13T14:52:31Z</time>
      </trkpt>
      <trkpt lat="43.59871" lon="1.26938">
        <ele>207</ele>
        <time>2022-07-13T14:52:36Z</time>
      </trkpt>
      <trkpt lat="43.59844" lon="1.27008">
        <ele>206.8</ele>
        <time>2022-07-13T14:52:44Z</time>
      </trkpt>
      <trkpt lat="43.59831" lon="1.27043">
        <ele>206.6</ele>
        <time>2022-07-13T14:52:48Z</time>
      </trkpt>
      <trkpt lat="43.59823" lon="1.27073">
        <ele>206.6</ele>
        <time>2022-07-13T14:52:51Z</time>
      </trkpt>
      <trkpt lat="43.5982" lon="1.27095">
        <ele>206.4</ele>
        <time>2022-07-13T14:52:53Z</time>
      </trkpt>
      <trkpt lat="43.59818" lon="1.27119">
        <ele>206.2</ele>
        <time>2022-07-13T14:52:55Z</time>
      </trkpt>
      <trkpt lat="43.59812" lon="1.2719">
        <ele>205.8</ele>
        <time>2022-07-13T14:53:00Z</time>
      </trkpt>
      <trkpt lat="43.59806" lon="1.27222">
        <ele>205.4</ele>
        <time>2022-07-13T14:53:02Z</time>
      </trkpt>
      <trkpt lat="43.59797" lon="1.27255">
        <ele>204.6</ele>
        <time>2022-07-13T14:53:04Z</time>
      </trkpt>
      <trkpt lat="43.59792" lon="1.27272">
        <ele>204.2</ele>
        <time>2022-07-13T14:53:05Z</time>
      </trkpt>
      <trkpt lat="43.59781" lon="1.27305">
        <ele>202.4</ele>
        <time>2022-07-13T14:53:07Z</time>
      </trkpt>
      <trkpt lat="43.5977" lon="1.27337">
        <ele>201.2</ele>
        <time>2022-07-13T14:53:09Z</time>
      </trkpt>
      <trkpt lat="43.59765" lon="1.27352">
        <ele>200.2</ele>
        <time>2022-07-13T14:53:10Z</time>
      </trkpt>
      <trkpt lat="43.59755" lon="1.27382">
        <ele>199.2</ele>
        <time>2022-07-13T14:53:12Z</time>
      </trkpt>
      <trkpt lat="43.59739" lon="1.27426">
        <ele>197.6</ele>
        <time>2022-07-13T14:53:15Z</time>
      </trkpt>
      <trkpt lat="43.5973" lon="1.27453">
        <ele>196.6</ele>
        <time>2022-07-13T14:53:17Z</time>
      </trkpt>
      <trkpt lat="43.59716" lon="1.27492">
        <ele>195.4</ele>
        <time>2022-07-13T14:53:20Z</time>
      </trkpt>
      <trkpt lat="43.59704" lon="1.27528">
        <ele>194.4</ele>
        <time>2022-07-13T14:53:23Z</time>
      </trkpt>
      <trkpt lat="43.59692" lon="1.27562">
        <ele>193.2</ele>
        <time>2022-07-13T14:53:26Z</time>
      </trkpt>
      <trkpt lat="43.59689" lon="1.27572">
        <ele>193</ele>
        <time>2022-07-13T14:53:27Z</time>
      </trkpt>
      <trkpt lat="43.59683" lon="1.27593">
        <ele>192.6</ele>
        <time>2022-07-13T14:53:29Z</time>
      </trkpt>
      <trkpt lat="43.5967" lon="1.27633">
        <ele>192.2</ele>
        <time>2022-07-13T14:53:33Z</time>
      </trkpt>
      <trkpt lat="43.59665" lon="1.27651">
        <ele>191.6</ele>
        <time>2022-07-13T14:53:35Z</time>
      </trkpt>
      <trkpt lat="43.5966" lon="1.27669">
        <ele>191.2</ele>
        <time>2022-07-13T14:53:37Z</time>
      </trkpt>
      <trkpt lat="43.5965" lon="1.2768">
        <ele>190.8</ele>
        <time>2022-07-13T14:53:39Z</time>
      </trkpt>
      <trkpt lat="43.59637" lon="1.2768">
        <ele>190.4</ele>
        <time>2022-07-13T14:53:41Z</time>
      </trkpt>
      <trkpt lat="43.59631" lon="1.27677">
        <ele>190.2</ele>
        <time>2022-07-13T14:53:42Z</time>
      </trkpt>
      <trkpt lat="43.59624" lon="1.27675">
        <ele>190</ele>
        <time>2022-07-13T14:53:43Z</time>
      </trkpt>
      <trkpt lat="43.59618" lon="1.27675">
        <ele>189.6</ele>
        <time>2022-07-13T14:53:44Z</time>
      </trkpt>
      <trkpt lat="43.59612" lon="1.27677">
        <ele>189.4</ele>
        <time>2022-07-13T14:53:45Z</time>
      </trkpt>
      <trkpt lat="43.59602" lon="1.2769">
        <ele>189.2</ele>
        <time>2022-07-13T14:53:47Z</time>
      </trkpt>
      <trkpt lat="43.59599" lon="1.27699">
        <ele>189</ele>
        <time>2022-07-13T14:53:48Z</time>
      </trkpt>
      <trkpt lat="43.59597" lon="1.27709">
        <ele>188.8</ele>
        <time>2022-07-13T14:53:49Z</time>
      </trkpt>
      <trkpt lat="43.59585" lon="1.27747">
        <ele>188.2</ele>
        <time>2022-07-13T14:53:53Z</time>
      </trkpt>
      <trkpt lat="43.59578" lon="1.27766">
        <ele>187.6</ele>
        <time>2022-07-13T14:53:55Z</time>
      </trkpt>
      <trkpt lat="43.59564" lon="1.27807">
        <ele>186.8</ele>
        <time>2022-07-13T14:53:59Z</time>
      </trkpt>
      <trkpt lat="43.59556" lon="1.27826">
        <ele>186.4</ele>
        <time>2022-07-13T14:54:01Z</time>
      </trkpt>
      <trkpt lat="43.59532" lon="1.27884">
        <ele>185.2</ele>
        <time>2022-07-13T14:54:07Z</time>
      </trkpt>
      <trkpt lat="43.5951" lon="1.27926">
        <ele>184.2</ele>
        <time>2022-07-13T14:54:12Z</time>
      </trkpt>
      <trkpt lat="43.59503" lon="1.27942">
        <ele>183.8</ele>
        <time>2022-07-13T14:54:14Z</time>
      </trkpt>
      <trkpt lat="43.59495" lon="1.27966">
        <ele>183.6</ele>
        <time>2022-07-13T14:54:17Z</time>
      </trkpt>
      <trkpt lat="43.59492" lon="1.27983">
        <ele>183.6</ele>
        <time>2022-07-13T14:54:19Z</time>
      </trkpt>
      <trkpt lat="43.59485" lon="1.28037">
        <ele>183.8</ele>
        <time>2022-07-13T14:54:25Z</time>
      </trkpt>
      <trkpt lat="43.59478" lon="1.28096">
        <ele>184</ele>
        <time>2022-07-13T14:54:32Z</time>
      </trkpt>
      <trkpt lat="43.59471" lon="1.28146">
        <ele>184.4</ele>
        <time>2022-07-13T14:54:39Z</time>
      </trkpt>
      <trkpt lat="43.59463" lon="1.28183">
        <ele>185</ele>
        <time>2022-07-13T14:54:45Z</time>
      </trkpt>
      <trkpt lat="43.59458" lon="1.282">
        <ele>185.4</ele>
        <time>2022-07-13T14:54:48Z</time>
      </trkpt>
      <trkpt lat="43.59452" lon="1.28221">
        <ele>186.2</ele>
        <time>2022-07-13T14:54:52Z</time>
      </trkpt>
      <trkpt lat="43.59451" lon="1.28226">
        <ele>186.6</ele>
        <time>2022-07-13T14:54:53Z</time>
      </trkpt>
      <trkpt lat="43.59449" lon="1.28231">
        <ele>186.8</ele>
        <time>2022-07-13T14:54:54Z</time>
      </trkpt>
      <trkpt lat="43.59444" lon="1.2824">
        <ele>187.2</ele>
        <time>2022-07-13T14:54:56Z</time>
      </trkpt>
      <trkpt lat="43.59442" lon="1.28244">
        <ele>187.2</ele>
        <time>2022-07-13T14:54:57Z</time>
      </trkpt>
      <trkpt lat="43.59439" lon="1.28253">
        <ele>187.8</ele>
        <time>2022-07-13T14:54:59Z</time>
      </trkpt>
      <trkpt lat="43.5943" lon="1.28276">
        <ele>189</ele>
        <time>2022-07-13T14:55:04Z</time>
      </trkpt>
      <trkpt lat="43.59416" lon="1.28303">
        <ele>190</ele>
        <time>2022-07-13T14:55:10Z</time>
      </trkpt>
      <trkpt lat="43.59402" lon="1.28325">
        <ele>191.2</ele>
        <time>2022-07-13T14:55:15Z</time>
      </trkpt>
      <trkpt lat="43.59388" lon="1.28339">
        <ele>192.2</ele>
        <time>2022-07-13T14:55:19Z</time>
      </trkpt>
      <trkpt lat="43.59385" lon="1.28343">
        <ele>192.6</ele>
        <time>2022-07-13T14:55:20Z</time>
      </trkpt>
      <trkpt lat="43.59376" lon="1.28356">
        <ele>193.4</ele>
        <time>2022-07-13T14:55:23Z</time>
      </trkpt>
      <trkpt lat="43.5937" lon="1.28365">
        <ele>194</ele>
        <time>2022-07-13T14:55:25Z</time>
      </trkpt>
      <trkpt lat="43.59365" lon="1.28373">
        <ele>194.6</ele>
        <time>2022-07-13T14:55:27Z</time>
      </trkpt>
      <trkpt lat="43.59352" lon="1.28391">
        <ele>195.6</ele>
        <time>2022-07-13T14:55:31Z</time>
      </trkpt>
      <trkpt lat="43.59348" lon="1.28395">
        <ele>195.8</ele>
        <time>2022-07-13T14:55:32Z</time>
      </trkpt>
      <trkpt lat="43.59344" lon="1.28398">
        <ele>196.2</ele>
        <time>2022-07-13T14:55:33Z</time>
      </trkpt>
      <trkpt lat="43.59334" lon="1.28411">
        <ele>196.8</ele>
        <time>2022-07-13T14:55:36Z</time>
      </trkpt>
      <trkpt lat="43.59331" lon="1.28416">
        <ele>196.8</ele>
        <time>2022-07-13T14:55:37Z</time>
      </trkpt>
      <trkpt lat="43.59317" lon="1.28434">
        <ele>197.8</ele>
        <time>2022-07-13T14:55:42Z</time>
      </trkpt>
      <trkpt lat="43.59308" lon="1.28445">
        <ele>198.2</ele>
        <time>2022-07-13T14:55:45Z</time>
      </trkpt>
      <trkpt lat="43.59293" lon="1.28463">
        <ele>199</ele>
        <time>2022-07-13T14:55:50Z</time>
      </trkpt>
      <trkpt lat="43.59287" lon="1.28469">
        <ele>199.4</ele>
        <time>2022-07-13T14:55:52Z</time>
      </trkpt>
      <trkpt lat="43.5927" lon="1.28485">
        <ele>200.2</ele>
        <time>2022-07-13T14:55:57Z</time>
      </trkpt>
      <trkpt lat="43.59259" lon="1.28493">
        <ele>200.8</ele>
        <time>2022-07-13T14:56:00Z</time>
      </trkpt>
      <trkpt lat="43.59235" lon="1.28519">
        <ele>200.8</ele>
        <time>2022-07-13T14:56:08Z</time>
      </trkpt>
      <trkpt lat="43.59217" lon="1.28526">
        <ele>200.8</ele>
        <time>2022-07-13T14:56:13Z</time>
      </trkpt>
      <trkpt lat="43.59196" lon="1.28525">
        <ele>200.6</ele>
        <time>2022-07-13T14:56:18Z</time>
      </trkpt>
      <trkpt lat="43.59166" lon="1.28507">
        <ele>200.8</ele>
        <time>2022-07-13T14:56:25Z</time>
      </trkpt>
      <trkpt lat="43.59127" lon="1.28474">
        <ele>200.8</ele>
        <time>2022-07-13T14:56:33Z</time>
      </trkpt>
      <trkpt lat="43.59093" lon="1.28437">
        <ele>201</ele>
        <time>2022-07-13T14:56:40Z</time>
      </trkpt>
      <trkpt lat="43.59071" lon="1.28396">
        <ele>201.4</ele>
        <time>2022-07-13T14:56:46Z</time>
      </trkpt>
      <trkpt lat="43.59068" lon="1.28389">
        <ele>201.4</ele>
        <time>2022-07-13T14:56:47Z</time>
      </trkpt>
      <trkpt lat="43.59048" lon="1.28325">
        <ele>202</ele>
        <time>2022-07-13T14:56:55Z</time>
      </trkpt>
      <trkpt lat="43.59024" lon="1.28252">
        <ele>202.2</ele>
        <time>2022-07-13T14:57:04Z</time>
      </trkpt>
      <trkpt lat="43.59018" lon="1.28236">
        <ele>202.4</ele>
        <time>2022-07-13T14:57:06Z</time>
      </trkpt>
      <trkpt lat="43.59014" lon="1.28229">
        <ele>202.6</ele>
        <time>2022-07-13T14:57:07Z</time>
      </trkpt>
      <trkpt lat="43.58986" lon="1.28176">
        <ele>203</ele>
        <time>2022-07-13T14:57:14Z</time>
      </trkpt>
      <trkpt lat="43.58954" lon="1.28137">
        <ele>203.2</ele>
        <time>2022-07-13T14:57:20Z</time>
      </trkpt>
      <trkpt lat="43.58906" lon="1.28091">
        <ele>203.2</ele>
        <time>2022-07-13T14:57:28Z</time>
      </trkpt>
      <trkpt lat="43.58894" lon="1.28079">
        <ele>203.2</ele>
        <time>2022-07-13T14:57:30Z</time>
      </trkpt>
      <trkpt lat="43.58853" lon="1.28048">
        <ele>203.4</ele>
        <time>2022-07-13T14:57:36Z</time>
      </trkpt>
      <trkpt lat="43.58846" lon="1.28044">
        <ele>203.4</ele>
        <time>2022-07-13T14:57:37Z</time>
      </trkpt>
      <trkpt lat="43.58799" lon="1.28028">
        <ele>203.6</ele>
        <time>2022-07-13T14:57:43Z</time>
      </trkpt>
      <trkpt lat="43.5875" lon="1.28026">
        <ele>203.6</ele>
        <time>2022-07-13T14:57:49Z</time>
      </trkpt>
      <trkpt lat="43.58695" lon="1.28031">
        <ele>203.2</ele>
        <time>2022-07-13T14:57:56Z</time>
      </trkpt>
      <trkpt lat="43.58679" lon="1.28032">
        <ele>203.2</ele>
        <time>2022-07-13T14:57:58Z</time>
      </trkpt>
      <trkpt lat="43.58655" lon="1.2803">
        <ele>203.2</ele>
        <time>2022-07-13T14:58:01Z</time>
      </trkpt>
      <trkpt lat="43.58632" lon="1.28024">
        <ele>203.2</ele>
        <time>2022-07-13T14:58:04Z</time>
      </trkpt>
      <trkpt lat="43.58591" lon="1.28004">
        <ele>203.2</ele>
        <time>2022-07-13T14:58:10Z</time>
      </trkpt>
      <trkpt lat="43.58572" lon="1.27991">
        <ele>203.4</ele>
        <time>2022-07-13T14:58:13Z</time>
      </trkpt>
      <trkpt lat="43.58555" lon="1.27975">
        <ele>203.4</ele>
        <time>2022-07-13T14:58:16Z</time>
      </trkpt>
      <trkpt lat="43.5851" lon="1.27932">
        <ele>203.6</ele>
        <time>2022-07-13T14:58:24Z</time>
      </trkpt>
      <trkpt lat="43.58499" lon="1.27921">
        <ele>203.8</ele>
        <time>2022-07-13T14:58:26Z</time>
      </trkpt>
      <trkpt lat="43.58452" lon="1.27876">
        <ele>204.2</ele>
        <time>2022-07-13T14:58:34Z</time>
      </trkpt>
      <trkpt lat="43.58434" lon="1.27859">
        <ele>204.4</ele>
        <time>2022-07-13T14:58:37Z</time>
      </trkpt>
      <trkpt lat="43.58385" lon="1.27815">
        <ele>204.6</ele>
        <time>2022-07-13T14:58:45Z</time>
      </trkpt>
      <trkpt lat="43.58366" lon="1.27799">
        <ele>204.4</ele>
        <time>2022-07-13T14:58:48Z</time>
      </trkpt>
      <trkpt lat="43.58339" lon="1.2777">
        <ele>204</ele>
        <time>2022-07-13T14:58:53Z</time>
      </trkpt>
      <trkpt lat="43.58334" lon="1.27767">
        <ele>204</ele>
        <time>2022-07-13T14:58:54Z</time>
      </trkpt>
      <trkpt lat="43.58328" lon="1.27767">
        <ele>204</ele>
        <time>2022-07-13T14:58:55Z</time>
      </trkpt>
      <trkpt lat="43.58324" lon="1.27772">
        <ele>203.8</ele>
        <time>2022-07-13T14:58:56Z</time>
      </trkpt>
      <trkpt lat="43.58321" lon="1.27787">
        <ele>204.2</ele>
        <time>2022-07-13T14:58:58Z</time>
      </trkpt>
      <trkpt lat="43.58322" lon="1.27796">
        <ele>204.2</ele>
        <time>2022-07-13T14:58:59Z</time>
      </trkpt>
      <trkpt lat="43.58324" lon="1.27822">
        <ele>204.6</ele>
        <time>2022-07-13T14:59:02Z</time>
      </trkpt>
      <trkpt lat="43.58326" lon="1.2785">
        <ele>205.2</ele>
        <time>2022-07-13T14:59:05Z</time>
      </trkpt>
      <trkpt lat="43.58322" lon="1.27869">
        <ele>205.4</ele>
        <time>2022-07-13T14:59:07Z</time>
      </trkpt>
      <trkpt lat="43.58319" lon="1.27878">
        <ele>205.8</ele>
        <time>2022-07-13T14:59:08Z</time>
      </trkpt>
      <trkpt lat="43.58316" lon="1.27886">
        <ele>206</ele>
        <time>2022-07-13T14:59:09Z</time>
      </trkpt>
      <trkpt lat="43.58295" lon="1.27923">
        <ele>206.4</ele>
        <time>2022-07-13T14:59:14Z</time>
      </trkpt>
      <trkpt lat="43.5826" lon="1.27982">
        <ele>206.6</ele>
        <time>2022-07-13T14:59:22Z</time>
      </trkpt>
      <trkpt lat="43.5822" lon="1.28039">
        <ele>206.6</ele>
        <time>2022-07-13T14:59:30Z</time>
      </trkpt>
      <trkpt lat="43.58215" lon="1.28046">
        <ele>206.6</ele>
        <time>2022-07-13T14:59:31Z</time>
      </trkpt>
      <trkpt lat="43.58175" lon="1.281">
        <ele>206.6</ele>
        <time>2022-07-13T14:59:39Z</time>
      </trkpt>
      <trkpt lat="43.5816" lon="1.2812">
        <ele>206.8</ele>
        <time>2022-07-13T14:59:42Z</time>
      </trkpt>
      <trkpt lat="43.58117" lon="1.28173">
        <ele>206.8</ele>
        <time>2022-07-13T14:59:50Z</time>
      </trkpt>
      <trkpt lat="43.58111" lon="1.2818">
        <ele>206.8</ele>
        <time>2022-07-13T14:59:51Z</time>
      </trkpt>
      <trkpt lat="43.58105" lon="1.28186">
        <ele>206.8</ele>
        <time>2022-07-13T14:59:52Z</time>
      </trkpt>
      <trkpt lat="43.58061" lon="1.28237">
        <ele>206.6</ele>
        <time>2022-07-13T15:00:00Z</time>
      </trkpt>
      <trkpt lat="43.58056" lon="1.28244">
        <ele>206.6</ele>
        <time>2022-07-13T15:00:01Z</time>
      </trkpt>
      <trkpt lat="43.58037" lon="1.28283">
        <ele>206.6</ele>
        <time>2022-07-13T15:00:06Z</time>
      </trkpt>
      <trkpt lat="43.58009" lon="1.28349">
        <ele>207.2</ele>
        <time>2022-07-13T15:00:14Z</time>
      </trkpt>
      <trkpt lat="43.5799" lon="1.2839">
        <ele>207.6</ele>
        <time>2022-07-13T15:00:19Z</time>
      </trkpt>
      <trkpt lat="43.57972" lon="1.28432">
        <ele>208</ele>
        <time>2022-07-13T15:00:24Z</time>
      </trkpt>
      <trkpt lat="43.5796" lon="1.28457">
        <ele>208.2</ele>
        <time>2022-07-13T15:00:27Z</time>
      </trkpt>
      <trkpt lat="43.57934" lon="1.28522">
        <ele>208.8</ele>
        <time>2022-07-13T15:00:35Z</time>
      </trkpt>
      <trkpt lat="43.57931" lon="1.28529">
        <ele>209</ele>
        <time>2022-07-13T15:00:36Z</time>
      </trkpt>
      <trkpt lat="43.57931" lon="1.28545">
        <ele>209</ele>
        <time>2022-07-13T15:00:38Z</time>
      </trkpt>
      <trkpt lat="43.57934" lon="1.28552">
        <ele>209</ele>
        <time>2022-07-13T15:00:39Z</time>
      </trkpt>
      <trkpt lat="43.57962" lon="1.28598">
        <ele>209.4</ele>
        <time>2022-07-13T15:00:45Z</time>
      </trkpt>
      <trkpt lat="43.57998" lon="1.28658">
        <ele>210</ele>
        <time>2022-07-13T15:00:53Z</time>
      </trkpt>
      <trkpt lat="43.58003" lon="1.28665">
        <ele>210</ele>
        <time>2022-07-13T15:00:54Z</time>
      </trkpt>
      <trkpt lat="43.58012" lon="1.28681">
        <ele>210.2</ele>
        <time>2022-07-13T15:00:56Z</time>
      </trkpt>
      <trkpt lat="43.58043" lon="1.28747">
        <ele>210.6</ele>
        <time>2022-07-13T15:01:04Z</time>
      </trkpt>
      <trkpt lat="43.58059" lon="1.28801">
        <ele>210.4</ele>
        <time>2022-07-13T15:01:10Z</time>
      </trkpt>
      <trkpt lat="43.58068" lon="1.28867">
        <ele>210.2</ele>
        <time>2022-07-13T15:01:17Z</time>
      </trkpt>
      <trkpt lat="43.58073" lon="1.28921">
        <ele>210.2</ele>
        <time>2022-07-13T15:01:23Z</time>
      </trkpt>
      <trkpt lat="43.58081" lon="1.28988">
        <ele>210.2</ele>
        <time>2022-07-13T15:01:31Z</time>
      </trkpt>
      <trkpt lat="43.58081" lon="1.28994">
        <ele>210.2</ele>
        <time>2022-07-13T15:01:32Z</time>
      </trkpt>
      <trkpt lat="43.58079" lon="1.29002">
        <ele>210.2</ele>
        <time>2022-07-13T15:01:34Z</time>
      </trkpt>
      <trkpt lat="43.58079" lon="1.29005">
        <ele>210</ele>
        <time>2022-07-13T15:01:38Z</time>
      </trkpt>
      <trkpt lat="43.5808" lon="1.29009">
        <ele>209.2</ele>
        <time>2022-07-13T15:01:52Z</time>
      </trkpt>
      <trkpt lat="43.58082" lon="1.29018">
        <ele>209.2</ele>
        <time>2022-07-13T15:01:54Z</time>
      </trkpt>
      <trkpt lat="43.58084" lon="1.2903">
        <ele>209</ele>
        <time>2022-07-13T15:01:56Z</time>
      </trkpt>
      <trkpt lat="43.58085" lon="1.29045">
        <ele>209</ele>
        <time>2022-07-13T15:01:58Z</time>
      </trkpt>
      <trkpt lat="43.58091" lon="1.29099">
        <ele>209.2</ele>
        <time>2022-07-13T15:02:05Z</time>
      </trkpt>
      <trkpt lat="43.5809" lon="1.29114">
        <ele>209.2</ele>
        <time>2022-07-13T15:02:07Z</time>
      </trkpt>
      <trkpt lat="43.58088" lon="1.29122">
        <ele>209.2</ele>
        <time>2022-07-13T15:02:08Z</time>
      </trkpt>
      <trkpt lat="43.58085" lon="1.29129">
        <ele>209.4</ele>
        <time>2022-07-13T15:02:09Z</time>
      </trkpt>
      <trkpt lat="43.58067" lon="1.29161">
        <ele>209.2</ele>
        <time>2022-07-13T15:02:14Z</time>
      </trkpt>
      <trkpt lat="43.58043" lon="1.29208">
        <ele>209</ele>
        <time>2022-07-13T15:02:21Z</time>
      </trkpt>
      <trkpt lat="43.58013" lon="1.29264">
        <ele>208.4</ele>
        <time>2022-07-13T15:02:29Z</time>
      </trkpt>
      <trkpt lat="43.58001" lon="1.29286">
        <ele>208.4</ele>
        <time>2022-07-13T15:02:32Z</time>
      </trkpt>
      <trkpt lat="43.57978" lon="1.2933">
        <ele>208.4</ele>
        <time>2022-07-13T15:02:38Z</time>
      </trkpt>
      <trkpt lat="43.57948" lon="1.29391">
        <ele>208.4</ele>
        <time>2022-07-13T15:02:46Z</time>
      </trkpt>
      <trkpt lat="43.57938" lon="1.29415">
        <ele>208.4</ele>
        <time>2022-07-13T15:02:49Z</time>
      </trkpt>
      <trkpt lat="43.57934" lon="1.2943">
        <ele>208.8</ele>
        <time>2022-07-13T15:02:51Z</time>
      </trkpt>
      <trkpt lat="43.5793" lon="1.29446">
        <ele>208.8</ele>
        <time>2022-07-13T15:02:53Z</time>
      </trkpt>
      <trkpt lat="43.57923" lon="1.29454">
        <ele>208.8</ele>
        <time>2022-07-13T15:02:55Z</time>
      </trkpt>
      <trkpt lat="43.57915" lon="1.29453">
        <ele>208.8</ele>
        <time>2022-07-13T15:02:57Z</time>
      </trkpt>
      <trkpt lat="43.5791" lon="1.2945">
        <ele>208.8</ele>
        <time>2022-07-13T15:02:58Z</time>
      </trkpt>
      <trkpt lat="43.57879" lon="1.29424">
        <ele>208.4</ele>
        <time>2022-07-13T15:03:04Z</time>
      </trkpt>
      <trkpt lat="43.57851" lon="1.29404">
        <ele>208</ele>
        <time>2022-07-13T15:03:09Z</time>
      </trkpt>
      <trkpt lat="43.57842" lon="1.29393">
        <ele>208</ele>
        <time>2022-07-13T15:03:11Z</time>
      </trkpt>
      <trkpt lat="43.57837" lon="1.29388">
        <ele>208</ele>
        <time>2022-07-13T15:03:12Z</time>
      </trkpt>
      <trkpt lat="43.57827" lon="1.29379">
        <ele>208</ele>
        <time>2022-07-13T15:03:14Z</time>
      </trkpt>
      <trkpt lat="43.57822" lon="1.29374">
        <ele>208</ele>
        <time>2022-07-13T15:03:15Z</time>
      </trkpt>
      <trkpt lat="43.57781" lon="1.29344">
        <ele>207.6</ele>
        <time>2022-07-13T15:03:23Z</time>
      </trkpt>
      <trkpt lat="43.57771" lon="1.29336">
        <ele>207.4</ele>
        <time>2022-07-13T15:03:25Z</time>
      </trkpt>
      <trkpt lat="43.57755" lon="1.29325">
        <ele>207.2</ele>
        <time>2022-07-13T15:03:28Z</time>
      </trkpt>
      <trkpt lat="43.57744" lon="1.29326">
        <ele>207</ele>
        <time>2022-07-13T15:03:30Z</time>
      </trkpt>
      <trkpt lat="43.57738" lon="1.29337">
        <ele>207</ele>
        <time>2022-07-13T15:03:32Z</time>
      </trkpt>
      <trkpt lat="43.57732" lon="1.29351">
        <ele>207</ele>
        <time>2022-07-13T15:03:34Z</time>
      </trkpt>
      <trkpt lat="43.5773" lon="1.29358">
        <ele>207</ele>
        <time>2022-07-13T15:03:35Z</time>
      </trkpt>
      <trkpt lat="43.57718" lon="1.29396">
        <ele>207</ele>
        <time>2022-07-13T15:03:40Z</time>
      </trkpt>
      <trkpt lat="43.57706" lon="1.29431">
        <ele>206.4</ele>
        <time>2022-07-13T15:03:45Z</time>
      </trkpt>
      <trkpt lat="43.57698" lon="1.29451">
        <ele>206.2</ele>
        <time>2022-07-13T15:03:48Z</time>
      </trkpt>
      <trkpt lat="43.57689" lon="1.29478">
        <ele>205.4</ele>
        <time>2022-07-13T15:03:52Z</time>
      </trkpt>
      <trkpt lat="43.57687" lon="1.29485">
        <ele>205.2</ele>
        <time>2022-07-13T15:03:53Z</time>
      </trkpt>
      <trkpt lat="43.57685" lon="1.29492">
        <ele>205.2</ele>
        <time>2022-07-13T15:03:54Z</time>
      </trkpt>
      <trkpt lat="43.57673" lon="1.29541">
        <ele>204.4</ele>
        <time>2022-07-13T15:04:01Z</time>
      </trkpt>
      <trkpt lat="43.5767" lon="1.29555">
        <ele>204.2</ele>
        <time>2022-07-13T15:04:03Z</time>
      </trkpt>
      <trkpt lat="43.57666" lon="1.2958">
        <ele>204.4</ele>
        <time>2022-07-13T15:04:06Z</time>
      </trkpt>
      <trkpt lat="43.57655" lon="1.29632">
        <ele>204.4</ele>
        <time>2022-07-13T15:04:12Z</time>
      </trkpt>
      <trkpt lat="43.57648" lon="1.29658">
        <ele>204.2</ele>
        <time>2022-07-13T15:04:16Z</time>
      </trkpt>
      <trkpt lat="43.57639" lon="1.29697">
        <ele>203.6</ele>
        <time>2022-07-13T15:04:22Z</time>
      </trkpt>
      <trkpt lat="43.57635" lon="1.29711">
        <ele>203.2</ele>
        <time>2022-07-13T15:04:24Z</time>
      </trkpt>
      <trkpt lat="43.57627" lon="1.29743">
        <ele>202.8</ele>
        <time>2022-07-13T15:04:28Z</time>
      </trkpt>
      <trkpt lat="43.57616" lon="1.29794">
        <ele>202.6</ele>
        <time>2022-07-13T15:04:33Z</time>
      </trkpt>
      <trkpt lat="43.57605" lon="1.29841">
        <ele>201.8</ele>
        <time>2022-07-13T15:04:37Z</time>
      </trkpt>
      <trkpt lat="43.57601" lon="1.29864">
        <ele>201.2</ele>
        <time>2022-07-13T15:04:39Z</time>
      </trkpt>
      <trkpt lat="43.57598" lon="1.29873">
        <ele>201</ele>
        <time>2022-07-13T15:04:40Z</time>
      </trkpt>
      <trkpt lat="43.57595" lon="1.29883">
        <ele>200.6</ele>
        <time>2022-07-13T15:04:41Z</time>
      </trkpt>
      <trkpt lat="43.5759" lon="1.29892">
        <ele>200.2</ele>
        <time>2022-07-13T15:04:42Z</time>
      </trkpt>
      <trkpt lat="43.57585" lon="1.29901">
        <ele>200</ele>
        <time>2022-07-13T15:04:43Z</time>
      </trkpt>
      <trkpt lat="43.57575" lon="1.29921">
        <ele>199.6</ele>
        <time>2022-07-13T15:04:45Z</time>
      </trkpt>
      <trkpt lat="43.57554" lon="1.29958">
        <ele>198.4</ele>
        <time>2022-07-13T15:04:49Z</time>
      </trkpt>
      <trkpt lat="43.57549" lon="1.29967">
        <ele>198</ele>
        <time>2022-07-13T15:04:50Z</time>
      </trkpt>
      <trkpt lat="43.57539" lon="1.29985">
        <ele>197</ele>
        <time>2022-07-13T15:04:52Z</time>
      </trkpt>
      <trkpt lat="43.57516" lon="1.30031">
        <ele>195.6</ele>
        <time>2022-07-13T15:04:57Z</time>
      </trkpt>
      <trkpt lat="43.575" lon="1.30057">
        <ele>194.6</ele>
        <time>2022-07-13T15:05:00Z</time>
      </trkpt>
      <trkpt lat="43.57496" lon="1.30066">
        <ele>194.2</ele>
        <time>2022-07-13T15:05:01Z</time>
      </trkpt>
      <trkpt lat="43.57482" lon="1.30093">
        <ele>193.6</ele>
        <time>2022-07-13T15:05:04Z</time>
      </trkpt>
      <trkpt lat="43.57468" lon="1.30119">
        <ele>192.8</ele>
        <time>2022-07-13T15:05:07Z</time>
      </trkpt>
      <trkpt lat="43.57463" lon="1.30128">
        <ele>192.8</ele>
        <time>2022-07-13T15:05:08Z</time>
      </trkpt>
      <trkpt lat="43.57455" lon="1.30145">
        <ele>192.6</ele>
        <time>2022-07-13T15:05:10Z</time>
      </trkpt>
      <trkpt lat="43.57429" lon="1.30195">
        <ele>191.6</ele>
        <time>2022-07-13T15:05:16Z</time>
      </trkpt>
      <trkpt lat="43.5742" lon="1.30211">
        <ele>190.8</ele>
        <time>2022-07-13T15:05:18Z</time>
      </trkpt>
      <trkpt lat="43.57416" lon="1.3022">
        <ele>190.4</ele>
        <time>2022-07-13T15:05:19Z</time>
      </trkpt>
      <trkpt lat="43.57398" lon="1.30253">
        <ele>189.4</ele>
        <time>2022-07-13T15:05:23Z</time>
      </trkpt>
      <trkpt lat="43.57389" lon="1.3027">
        <ele>189.4</ele>
        <time>2022-07-13T15:05:25Z</time>
      </trkpt>
      <trkpt lat="43.57371" lon="1.30303">
        <ele>188.4</ele>
        <time>2022-07-13T15:05:29Z</time>
      </trkpt>
      <trkpt lat="43.57348" lon="1.3035">
        <ele>188</ele>
        <time>2022-07-13T15:05:35Z</time>
      </trkpt>
      <trkpt lat="43.57332" lon="1.3038">
        <ele>187.6</ele>
        <time>2022-07-13T15:05:39Z</time>
      </trkpt>
      <trkpt lat="43.57325" lon="1.30394">
        <ele>187.2</ele>
        <time>2022-07-13T15:05:41Z</time>
      </trkpt>
      <trkpt lat="43.57314" lon="1.30414">
        <ele>186.8</ele>
        <time>2022-07-13T15:05:44Z</time>
      </trkpt>
      <trkpt lat="43.57311" lon="1.30424">
        <ele>186.8</ele>
        <time>2022-07-13T15:05:46Z</time>
      </trkpt>
      <trkpt lat="43.57311" lon="1.30428">
        <ele>186.8</ele>
        <time>2022-07-13T15:05:47Z</time>
      </trkpt>
      <trkpt lat="43.57313" lon="1.30435">
        <ele>186.4</ele>
        <time>2022-07-13T15:05:49Z</time>
      </trkpt>
      <trkpt lat="43.5733" lon="1.30452">
        <ele>185</ele>
        <time>2022-07-13T15:05:54Z</time>
      </trkpt>
      <trkpt lat="43.5736" lon="1.30483">
        <ele>184.6</ele>
        <time>2022-07-13T15:06:01Z</time>
      </trkpt>
      <trkpt lat="43.57392" lon="1.30517">
        <ele>184.8</ele>
        <time>2022-07-13T15:06:08Z</time>
      </trkpt>
      <trkpt lat="43.57433" lon="1.30561">
        <ele>185</ele>
        <time>2022-07-13T15:06:17Z</time>
      </trkpt>
      <trkpt lat="43.57466" lon="1.30595">
        <ele>185</ele>
        <time>2022-07-13T15:06:24Z</time>
      </trkpt>
      <trkpt lat="43.57486" lon="1.30614">
        <ele>185</ele>
        <time>2022-07-13T15:06:28Z</time>
      </trkpt>
      <trkpt lat="43.57506" lon="1.30636">
        <ele>185</ele>
        <time>2022-07-13T15:06:32Z</time>
      </trkpt>
      <trkpt lat="43.5755" lon="1.30687">
        <ele>185</ele>
        <time>2022-07-13T15:06:41Z</time>
      </trkpt>
      <trkpt lat="43.57591" lon="1.3074">
        <ele>185</ele>
        <time>2022-07-13T15:06:50Z</time>
      </trkpt>
      <trkpt lat="43.57595" lon="1.30746">
        <ele>185</ele>
        <time>2022-07-13T15:06:51Z</time>
      </trkpt>
      <trkpt lat="43.57637" lon="1.30799">
        <ele>184.8</ele>
        <time>2022-07-13T15:07:00Z</time>
      </trkpt>
      <trkpt lat="43.5768" lon="1.30848">
        <ele>184.4</ele>
        <time>2022-07-13T15:07:09Z</time>
      </trkpt>
      <trkpt lat="43.57724" lon="1.30895">
        <ele>184.4</ele>
        <time>2022-07-13T15:07:18Z</time>
      </trkpt>
      <trkpt lat="43.5777" lon="1.30944">
        <ele>184.4</ele>
        <time>2022-07-13T15:07:27Z</time>
      </trkpt>
      <trkpt lat="43.57775" lon="1.30949">
        <ele>184.4</ele>
        <time>2022-07-13T15:07:28Z</time>
      </trkpt>
      <trkpt lat="43.57822" lon="1.30998">
        <ele>184.2</ele>
        <time>2022-07-13T15:07:37Z</time>
      </trkpt>
      <trkpt lat="43.57827" lon="1.31003">
        <ele>184.2</ele>
        <time>2022-07-13T15:07:38Z</time>
      </trkpt>
      <trkpt lat="43.57872" lon="1.31049">
        <ele>184.2</ele>
        <time>2022-07-13T15:07:47Z</time>
      </trkpt>
      <trkpt lat="43.57876" lon="1.31053">
        <ele>184</ele>
        <time>2022-07-13T15:07:48Z</time>
      </trkpt>
      <trkpt lat="43.57922" lon="1.311">
        <ele>184.4</ele>
        <time>2022-07-13T15:07:57Z</time>
      </trkpt>
      <trkpt lat="43.57938" lon="1.31117">
        <ele>184.4</ele>
        <time>2022-07-13T15:08:00Z</time>
      </trkpt>
      <trkpt lat="43.57982" lon="1.31167">
        <ele>184.4</ele>
        <time>2022-07-13T15:08:09Z</time>
      </trkpt>
      <trkpt lat="43.57996" lon="1.31184">
        <ele>184.4</ele>
        <time>2022-07-13T15:08:12Z</time>
      </trkpt>
      <trkpt lat="43.58022" lon="1.31217">
        <ele>184.2</ele>
        <time>2022-07-13T15:08:18Z</time>
      </trkpt>
      <trkpt lat="43.5803" lon="1.3123">
        <ele>184</ele>
        <time>2022-07-13T15:08:20Z</time>
      </trkpt>
      <trkpt lat="43.58034" lon="1.31237">
        <ele>184</ele>
        <time>2022-07-13T15:08:21Z</time>
      </trkpt>
      <trkpt lat="43.58048" lon="1.31253">
        <ele>184</ele>
        <time>2022-07-13T15:08:24Z</time>
      </trkpt>
      <trkpt lat="43.58079" lon="1.31293">
        <ele>183.8</ele>
        <time>2022-07-13T15:08:31Z</time>
      </trkpt>
      <trkpt lat="43.58114" lon="1.31342">
        <ele>183.8</ele>
        <time>2022-07-13T15:08:39Z</time>
      </trkpt>
      <trkpt lat="43.58118" lon="1.31348">
        <ele>183.8</ele>
        <time>2022-07-13T15:08:40Z</time>
      </trkpt>
      <trkpt lat="43.58158" lon="1.31403">
        <ele>183.8</ele>
        <time>2022-07-13T15:08:49Z</time>
      </trkpt>
      <trkpt lat="43.58163" lon="1.31409">
        <ele>183.8</ele>
        <time>2022-07-13T15:08:50Z</time>
      </trkpt>
      <trkpt lat="43.58205" lon="1.31467">
        <ele>184.2</ele>
        <time>2022-07-13T15:09:00Z</time>
      </trkpt>
      <trkpt lat="43.58213" lon="1.31476">
        <ele>184.4</ele>
        <time>2022-07-13T15:09:02Z</time>
      </trkpt>
      <trkpt lat="43.58235" lon="1.315">
        <ele>185</ele>
        <time>2022-07-13T15:09:08Z</time>
      </trkpt>
      <trkpt lat="43.58257" lon="1.31517">
        <ele>186.2</ele>
        <time>2022-07-13T15:09:15Z</time>
      </trkpt>
      <trkpt lat="43.58279" lon="1.31537">
        <ele>187</ele>
        <time>2022-07-13T15:09:22Z</time>
      </trkpt>
      <trkpt lat="43.58281" lon="1.3154">
        <ele>187.2</ele>
        <time>2022-07-13T15:09:23Z</time>
      </trkpt>
      <trkpt lat="43.58302" lon="1.31561">
        <ele>188.2</ele>
        <time>2022-07-13T15:09:31Z</time>
      </trkpt>
      <trkpt lat="43.58312" lon="1.31571">
        <ele>189.2</ele>
        <time>2022-07-13T15:09:36Z</time>
      </trkpt>
      <trkpt lat="43.58314" lon="1.31571">
        <ele>189.4</ele>
        <time>2022-07-13T15:09:37Z</time>
      </trkpt>
      <trkpt lat="43.58315" lon="1.31572">
        <ele>189.6</ele>
        <time>2022-07-13T15:09:38Z</time>
      </trkpt>
      <trkpt lat="43.58321" lon="1.31579">
        <ele>190</ele>
        <time>2022-07-13T15:09:42Z</time>
      </trkpt>
      <trkpt lat="43.58329" lon="1.31585">
        <ele>190.6</ele>
        <time>2022-07-13T15:09:47Z</time>
      </trkpt>
      <trkpt lat="43.58333" lon="1.31588">
        <ele>191.2</ele>
        <time>2022-07-13T15:09:50Z</time>
      </trkpt>
      <trkpt lat="43.58338" lon="1.31591">
        <ele>191.8</ele>
        <time>2022-07-13T15:09:53Z</time>
      </trkpt>
      <trkpt lat="43.58343" lon="1.31595">
        <ele>192.8</ele>
        <time>2022-07-13T15:09:56Z</time>
      </trkpt>
      <trkpt lat="43.58344" lon="1.31596">
        <ele>193.2</ele>
        <time>2022-07-13T15:09:57Z</time>
      </trkpt>
      <trkpt lat="43.58349" lon="1.316">
        <ele>194</ele>
        <time>2022-07-13T15:10:00Z</time>
      </trkpt>
      <trkpt lat="43.58353" lon="1.31603">
        <ele>194.6</ele>
        <time>2022-07-13T15:10:02Z</time>
      </trkpt>
      <trkpt lat="43.58354" lon="1.31604">
        <ele>194.8</ele>
        <time>2022-07-13T15:10:03Z</time>
      </trkpt>
      <trkpt lat="43.58356" lon="1.31606">
        <ele>195</ele>
        <time>2022-07-13T15:10:04Z</time>
      </trkpt>
      <trkpt lat="43.58362" lon="1.31614">
        <ele>196</ele>
        <time>2022-07-13T15:10:08Z</time>
      </trkpt>
      <trkpt lat="43.58369" lon="1.31621">
        <ele>197.4</ele>
        <time>2022-07-13T15:10:12Z</time>
      </trkpt>
      <trkpt lat="43.58378" lon="1.3163">
        <ele>198.6</ele>
        <time>2022-07-13T15:10:17Z</time>
      </trkpt>
      <trkpt lat="43.58382" lon="1.31636">
        <ele>199.2</ele>
        <time>2022-07-13T15:10:20Z</time>
      </trkpt>
      <trkpt lat="43.58385" lon="1.31639">
        <ele>199.8</ele>
        <time>2022-07-13T15:10:22Z</time>
      </trkpt>
      <trkpt lat="43.58392" lon="1.31648">
        <ele>201</ele>
        <time>2022-07-13T15:10:27Z</time>
      </trkpt>
      <trkpt lat="43.58395" lon="1.31651">
        <ele>201.4</ele>
        <time>2022-07-13T15:10:29Z</time>
      </trkpt>
      <trkpt lat="43.58396" lon="1.31652">
        <ele>201.6</ele>
        <time>2022-07-13T15:10:30Z</time>
      </trkpt>
      <trkpt lat="43.584" lon="1.31653">
        <ele>202.2</ele>
        <time>2022-07-13T15:10:32Z</time>
      </trkpt>
      <trkpt lat="43.58403" lon="1.31657">
        <ele>202.6</ele>
        <time>2022-07-13T15:10:34Z</time>
      </trkpt>
      <trkpt lat="43.58412" lon="1.31666">
        <ele>203.2</ele>
        <time>2022-07-13T15:10:38Z</time>
      </trkpt>
      <trkpt lat="43.58417" lon="1.31671">
        <ele>203.4</ele>
        <time>2022-07-13T15:10:40Z</time>
      </trkpt>
      <trkpt lat="43.58429" lon="1.31687">
        <ele>204.2</ele>
        <time>2022-07-13T15:10:45Z</time>
      </trkpt>
      <trkpt lat="43.58438" lon="1.31698">
        <ele>204.6</ele>
        <time>2022-07-13T15:10:48Z</time>
      </trkpt>
      <trkpt lat="43.58463" lon="1.31726">
        <ele>205</ele>
        <time>2022-07-13T15:10:55Z</time>
      </trkpt>
      <trkpt lat="43.58487" lon="1.31753">
        <ele>205.2</ele>
        <time>2022-07-13T15:11:01Z</time>
      </trkpt>
      <trkpt lat="43.58494" lon="1.31763">
        <ele>205.4</ele>
        <time>2022-07-13T15:11:03Z</time>
      </trkpt>
      <trkpt lat="43.58534" lon="1.31812">
        <ele>205.4</ele>
        <time>2022-07-13T15:11:12Z</time>
      </trkpt>
      <trkpt lat="43.5858" lon="1.31858">
        <ele>205</ele>
        <time>2022-07-13T15:11:21Z</time>
      </trkpt>
      <trkpt lat="43.58613" lon="1.31885">
        <ele>204.2</ele>
        <time>2022-07-13T15:11:27Z</time>
      </trkpt>
      <trkpt lat="43.58624" lon="1.31897">
        <ele>204.2</ele>
        <time>2022-07-13T15:11:29Z</time>
      </trkpt>
      <trkpt lat="43.58647" lon="1.31937">
        <ele>203.4</ele>
        <time>2022-07-13T15:11:35Z</time>
      </trkpt>
      <trkpt lat="43.58659" lon="1.31955">
        <ele>203.2</ele>
        <time>2022-07-13T15:11:38Z</time>
      </trkpt>
      <trkpt lat="43.58664" lon="1.31961">
        <ele>203.2</ele>
        <time>2022-07-13T15:11:39Z</time>
      </trkpt>
      <trkpt lat="43.58668" lon="1.31965">
        <ele>203.2</ele>
        <time>2022-07-13T15:11:40Z</time>
      </trkpt>
      <trkpt lat="43.58672" lon="1.31971">
        <ele>203.2</ele>
        <time>2022-07-13T15:11:41Z</time>
      </trkpt>
      <trkpt lat="43.58679" lon="1.31982">
        <ele>203</ele>
        <time>2022-07-13T15:11:43Z</time>
      </trkpt>
      <trkpt lat="43.58682" lon="1.31988">
        <ele>203</ele>
        <time>2022-07-13T15:11:44Z</time>
      </trkpt>
      <trkpt lat="43.58685" lon="1.32004">
        <ele>203</ele>
        <time>2022-07-13T15:11:46Z</time>
      </trkpt>
      <trkpt lat="43.58687" lon="1.32057">
        <ele>202.4</ele>
        <time>2022-07-13T15:11:52Z</time>
      </trkpt>
      <trkpt lat="43.58684" lon="1.32116">
        <ele>202.4</ele>
        <time>2022-07-13T15:11:59Z</time>
      </trkpt>
      <trkpt lat="43.5868" lon="1.3217">
        <ele>202.8</ele>
        <time>2022-07-13T15:12:06Z</time>
      </trkpt>
      <trkpt lat="43.58676" lon="1.32222">
        <ele>202.8</ele>
        <time>2022-07-13T15:12:13Z</time>
      </trkpt>
      <trkpt lat="43.58675" lon="1.32226">
        <ele>202.8</ele>
        <time>2022-07-13T15:12:14Z</time>
      </trkpt>
      <trkpt lat="43.58674" lon="1.32231">
        <ele>202.8</ele>
        <time>2022-07-13T15:12:17Z</time>
      </trkpt>
      <trkpt lat="43.58677" lon="1.32232">
        <ele>202.8</ele>
        <time>2022-07-13T15:12:21Z</time>
      </trkpt>
      <trkpt lat="43.58677" lon="1.32229">
        <ele>202.4</ele>
        <time>2022-07-13T15:12:24Z</time>
      </trkpt>
      <trkpt lat="43.58677" lon="1.32229">
        <ele>202.2</ele>
        <time>2022-07-13T15:12:25Z</time>
      </trkpt>
    </trkseg>
  </trk>
</gpx>